[[{"header":{"parameterUnit":"m.s-1","parameterCategory":1,"la1":30.6,"la2":29.2853,"lo1":-89.7004,"lo2":-87.6739,"dy":0.0162,"dx":0.0183,"nx":112,"ny":82,"refTime":"2024-04-22T12:00:00:Z","depth":0,"parameterNumber":2,"parameterNumberName":"U-component_of_WINDS"},"data":[0.0,0.0,0.0,0.0,0.0,0.0,0.0,0.0,0.0,0.0,0.0,0.0,0.0,0.0,0.0,0.0,0.0,0.0,0.0,0.0,0.0,0.0,0.0,0.0,0.0,0.0,0.0,0.0,0.0,0.0,0.0,0.0,0.0,0.0,0.0,0.0,0.0,0.0,0.0,0.0,0.0,0.0,0.0,0.0,0.0,0.0,0.0,0.0,0.0,0.0,0.0,0.0,0.0,0.0,0.0,0.0,0.0,0.0,0.0,0.0,0.0,0.0,0.0,0.0,0.0,0.0,0.0,0.0,0.0,0.0,0.0,0.0,0.0,0.0,0.0,0.0,0.0,0.0,0.0,0.0,0.0,0.0,0.0,0.0,0.0,0.0,0.0,0.0,0.0,0.0,-5.234,-5.1968,-5.1946,-5.1915,-5.183,-5.183,-5.183,-5.183,0.0,0.0,0.0,0.0,0.0,0.0,0.0,0.0,0.0,0.0,0.0,0.0,0.0,0.0,0.0,0.0,0.0,0.0,0.0,0.0,0.0,0.0,0.0,0.0,0.0,0.0,0.0,0.0,0.0,0.0,0.0,0.0,0.0,0.0,0.0,0.0,0.0,0.0,0.0,0.0,0.0,0.0,0.0,0.0,0.0,0.0,0.0,0.0,0.0,0.0,0.0,0.0,0.0,0.0,0.0,0.0,0.0,0.0,0.0,0.0,0.0,0.0,0.0,0.0,0.0,0.0,0.0,0.0,0.0,0.0,0.0,0.0,0.0,0.0,0.0,0.0,0.0,0.0,0.0,0.0,0.0,0.0,0.0,0.0,0.0,0.0,0.0,0.0,0.0,0.0,0.0,0.0,0.0,0.0,0.0,0.0,0.0,0.0,0.0,0.0,0.0,0.0,0.0,0.0,-5.2533,-5.2254,-5.2235,-5.1985,-5.1434,-5.1403,-5.1403,-5.1403,0.0,0.0,0.0,0.0,0.0,0.0,0.0,0.0,0.0,0.0,0.0,0.0,0.0,0.0,0.0,0.0,0.0,0.0,0.0,0.0,0.0,0.0,0.0,0.0,0.0,0.0,0.0,0.0,0.0,0.0,0.0,0.0,0.0,0.0,0.0,0.0,0.0,0.0,0.0,0.0,0.0,0.0,0.0,0.0,0.0,0.0,0.0,0.0,0.0,0.0,0.0,0.0,0.0,0.0,0.0,0.0,0.0,0.0,0.0,0.0,0.0,0.0,0.0,0.0,0.0,0.0,0.0,0.0,0.0,0.0,0.0,0.0,0.0,0.0,0.0,0.0,0.0,0.0,0.0,0.0,0.0,0.0,0.0,0.0,0.0,0.0,0.0,0.0,0.0,0.0,0.0,0.0,0.0,0.0,0.0,0.0,0.0,0.0,0.0,0.0,0.0,0.0,0.0,-5.2698,-5.262,-5.2533,-5.2546,-5.2392,-5.2082,-5.2082,-5.2082,-5.2082,-5.1604,0.0,0.0,0.0,0.0,0.0,0.0,0.0,0.0,0.0,0.0,0.0,0.0,0.0,0.0,0.0,0.0,0.0,0.0,0.0,0.0,0.0,0.0,0.0,0.0,0.0,0.0,0.0,0.0,0.0,0.0,0.0,0.0,0.0,0.0,0.0,0.0,0.0,0.0,0.0,0.0,0.0,0.0,0.0,0.0,0.0,0.0,0.0,0.0,0.0,0.0,0.0,0.0,0.0,0.0,0.0,0.0,0.0,0.0,0.0,0.0,0.0,0.0,0.0,0.0,0.0,0.0,0.0,0.0,0.0,0.0,0.0,0.0,0.0,0.0,0.0,0.0,0.0,0.0,0.0,0.0,0.0,0.0,0.0,0.0,0.0,0.0,0.0,0.0,0.0,0.0,0.0,0.0,0.0,0.0,0.0,0.0,0.0,0.0,0.0,0.0,0.0,0.0,-5.2698,-5.2698,-5.2698,-5.2698,-5.2698,-5.2698,-5.2698,-5.2698,-5.2698,-5.2236,0.0,0.0,0.0,0.0,0.0,0.0,0.0,0.0,0.0,0.0,0.0,0.0,0.0,0.0,0.0,0.0,0.0,0.0,0.0,0.0,0.0,0.0,0.0,0.0,0.0,0.0,0.0,0.0,0.0,0.0,0.0,0.0,0.0,0.0,0.0,0.0,0.0,0.0,0.0,0.0,0.0,0.0,0.0,0.0,0.0,0.0,0.0,0.0,0.0,0.0,0.0,0.0,0.0,0.0,0.0,0.0,0.0,0.0,0.0,0.0,0.0,0.0,0.0,0.0,0.0,0.0,0.0,0.0,0.0,0.0,0.0,0.0,0.0,0.0,0.0,0.0,0.0,0.0,0.0,0.0,0.0,0.0,0.0,0.0,0.0,0.0,0.0,0.0,0.0,0.0,0.0,0.0,0.0,0.0,0.0,0.0,0.0,0.0,0.0,0.0,0.0,0.0,-5.2698,-5.2698,-5.2698,-5.2698,-5.2698,-5.2698,-5.2698,-5.2698,-5.2698,-5.2667,0.0,0.0,0.0,0.0,0.0,0.0,0.0,0.0,0.0,0.0,0.0,0.0,0.0,0.0,0.0,0.0,0.0,0.0,0.0,0.0,0.0,0.0,0.0,0.0,0.0,0.0,0.0,0.0,0.0,0.0,0.0,0.0,0.0,0.0,0.0,0.0,0.0,0.0,0.0,0.0,0.0,0.0,0.0,0.0,0.0,0.0,0.0,0.0,0.0,0.0,0.0,0.0,0.0,0.0,0.0,0.0,0.0,0.0,0.0,0.0,0.0,0.0,0.0,0.0,0.0,0.0,0.0,0.0,0.0,0.0,0.0,0.0,0.0,0.0,0.0,0.0,0.0,0.0,0.0,0.0,0.0,0.0,0.0,0.0,0.0,0.0,0.0,0.0,0.0,0.0,0.0,0.0,0.0,0.0,0.0,0.0,0.0,0.0,0.0,0.0,0.0,0.0,-5.2698,-5.2698,-5.2698,-5.2698,-5.2698,-5.2698,-5.2698,-5.2698,-5.2698,0.0,0.0,0.0,0.0,0.0,0.0,0.0,0.0,0.0,0.0,0.0,0.0,0.0,0.0,0.0,0.0,0.0,0.0,0.0,0.0,0.0,0.0,0.0,0.0,0.0,0.0,0.0,0.0,0.0,0.0,0.0,0.0,0.0,0.0,0.0,0.0,0.0,0.0,0.0,0.0,0.0,0.0,0.0,0.0,0.0,0.0,0.0,0.0,0.0,0.0,0.0,0.0,0.0,0.0,0.0,0.0,0.0,0.0,0.0,0.0,0.0,0.0,0.0,0.0,0.0,0.0,0.0,0.0,0.0,0.0,0.0,0.0,0.0,0.0,0.0,0.0,0.0,0.0,0.0,0.0,0.0,0.0,0.0,0.0,0.0,0.0,0.0,0.0,0.0,0.0,0.0,0.0,0.0,0.0,0.0,0.0,0.0,0.0,0.0,0.0,0.0,0.0,-5.2698,-5.2914,-5.3037,-5.3037,-5.3221,-5.3283,-5.3067,-5.3037,-5.2944,-5.2729,0.0,0.0,0.0,0.0,0.0,0.0,0.0,0.0,0.0,0.0,0.0,0.0,0.0,0.0,0.0,0.0,0.0,0.0,0.0,0.0,0.0,0.0,0.0,0.0,0.0,0.0,0.0,0.0,0.0,0.0,0.0,0.0,0.0,0.0,0.0,0.0,0.0,0.0,0.0,0.0,0.0,0.0,0.0,0.0,0.0,0.0,0.0,0.0,0.0,0.0,0.0,0.0,0.0,0.0,0.0,0.0,0.0,0.0,0.0,0.0,0.0,0.0,0.0,0.0,0.0,0.0,0.0,0.0,0.0,0.0,0.0,0.0,0.0,0.0,0.0,0.0,0.0,0.0,0.0,0.0,0.0,0.0,0.0,0.0,0.0,0.0,0.0,0.0,0.0,0.0,0.0,0.0,0.0,0.0,0.0,0.0,0.0,0.0,0.0,0.0,0.0,0.0,-5.2729,-5.3314,-5.3714,-5.3745,-5.4283,-5.4406,-5.3775,-5.3714,-5.3437,0.0,0.0,0.0,0.0,0.0,0.0,0.0,0.0,0.0,0.0,0.0,0.0,0.0,0.0,0.0,0.0,0.0,0.0,0.0,0.0,0.0,0.0,0.0,0.0,0.0,0.0,0.0,0.0,0.0,0.0,0.0,0.0,0.0,0.0,0.0,0.0,0.0,0.0,0.0,0.0,0.0,0.0,0.0,0.0,0.0,0.0,0.0,0.0,0.0,0.0,0.0,0.0,0.0,0.0,0.0,0.0,0.0,0.0,0.0,0.0,0.0,0.0,0.0,0.0,0.0,0.0,0.0,0.0,0.0,0.0,0.0,0.0,0.0,0.0,0.0,0.0,0.0,0.0,0.0,0.0,0.0,0.0,0.0,0.0,0.0,0.0,0.0,0.0,0.0,0.0,0.0,0.0,0.0,0.0,0.0,0.0,0.0,0.0,0.0,0.0,0.0,0.0,0.0,-5.3375,-5.3591,-5.3899,-5.4345,-5.456,-5.4591,-5.4406,-5.3945,-5.3652,-5.3437,0.0,0.0,0.0,0.0,0.0,0.0,0.0,0.0,0.0,0.0,0.0,0.0,0.0,0.0,0.0,0.0,0.0,0.0,0.0,0.0,0.0,0.0,0.0,0.0,0.0,0.0,0.0,0.0,0.0,0.0,0.0,0.0,0.0,0.0,0.0,0.0,0.0,0.0,0.0,0.0,0.0,0.0,0.0,0.0,0.0,0.0,0.0,0.0,0.0,0.0,0.0,0.0,0.0,0.0,0.0,0.0,0.0,0.0,0.0,0.0,0.0,0.0,0.0,0.0,0.0,0.0,0.0,0.0,0.0,0.0,0.0,0.0,0.0,0.0,0.0,0.0,0.0,0.0,0.0,0.0,0.0,0.0,0.0,0.0,0.0,0.0,0.0,0.0,0.0,0.0,0.0,0.0,0.0,0.0,0.0,0.0,0.0,0.0,0.0,0.0,0.0,0.0,-5.3976,-5.436,-5.4668,-5.5068,-5.5376,-5.5438,-5.513,-5.473,-5.4299,-5.3699,0.0,0.0,0.0,0.0,0.0,0.0,0.0,0.0,0.0,0.0,0.0,0.0,0.0,0.0,0.0,0.0,0.0,0.0,0.0,0.0,0.0,0.0,0.0,0.0,0.0,0.0,0.0,0.0,0.0,0.0,0.0,0.0,0.0,0.0,0.0,0.0,0.0,0.0,0.0,0.0,0.0,0.0,0.0,0.0,0.0,0.0,0.0,0.0,0.0,0.0,0.0,0.0,0.0,0.0,0.0,0.0,0.0,0.0,0.0,0.0,0.0,0.0,0.0,0.0,0.0,0.0,0.0,0.0,0.0,0.0,0.0,0.0,0.0,0.0,0.0,0.0,0.0,0.0,0.0,0.0,0.0,0.0,0.0,0.0,0.0,0.0,0.0,0.0,0.0,0.0,0.0,0.0,0.0,0.0,0.0,0.0,0.0,0.0,0.0,0.0,0.0,0.0,-5.4683,-5.5315,-5.5715,-5.5776,-5.6409,-5.6532,-5.5838,-5.5745,-5.5191,-5.3991,0.0,0.0,0.0,0.0,0.0,0.0,0.0,0.0,0.0,0.0,0.0,0.0,0.0,0.0,0.0,0.0,0.0,0.0,0.0,0.0,0.0,0.0,0.0,0.0,0.0,0.0,0.0,0.0,0.0,0.0,0.0,0.0,0.0,0.0,0.0,0.0,0.0,0.0,0.0,0.0,0.0,0.0,0.0,0.0,0.0,0.0,0.0,0.0,0.0,0.0,0.0,0.0,0.0,0.0,0.0,0.0,0.0,0.0,0.0,0.0,-5.681,-5.681,0.0,0.0,0.0,0.0,0.0,0.0,0.0,0.0,0.0,0.0,0.0,0.0,0.0,0.0,0.0,0.0,0.0,0.0,0.0,0.0,0.0,0.0,0.0,0.0,0.0,0.0,0.0,0.0,0.0,0.0,0.0,0.0,0.0,0.0,0.0,0.0,0.0,0.0,0.0,0.0,-5.5407,-5.5592,-5.5899,-5.6532,-5.6717,-5.6748,-5.6594,-5.6023,-5.5561,-5.5284,-5.4791,0.0,0.0,0.0,0.0,0.0,0.0,0.0,0.0,0.0,0.0,0.0,0.0,0.0,0.0,0.0,0.0,0.0,0.0,0.0,0.0,0.0,0.0,0.0,0.0,0.0,0.0,0.0,0.0,0.0,0.0,0.0,0.0,0.0,0.0,0.0,0.0,0.0,0.0,0.0,0.0,0.0,0.0,0.0,0.0,0.0,0.0,0.0,0.0,0.0,0.0,0.0,0.0,0.0,0.0,0.0,0.0,0.0,0.0,0.0,-5.681,-5.681,0.0,0.0,0.0,0.0,0.0,0.0,0.0,0.0,0.0,0.0,0.0,0.0,0.0,0.0,0.0,0.0,0.0,0.0,0.0,0.0,0.0,0.0,0.0,0.0,0.0,0.0,0.0,0.0,0.0,0.0,0.0,0.0,0.0,0.0,0.0,0.0,0.0,0.0,0.0,0.0,-5.6115,-5.6255,-5.6409,-5.6779,-5.681,-5.681,-5.681,-5.6471,-5.6053,-5.5715,-5.5376,0.0,0.0,0.0,0.0,0.0,0.0,0.0,0.0,0.0,0.0,0.0,0.0,0.0,0.0,0.0,0.0,0.0,0.0,0.0,0.0,0.0,0.0,0.0,0.0,0.0,0.0,0.0,0.0,0.0,0.0,0.0,0.0,0.0,0.0,0.0,0.0,0.0,0.0,0.0,0.0,0.0,0.0,0.0,0.0,0.0,0.0,0.0,0.0,0.0,0.0,0.0,0.0,0.0,-5.6748,-5.681,-5.681,-5.681,-5.681,-5.681,-5.681,-5.681,-5.681,-5.681,0.0,0.0,0.0,0.0,0.0,0.0,0.0,0.0,0.0,0.0,0.0,0.0,0.0,0.0,0.0,0.0,0.0,0.0,0.0,0.0,0.0,0.0,-5.681,-5.681,-5.681,-5.681,-5.681,0.0,0.0,0.0,0.0,0.0,0.0,0.0,0.0,0.0,0.0,0.0,-5.6717,-5.681,-5.681,-5.681,-5.681,-5.681,-5.681,-5.681,-5.6563,-5.593,-5.5773,-5.5084,0.0,0.0,0.0,0.0,0.0,0.0,0.0,0.0,0.0,0.0,0.0,0.0,0.0,0.0,0.0,0.0,0.0,0.0,0.0,0.0,0.0,0.0,0.0,0.0,0.0,0.0,0.0,0.0,0.0,0.0,0.0,0.0,-5.7652,-5.7067,0.0,0.0,0.0,0.0,0.0,0.0,0.0,0.0,0.0,0.0,0.0,0.0,0.0,-5.7371,-5.6075,-5.655,-5.6502,-5.5838,-5.6502,-5.681,-5.681,-5.681,-5.681,-5.681,-5.681,0.0,-5.681,-5.681,0.0,0.0,0.0,0.0,0.0,0.0,0.0,0.0,0.0,0.0,0.0,0.0,0.0,0.0,0.0,0.0,0.0,0.0,0.0,0.0,0.0,0.0,-5.681,-5.681,-5.681,-5.681,-5.681,-5.681,-5.6779,-5.6686,-5.6115,-5.5653,0.0,0.0,0.0,0.0,0.0,0.0,-5.681,-5.681,-5.681,-5.681,-5.681,-5.681,-5.681,-5.681,-5.6779,-5.6686,-5.5944,-5.5198,-5.4387,-5.3145,0.0,0.0,0.0,0.0,0.0,0.0,0.0,0.0,0.0,0.0,0.0,0.0,0.0,0.0,0.0,0.0,0.0,0.0,0.0,0.0,0.0,0.0,0.0,0.0,0.0,0.0,0.0,0.0,0.0,-5.7401,-5.7258,-5.6858,-5.7258,-5.7401,0.0,0.0,0.0,0.0,0.0,0.0,0.0,0.0,0.0,-5.7401,-5.7401,-5.7242,-5.6854,-5.721,-5.7426,-5.7438,-5.7746,-5.7949,-5.7949,-5.7949,-5.7949,-5.7949,-5.7949,-5.7949,-5.7888,-5.7118,-5.681,-5.681,0.0,0.0,0.0,0.0,-5.681,-5.681,-5.681,-5.681,-5.681,-5.681,0.0,0.0,0.0,0.0,0.0,0.0,0.0,-5.681,-5.681,-5.681,-5.681,-5.681,-5.681,-5.681,-5.681,-5.6664,-5.6493,-5.6238,-5.6286,-5.6224,-5.5745,-5.6023,0.0,0.0,0.0,-5.6567,-5.6567,-5.6421,-5.6372,-5.6372,-5.6372,-5.6372,-5.6372,-5.5739,-5.5361,-5.5361,-5.4369,-5.3448,-5.2665,-5.1742,-5.0848,0.0,0.0,0.0,0.0,0.0,0.0,0.0,0.0,0.0,0.0,0.0,0.0,0.0,0.0,0.0,0.0,0.0,0.0,0.0,0.0,0.0,0.0,0.0,0.0,0.0,0.0,0.0,0.0,-5.6761,-5.6713,-5.681,-5.7353,-5.7464,0.0,0.0,0.0,0.0,0.0,0.0,-5.7056,-5.7056,-5.7148,-5.7333,-5.7179,-5.7303,-5.7826,-5.798,-5.8208,-5.8516,-5.8701,-5.8793,-5.8793,-5.8743,-5.8743,-5.8793,-5.8743,-5.8743,-5.8701,-5.7549,-5.7056,-5.7056,-5.6871,-5.681,-5.681,-5.681,-5.681,-5.681,-5.681,-5.681,-5.681,-5.681,-5.681,-5.681,-5.681,0.0,0.0,0.0,0.0,-5.6713,-5.6713,-5.6664,-5.6616,-5.6616,-5.6616,-5.6616,-5.6616,-5.6421,-5.6219,-5.591,-5.6247,-5.6383,-5.5862,-5.6199,0.0,-5.6616,-5.6421,-5.6335,-5.6488,-5.637,-5.6282,-5.6464,-5.6495,-5.6304,-5.5822,-5.4943,-5.4259,-5.3773,-5.2746,-5.1863,-5.1237,-5.0436,-4.9693,-4.9135,0.0,0.0,0.0,0.0,0.0,0.0,0.0,0.0,0.0,0.0,0.0,0.0,0.0,0.0,0.0,0.0,0.0,0.0,0.0,0.0,0.0,0.0,0.0,0.0,0.0,0.0,0.0,0.0,0.0,-5.6761,-5.6616,0.0,0.0,0.0,0.0,-5.681,-5.7395,-5.7765,-5.7765,-5.7765,-5.8073,-5.867,-5.8054,-5.7795,-5.7826,-5.8423,-5.8423,-5.7888,-5.8485,-5.8793,-5.8793,-5.8541,-5.8592,-5.8793,-5.8541,-5.8561,-5.8731,-5.8073,-5.7765,-5.7703,-5.7056,-5.681,-5.681,-5.681,-5.681,-5.681,-5.681,-5.681,-5.681,-5.681,-5.681,-5.681,-5.681,-5.681,0.0,0.0,-5.6616,-5.6421,-5.6421,-5.6225,-5.6028,-5.6028,-5.6028,-5.6028,-5.6028,-5.6028,-5.6077,-5.6311,-5.6195,-5.6028,-5.5967,0.0,-5.6028,-5.6028,-5.6028,-5.6241,-5.6798,-5.6859,-5.7132,-5.7749,-5.781,-5.7097,-5.5374,-5.5159,-5.4393,-5.2669,-5.1755,-5.1237,-5.1182,-4.9899,-4.9129,-4.9072,-4.7889,0.0,0.0,0.0,0.0,0.0,0.0,0.0,0.0,0.0,0.0,0.0,0.0,0.0,0.0,0.0,0.0,0.0,0.0,0.0,0.0,0.0,0.0,0.0,0.0,0.0,0.0,0.0,0.0,-5.6274,-5.6511,0.0,-5.6885,-5.6885,-5.7117,-5.7775,-5.7622,-5.7813,-5.8393,-5.8423,-5.8516,-5.8762,-5.8397,-5.8388,-5.8817,-5.8828,-5.9072,-5.9461,-5.9706,-5.9932,-6.0086,-5.9983,-5.9932,-5.9829,-5.9932,-5.9932,-5.9767,-5.9296,-5.8723,-5.8143,-5.7898,-5.7806,-5.7806,-5.7806,-5.753,-5.7162,-5.7162,-5.6788,-5.6274,-5.6274,-5.6274,-5.6274,-5.6274,-5.6274,-5.6274,-5.6274,-5.653,-5.6735,-5.6735,-5.697,-5.7203,-5.7203,-5.7203,-5.7203,-5.7203,-5.7102,-5.7,-5.7102,-5.6505,-5.61,-5.6495,-5.6586,-5.6738,-5.7142,-5.7102,-5.7009,-5.7251,-5.7148,-5.7136,-5.7355,-5.6697,-5.5971,-5.5333,-5.349,-5.2101,-5.1459,-5.0032,-4.9274,-4.9274,-4.8811,-4.8521,-4.8521,-4.7738,-4.7231,0.0,0.0,0.0,0.0,0.0,0.0,0.0,0.0,0.0,0.0,0.0,0.0,0.0,0.0,0.0,0.0,0.0,0.0,0.0,0.0,0.0,0.0,0.0,0.0,0.0,-5.6111,-5.6213,-5.6282,-5.6758,-5.7102,-5.7203,-5.7254,-5.7517,-5.8176,-5.8024,-5.8186,-5.8797,-5.8797,-5.8971,-5.9216,-5.9011,-5.9213,-5.9884,-5.9887,-6.0221,-6.089,-6.089,-6.0996,-6.1155,-6.1102,-6.0874,-6.0555,-6.066,-6.0538,-6.0272,-5.9836,-5.9356,-5.8744,-5.8492,-5.8309,-5.8288,-5.8359,-5.8034,-5.7567,-5.7486,-5.7111,-5.6647,-5.6647,-5.6647,-5.6647,-5.6647,-5.6647,-5.6647,-5.6647,-5.6849,-5.7102,-5.7102,-5.7332,-5.7643,-5.7643,-5.7643,-5.7643,-5.7643,-5.7488,-5.7385,-5.7385,-5.6817,-5.6516,-5.6889,-5.6949,-5.71,-5.7553,-5.7488,-5.7475,-5.7685,-5.7558,-5.7355,-5.7161,-5.6406,-5.5495,-5.4486,-5.2563,-5.1134,-5.0537,-4.9244,-4.8486,-4.8486,-4.8303,-4.8172,-4.8172,-4.7623,-4.7278,-4.7278,0.0,0.0,0.0,0.0,0.0,0.0,0.0,0.0,0.0,0.0,0.0,0.0,0.0,0.0,0.0,0.0,0.0,0.0,0.0,0.0,0.0,0.0,0.0,-5.6051,-5.6335,-5.6677,-5.69,-5.7251,-5.7622,-5.788,-5.788,-5.788,-5.7961,-5.8538,-5.8902,-5.8932,-5.8932,-5.9235,-5.9986,-5.9933,-6.0236,-6.0873,-6.154,-6.1874,-6.1874,-6.1874,-6.1874,-6.1874,-6.1599,-6.1322,-6.0903,-6.0633,-6.0355,-6.0024,-5.9697,-5.956,-5.9492,-5.8735,-5.8217,-5.7961,-5.8319,-5.8217,-5.7931,-5.7901,-5.7901,-5.7901,-5.7849,-5.7849,-5.7849,-5.7849,-5.7849,-5.7849,-5.7849,-5.7725,-5.7518,-5.7518,-5.7311,-5.7154,-5.7154,-5.7154,-5.7154,-5.7154,-5.7154,-5.7154,-5.7154,-5.7154,-5.7154,-5.7124,-5.7124,-5.7124,-5.7154,-5.7154,0.0,-5.8082,-5.8088,-5.7867,-5.7241,-5.7131,-5.5851,-5.2847,-5.2582,-5.1803,-5.007,-4.9401,-4.9113,-4.9087,-4.8538,-4.8198,-4.8172,-4.7649,-4.7304,-4.7278,0.0,0.0,0.0,0.0,0.0,0.0,0.0,0.0,0.0,0.0,0.0,0.0,0.0,0.0,0.0,0.0,0.0,0.0,0.0,0.0,0.0,-5.6149,-5.626,-5.6182,-5.659,-5.6981,-5.7032,-5.7581,-5.7948,-5.8053,-5.8053,-5.8316,-5.901,-5.8851,-5.8987,-5.9629,-5.9713,-5.9804,-5.9986,-6.0227,-6.0421,-6.0633,-6.1077,-6.1408,-6.1599,-6.1599,-6.1709,-6.1874,-6.1819,-6.1619,-6.1327,-6.1437,-6.1346,-6.1056,-6.0651,-6.0415,-6.0162,-5.9478,-5.9146,-5.9093,-5.9146,-5.8844,-5.8256,-5.7535,-5.7437,-5.7592,-5.7355,-5.7303,-5.7303,-5.7303,-5.7303,-5.7303,-5.7303,-5.7611,-5.7948,-5.7948,-5.8255,-5.856,-5.856,-5.856,-5.856,-5.856,-5.856,-5.856,-5.856,-5.856,-5.8411,-5.7932,-5.7842,-5.7992,-5.8471,-5.856,-5.862,-5.88,-5.801,-5.7348,-5.7243,-5.5588,-5.4181,-5.3326,-5.207,-5.1049,-5.0612,-5.0002,-4.9505,-4.9113,-4.893,-4.8643,-4.8198,-4.8041,-4.7754,0.0,0.0,0.0,0.0,0.0,0.0,0.0,0.0,0.0,0.0,0.0,0.0,0.0,0.0,0.0,0.0,0.0,0.0,0.0,0.0,0.0,0.0,-5.6795,-5.7004,-5.7004,-5.7304,-5.7513,-5.7513,-5.8112,-5.853,-5.853,-5.853,-5.8734,-5.9285,-5.9038,-5.9061,-5.9583,-5.9613,-5.9613,-5.9613,-6.0084,-6.0361,-6.0361,-6.083,-6.131,-6.1773,-6.1773,-6.198,-6.2389,-6.2389,-6.2126,-6.1773,-6.1941,-6.1735,-6.1322,-6.1097,-6.0891,-6.0691,0.0,0.0,0.0,0.0,-5.9182,-5.8844,-5.8188,-5.8038,-5.8121,-5.7985,-5.7932,-5.7932,-5.7932,-5.7932,-5.7932,-5.7932,-5.8231,-5.853,-5.853,-5.883,-5.9099,-5.9099,-5.9099,-5.9099,-5.9099,-5.9099,-5.9099,-5.9099,-5.9099,0.0,-5.859,-5.853,-5.865,-5.9039,-5.9099,-5.9099,-5.9099,-5.797,-5.7047,-5.6537,-5.4651,-5.3268,-5.2719,-5.1716,0.0,0.0,0.0,-4.9897,-4.9113,-4.8852,0.0,0.0,0.0,-4.8015,-4.7702,-4.7702,0.0,0.0,-4.579,-4.5373,0.0,0.0,0.0,0.0,0.0,0.0,0.0,0.0,0.0,0.0,0.0,0.0,0.0,0.0,0.0,0.0,-5.7782,-5.8231,-5.8231,-5.8291,-5.8321,-5.8231,-5.874,-5.9099,-5.9099,-5.9099,-5.9099,-5.9099,-5.9099,-5.9099,-5.9099,-5.9099,0.0,0.0,0.0,-6.0086,-6.0086,-6.0775,-6.1403,-6.2002,-6.2002,-6.2301,-6.2869,-6.2929,-6.266,-6.2091,-6.2181,-6.1882,-6.1343,-6.1253,-6.1194,-6.0984,-5.997,-5.9435,-5.9189,-5.9129,-5.9261,-5.9422,-5.9153,0.0,0.0,-5.9099,-5.9099,-5.9099,-5.9099,-5.9099,-5.9099,-5.9099,-5.9099,-5.9099,-5.9099,-5.9099,-5.9099,-5.9099,-5.9099,-5.9099,-5.9099,-5.9099,-5.9099,-5.9099,-5.9099,-5.9099,-5.9099,-5.9099,-5.9099,-5.9099,-5.8991,-5.8882,-5.8882,-5.7664,-5.6337,-5.5267,-5.4024,0.0,-5.1721,-5.1596,-5.1596,-5.1596,-5.11,-5.0315,-4.9218,-4.859,-4.825,-4.8172,-4.8172,-4.8172,-4.8172,-4.8172,-4.7911,-4.7414,-4.626,-4.5794,0.0,0.0,0.0,0.0,0.0,0.0,0.0,0.0,0.0,0.0,0.0,0.0,0.0,0.0,0.0,-5.7812,-5.8471,-5.8919,-5.8919,-5.9368,-5.9518,-5.8979,-5.9039,-5.9099,-5.9099,-5.9099,-5.9099,-5.9099,-5.9099,-5.9099,-5.9099,-5.9099,-5.9099,-5.9099,-5.9727,-6.0086,-6.0086,-6.0775,-6.1194,-6.1313,-6.1313,0.0,-6.1523,-6.2061,-6.2211,-6.2121,-6.266,-6.281,-6.266,-6.2121,-6.1583,-6.1044,-6.0261,-5.9962,-5.9817,-5.9308,-5.9153,-5.9153,-5.9099,-5.9099,-5.9099,-5.9099,-5.9099,-5.9099,-5.9099,-5.9099,0.0,-5.9099,-5.9099,-5.9099,-5.9099,-5.9099,-5.9099,-5.9099,-5.9099,-5.9099,-5.9099,-5.9099,-5.9099,-5.9099,-5.9099,-5.9099,-5.9099,-5.9099,-5.9099,-5.9099,-5.8221,-5.7552,-5.7552,-5.5588,-5.4144,-5.3904,-5.2719,-5.1908,-5.1596,-5.1596,-5.1596,-5.1596,-5.11,-5.0472,-4.9766,-4.9191,-4.8669,-4.8198,-4.8172,-4.8172,-4.8172,-4.8172,-4.812,-4.8015,-4.731,-4.6761,0.0,0.0,0.0,0.0,0.0,0.0,0.0,0.0,0.0,0.0,0.0,-5.7094,-5.7094,0.0,-5.8321,-5.9009,-5.9368,-5.9608,-5.9608,-5.9608,-5.9488,-5.9129,-5.9099,-5.9099,-5.9099,-5.9099,-5.9099,-5.9099,-5.9099,-5.9099,-5.9099,-5.9099,-5.9099,-5.9099,-5.9428,-5.9608,-5.9608,-5.9937,-6.0266,-6.0595,-6.0595,-6.0775,-6.1134,-6.1463,-6.1613,-6.1642,-6.2301,-6.26,-6.26,-6.26,-6.2391,-6.2032,-6.1343,-6.0894,-6.0565,-6.0236,-6.0116,-6.0057,-5.9727,-5.9608,-5.9548,-5.9219,-5.9099,-5.9099,-5.9099,-5.9099,-5.9099,-5.9099,-5.9099,-5.9099,-5.9099,-5.9099,-5.9099,-5.9099,-5.9099,-5.9099,-5.9099,-5.9099,-5.9099,-5.9099,-5.9099,-5.9099,-5.9099,-5.9099,-5.8882,-5.8276,-5.7608,-5.6962,-5.6366,-5.4679,-5.351,-5.351,-5.2377,-5.1596,-5.1596,-5.1596,-5.1596,-5.1596,-5.11,-5.0655,-5.0342,-4.9531,-4.893,-4.8643,-4.8329,-4.8172,-4.8172,-4.8172,-4.8172,-4.8172,-4.7885,-4.7466,0.0,0.0,0.0,0.0,0.0,0.0,0.0,-5.6645,-5.6944,-5.6466,-5.7064,-5.7663,-5.7663,-5.868,-5.9608,-6.0027,-6.0206,-6.0206,-5.9937,-5.9548,-5.9249,-5.9129,-5.9099,-5.9099,-5.9099,-5.9099,-5.9159,-5.9279,-5.9308,-5.9368,-5.9488,-5.9488,-5.9488,-5.9488,-5.9488,-5.9488,-5.9488,-5.9488,-5.9757,-6.0266,-6.0266,-6.0505,-6.0924,-6.1044,-6.1044,-6.0954,-6.1613,-6.1972,-6.2121,-6.266,-6.2959,-6.3019,-6.248,-6.1972,-6.1463,-6.1224,-6.1104,-6.1044,-6.0475,-6.0266,-6.0206,-5.9668,-5.9488,-5.9488,-5.9488,-5.9398,-5.9308,-5.9308,-5.9189,-5.9099,-5.9099,-5.9099,-5.9099,-5.9099,-5.9099,-5.9099,-5.9099,-5.9099,-5.9099,-5.9099,-5.9099,-5.9099,-5.9099,-5.9099,-5.8689,-5.7384,-5.6962,-5.6394,-5.5208,-5.3904,-5.3146,-5.3146,-5.2192,-5.1596,-5.1596,-5.1596,-5.1596,-5.1596,-5.1178,-5.089,-5.0786,-4.9793,-4.9191,-4.9087,-4.8486,-4.8172,-4.8172,-4.8172,-4.8172,-4.8172,-4.8172,-4.7937,-5.531,-5.5508,-5.6077,-5.6645,-5.6406,-5.6077,0.0,-5.6645,-5.7064,-5.7004,-5.8471,-5.9757,-5.9757,-6.0386,-6.0715,-6.0176,-6.0595,-6.0595,-5.9368,-5.9668,-5.9757,-5.9189,-5.9099,-5.9099,-5.9099,-5.9099,-5.9338,-5.9937,-5.9967,-6.0236,-6.0864,-6.0894,-6.0894,-6.0894,-6.0894,-6.0894,-6.0894,-6.0894,-6.0924,-6.1014,-6.1014,-6.0715,-6.0206,-6.0835,-6.0775,-6.0236,-6.0924,-6.1553,-6.2091,-6.2181,-6.254,-6.3079,-6.2989,-6.2929,-6.272,-6.1553,-6.1104,-6.1104,-6.1014,-6.1014,-6.0984,-6.0924,-6.0894,-6.0894,-6.0894,-6.0475,-5.9967,-5.9967,-5.9548,-5.9099,-5.9099,-5.9099,-5.9099,-5.9099,-5.9099,-5.9099,-5.9099,-5.9099,-5.9099,-5.9099,-5.9099,-5.9099,-5.9099,-5.9099,-5.8689,-5.7384,-5.6308,-5.515,-5.3844,-5.2596,-5.1846,-5.1846,-5.1721,-5.1596,-5.1596,-5.1596,-5.1596,-5.1596,-5.1544,-5.1282,-5.0812,-5.0159,-4.9584,-4.9087,-4.8486,-4.8172,-4.8172,-4.8172,-4.8172,-4.8172,-4.8172,-4.8146,-5.59,-5.5688,-5.5748,-5.6406,-5.6645,-5.6825,-5.7214,-5.8112,-5.883,-5.883,-5.9817,-6.0685,-6.0685,-6.1224,-6.1463,-6.0805,-6.0924,-6.0775,-5.9817,-5.9578,-5.9548,-5.9668,-5.9668,-5.9668,-5.9668,-5.9668,-5.9967,-6.0625,-6.0685,-6.0805,-6.1104,-6.1104,-6.1104,-6.1104,-6.1104,-6.1104,-6.1104,-6.1104,-6.1104,-6.1104,-6.1104,-6.0954,-6.0685,-6.0565,-6.0356,-6.0116,-6.0386,-6.1104,-6.2091,-6.2091,-6.248,-6.3079,-6.3079,-6.3079,-6.3019,-6.245,-6.2241,-6.2211,-6.1822,-6.1672,-6.1613,-6.1253,-6.1104,-6.1104,-6.1104,-6.0894,-6.0685,-6.0685,-6.0475,-6.0266,-6.0266,-6.0266,-6.0266,-6.0266,-5.9967,-5.9668,-5.9668,-5.9368,-5.9099,-5.9099,-5.9099,-5.9099,-5.9099,-5.9099,-5.8415,-5.648,-5.5732,-5.4679,-5.2658,-5.1944,-5.1596,-5.1596,-5.1596,-5.1596,-5.1596,-5.1596,-5.1596,-5.1596,-5.1596,-5.1492,-5.1256,-5.0707,-5.0132,-4.9557,-4.8982,-4.8538,-4.8172,-4.8172,-4.8172,-4.8172,-4.8172,-4.8172,-5.6645,-5.6226,-5.5927,-5.6765,-5.7304,-5.7842,-5.8501,-5.9548,-6.0386,-6.0386,-6.0924,-6.1373,-6.1373,-6.1762,-6.1882,-6.1224,-6.0954,-6.0655,-6.0146,-5.9668,-5.9608,-6.0296,-6.0386,-6.0446,-6.0625,-6.0475,-6.0655,-6.1343,-6.1373,-6.1463,-6.1642,-6.1642,-6.1642,-6.1642,-6.1642,-6.1642,-6.1642,-6.1642,-6.1642,-6.1642,-6.1642,-6.1553,-6.1373,-6.0475,-6.0086,-6.0086,-5.9877,-6.0475,-6.1553,-6.1762,-6.2211,-6.281,-6.3019,-6.3079,-6.3079,-6.3079,-6.3079,-6.3019,-6.254,-6.2361,-6.2301,-6.1822,-6.1642,-6.1642,-6.1642,-6.1523,-6.1373,-6.1373,-6.1253,-6.1104,-6.1104,-6.1104,-6.1104,-6.1104,-6.0745,-6.0386,-6.0386,-5.9997,-5.9608,-5.9398,-5.9368,-5.9308,-5.9129,-5.9099,-5.825,-5.5761,-5.5412,-5.4501,-5.1944,-5.1596,-5.1596,-5.1596,-5.1596,-5.1596,-5.1596,-5.1596,-5.1596,-5.1596,-5.1596,-5.1596,-5.1596,-5.1073,-5.0577,-5.0159,-4.9584,-4.9008,-4.8433,-4.8433,-4.8355,-4.8172,-4.8172,-4.8172,-5.7872,-5.7573,-5.7363,-5.868,-5.9039,-5.9219,-5.9877,-6.0565,-6.1074,-6.1074,-6.1613,-6.2061,-6.2061,-6.2091,-6.1882,-6.1224,-6.0565,-6.0116,-6.0086,-6.0057,-6.0326,-6.1014,-6.1074,-6.1343,-6.1972,-6.1463,-6.1373,-6.2032,-6.2061,-6.2331,-6.2989,-6.3019,-6.3019,-6.3019,-6.3019,-6.3019,-6.3019,-6.3019,-6.3019,-6.3019,-6.3019,-6.269,-6.2032,-6.0685,-6.0086,-6.0057,-5.9398,-5.9518,-6.0206,-6.0864,-6.1523,-6.2181,-6.2839,-6.3079,-6.3079,-6.3079,-6.3079,-6.3079,-6.3049,-6.3049,-6.3049,-6.3019,-6.3019,-6.3019,-6.3019,-6.257,-6.2061,-6.2061,-6.1613,-6.1104,-6.1104,-6.1104,-6.1104,-6.1104,-6.1104,-6.1074,-6.1074,-6.1074,-6.0864,-6.0176,-6.0057,-5.9847,-5.9219,-5.9099,-5.825,-5.5761,-5.5412,-5.4501,-5.1944,-5.1596,-5.1596,-5.1596,-5.1596,-5.1596,-5.1596,-5.1596,-5.1596,-5.1596,-5.1596,-5.1596,-5.1596,-5.1073,-5.0786,-5.076,-5.0159,-4.9584,-4.9061,-4.9061,-4.8747,-4.8172,-4.8172,-4.8172,-5.8471,-5.8291,-5.8112,-5.9428,-5.9757,-5.9937,-6.0625,-6.1283,-6.1762,-6.1762,-6.2301,-6.26,-6.2181,-6.2091,-6.1732,-6.0625,-6.0625,-6.0625,-6.0146,-6.0475,-6.1014,-6.1672,-6.1762,-6.2032,-6.269,-6.2151,-6.2032,-6.269,-6.275,-6.2839,-6.3079,-6.3079,-6.3079,-6.3079,-6.3079,-6.3079,-6.3079,-6.3079,-6.3079,-6.3079,-6.3079,-6.272,-6.2091,-6.1613,-6.0924,-6.0086,-5.9847,-5.9877,-6.0116,-6.0326,-6.1074,-6.2121,-6.2331,-6.269,-6.3079,-6.3079,-6.3079,-6.3079,-6.3079,-6.3079,-6.3079,-6.3079,-6.3079,-6.3079,-6.3079,-6.2929,-6.275,-6.275,-6.26,-6.2421,-6.2421,-6.2421,-6.2421,-6.2421,-6.2091,-6.1762,-6.1762,-6.1433,-6.1044,-6.0805,-6.0386,-6.0027,-5.9787,-5.9398,-5.825,-5.5761,-5.3964,-5.2535,-5.1721,-5.1596,-5.1596,-5.1596,-5.1596,-5.1596,-5.1596,-5.1596,-5.1596,-5.1596,-5.1596,-5.1596,-5.1596,-5.1413,-5.1152,-5.0812,-5.0603,-5.0211,-4.961,-4.961,-4.9505,-4.9296,-4.8956,-4.8773,-5.886,-5.88,-5.88,-6.0116,-6.0446,-6.0625,-6.1313,-6.1972,-6.245,-6.245,-6.278,-6.2959,-6.254,-6.2061,-6.1463,-6.0595,-6.0625,-6.0685,-6.0475,-6.1044,-6.1702,-6.2361,-6.245,-6.26,-6.3049,-6.269,-6.263,-6.3049,-6.3079,-6.3079,-6.3079,-6.3079,-6.3079,-6.3079,-6.3079,-6.3079,-6.3079,-6.3079,-6.3079,-6.3079,-6.3079,-6.2839,-6.245,-6.2211,-6.1493,-6.0446,-6.0176,-5.9937,-5.9757,-5.9997,-6.0745,-6.1762,-6.2002,-6.251,-6.3079,-6.3079,-6.3079,-6.3079,-6.3079,-6.3079,-6.3079,-6.3079,-6.3079,-6.3079,-6.3079,-6.3079,-6.3079,-6.3079,-6.3079,-6.3079,-6.3079,-6.3079,-6.3079,-6.3079,-6.275,-6.245,-6.245,-6.2121,-6.1732,-6.1493,-6.1104,-6.0745,-6.0505,-5.9185,-5.7507,-5.5673,-5.3207,-5.1596,-5.1596,-5.1596,-5.1596,-5.1596,-5.1596,-5.1596,-5.1596,-5.1596,-5.1596,-5.1596,-5.1596,-5.1596,-5.1596,-5.1596,-5.1439,-5.1073,-5.1073,-5.0786,-5.0211,-5.0211,-5.0106,-4.9871,-4.9531,-4.9374,-5.9129,-5.9159,-5.9488,-6.0835,-6.1164,-6.1343,-6.2002,-6.263,-6.3079,-6.3079,-6.3079,-6.3079,-6.3019,-6.1972,-6.1104,-6.1074,-6.0535,-6.0356,-6.1014,-6.1702,-6.2391,-6.2989,-6.3079,-6.3079,-6.3079,-6.3079,-6.3079,-6.3079,-6.3079,-6.3079,-6.3079,-6.3079,-6.3079,-6.3079,-6.3079,-6.3079,-6.3079,-6.3079,-6.3079,-6.3079,-6.3079,-6.3079,-6.3049,-6.2421,-6.1792,-6.1134,-6.0446,-5.9757,-5.9189,-5.9787,-6.0446,-6.1164,-6.1792,-6.248,-6.3079,-6.3079,-6.3079,-6.3079,-6.3079,-6.3079,-6.3079,-6.3079,-6.3079,-6.3079,-6.3079,-6.3079,-6.3079,-6.3079,-6.3079,-6.3079,-6.3079,-6.3079,-6.3079,-6.3079,-6.3079,-6.3079,-6.3079,-6.3079,-6.2899,-6.2271,-6.2121,-6.1882,-6.1052,-5.8437,-5.6173,-5.5437,-5.3207,-5.1596,-5.1596,-5.1596,-5.1596,-5.1596,-5.1596,-5.1596,-5.1596,-5.1596,-5.1596,-5.1596,-5.1596,-5.1596,-5.1596,-5.1596,-5.1596,-5.1596,-5.1596,-5.1335,-5.0838,-5.0838,-5.0551,-4.9976,-4.9949,-4.9949,-5.9578,-5.9847,-6.0146,-6.1523,-6.1852,-6.2032,-6.266,-6.2959,-6.3079,-6.3079,-6.3079,-6.2929,-6.245,-6.1672,-6.0954,-6.0446,-6.0625,-6.0894,-6.1104,-6.2121,-6.2899,-6.3049,-6.3079,-6.3079,-6.3079,-6.3079,-6.3079,-6.3079,-6.3079,-6.3079,-6.3079,-6.3079,-6.3079,-6.3079,-6.3079,-6.3079,-6.3079,-6.3079,-6.3079,-6.3079,-6.3079,-6.3079,-6.3079,-6.2899,-6.248,-6.1822,-6.1134,-6.0475,-5.9817,-5.9488,-6.0057,-6.1134,-6.1313,-6.2061,-6.3079,-6.3079,-6.3079,-6.3079,-6.3079,-6.3079,-6.3079,-6.3079,-6.3079,-6.3079,-6.3079,-6.3079,-6.3079,-6.3079,-6.3079,-6.3079,-6.3079,-6.3079,-6.3079,-6.3079,-6.3079,-6.3079,-6.3079,-6.3079,-6.3019,-6.2869,-6.2421,-6.1419,-5.9297,-5.754,-5.5877,-5.4254,-5.2596,-5.1596,-5.1596,-5.1596,-5.1596,-5.1596,-5.1596,-5.1596,-5.1596,-5.1596,-5.1596,-5.1596,-5.1596,-5.1596,-5.1596,-5.1596,-5.1596,-5.1596,-5.1596,-5.1518,-5.1387,-5.1387,-5.1309,-5.1152,-5.076,-5.0551,-6.0266,-6.0745,-6.1224,-6.2271,-6.254,-6.263,-6.2989,-6.3079,-6.3079,-6.3079,-6.3079,-6.2959,-6.26,-6.1762,-6.0984,-6.0595,-6.0864,-6.1104,-6.1104,-6.2241,-6.3079,-6.3079,-6.3079,-6.3079,-6.3079,-6.3079,-6.3079,-6.3079,-6.3079,-6.3079,-6.3079,-6.3079,-6.3079,-6.3079,-6.3079,-6.3079,-6.3079,-6.3079,-6.3079,-6.3079,-6.3079,-6.3079,-6.3079,-6.3079,-6.272,-6.2061,-6.1403,-6.0715,-6.0027,-5.9368,-5.9727,-6.0685,-6.1014,-6.1732,-6.269,-6.2959,-6.3079,-6.3079,-6.3079,-6.3079,-6.3079,-6.3079,-6.3079,-6.3079,-6.3079,-6.3079,-6.3079,-6.3079,-6.3079,-6.3079,-6.3079,-6.3079,-6.3079,-6.3079,-6.3079,-6.3079,-6.3079,-6.3079,-6.3079,-6.3079,-6.278,-6.1751,-5.9451,-5.7764,-5.6149,-5.4181,-5.2598,-5.1596,-5.1596,-5.1596,-5.1596,-5.1596,-5.1596,-5.1596,-5.1596,-5.1596,-5.1596,-5.1596,-5.1596,-5.1596,-5.1596,-5.1596,-5.1596,-5.1596,-5.1596,-5.1596,-5.1596,-5.1596,-5.1596,-5.1596,-5.1282,-5.1152,-6.1044,-6.1732,-6.2361,-6.2929,-6.3079,-6.3079,-6.3079,-6.3079,-6.3079,-6.3079,-6.3079,-6.3079,-6.3079,-6.2002,-6.1104,-6.1104,-6.1104,-6.1104,-6.1104,-6.2241,-6.3079,-6.3079,-6.3079,-6.3079,-6.3079,-6.3079,-6.3079,-6.3079,-6.3079,-6.3079,-6.3079,-6.3079,-6.3079,-6.3079,-6.3079,-6.3079,-6.3079,-6.3079,-6.3079,-6.3079,-6.3079,-6.3079,-6.3079,-6.3079,-6.278,-6.2181,-6.1433,-6.0775,-6.0146,-5.9398,-5.9488,-6.0146,-6.0835,-6.1523,-6.2181,-6.2839,-6.3079,-6.3079,-6.3079,-6.3079,-6.3079,-6.3079,-6.3079,-6.3079,-6.3079,-6.3079,-6.3079,-6.3079,-6.3079,-6.3079,-6.3079,-6.3079,-6.3079,-6.3079,-6.3079,-6.3079,-6.3079,-6.3079,-6.3079,-6.3079,-6.3079,-6.2435,-6.0206,-5.8446,-5.6563,-5.4453,-5.2713,-5.1596,-5.1596,-5.1596,-5.1596,-5.1596,-5.1596,-5.1596,-5.1596,-5.1596,-5.1596,-5.1596,-5.1596,-5.1596,-5.1596,-5.1596,-5.1596,-5.1596,-5.1596,-5.1596,-5.1596,-5.1596,-5.1596,-5.1596,-5.1596,-5.1596,-6.1583,-6.2421,-6.2929,-6.3049,-6.3079,-6.3079,-6.3079,-6.3079,-6.3079,-6.3079,-6.3079,-6.3079,-6.3079,-6.2002,-6.1104,-6.1104,-6.1104,-6.1104,-6.1104,-6.2241,-6.3079,-6.3079,-6.3079,-6.3079,-6.3079,-6.3079,-6.3079,-6.3079,-6.3079,-6.3079,-6.3079,-6.3079,-6.3079,-6.3079,-6.3079,-6.3079,-6.3079,-6.3079,-6.3079,-6.3079,-6.3079,-6.3079,-6.3079,-6.3079,-6.3019,-6.2839,-6.1642,-6.1044,-6.0835,-5.9608,-5.9488,-6.0146,-6.0835,-6.1523,-6.2181,-6.2839,-6.3079,-6.3079,-6.3079,-6.3079,-6.3079,-6.3079,-6.3079,-6.3079,-6.3079,-6.3079,-6.3079,-6.3079,-6.3079,-6.3079,-6.3079,-6.3079,-6.3079,-6.3079,-6.3079,-6.3079,-6.3079,-6.3079,-6.3079,-6.3079,-6.3079,-6.2114,-5.9041,-5.7845,-5.626,-5.3296,-5.2114,-5.1596,-5.1596,-5.1596,-5.1596,-5.1596,-5.1596,-5.1596,-5.1596,-5.1596,-5.1596,-5.1596,-5.1596,-5.1596,-5.1596,-5.1596,-5.1596,-5.1596,-5.1596,-5.1596,-5.1596,-5.1596,-5.1596,-5.1596,-5.1596,-5.1596,-6.2241,-6.2839,-6.3079,-6.3079,-6.3079,-6.3079,-6.3079,-6.3079,-6.3079,-6.3079,-6.3079,-6.3079,-6.3079,-6.2002,-6.1104,-6.1104,-6.0805,-6.0715,-6.1074,-6.1942,-6.269,-6.3049,-6.3079,-6.3079,-6.3079,-6.3079,-6.3079,-6.3079,-6.3079,-6.3079,-6.3079,-6.3079,-6.3079,-6.3079,-6.3079,-6.3079,-6.3079,-6.3079,-6.3079,-6.3079,-6.3079,-6.3079,-6.3079,-6.3079,-6.3079,-6.3019,-6.1672,-6.1104,-6.1014,-5.9668,-5.9279,-5.9668,-6.0715,-6.1313,-6.1702,-6.272,-6.3079,-6.3079,-6.3079,-6.3079,-6.3079,-6.3079,-6.3079,-6.3079,-6.3079,-6.3079,-6.3079,-6.3079,-6.3079,-6.3079,-6.3079,-6.3079,-6.3079,-6.3079,-6.3079,-6.3079,-6.3079,-6.3079,-6.3079,-6.3079,-6.3079,-6.2174,-5.9163,-5.7889,-5.631,-5.3429,-5.2171,-5.1596,-5.1596,-5.1596,-5.1596,-5.1596,-5.1596,-5.1596,-5.1596,-5.1596,-5.1596,-5.1596,-5.1596,-5.1596,-5.1596,-5.1596,-5.1596,-5.1596,-5.1596,-5.1596,-5.1596,-5.1596,-5.1596,-5.1596,-5.1596,-5.1596,-6.272,-6.3079,-6.3079,-6.3079,-6.3079,-6.3079,-6.3079,-6.3079,-6.3079,-6.3079,-6.3079,-6.3079,-6.3079,-6.2121,-6.1283,-6.1134,-6.0655,-6.0505,-6.1044,-6.1672,-6.2331,-6.2989,-6.3079,-6.3079,-6.3079,-6.3079,-6.3079,-6.3079,-6.3079,-6.3079,-6.3079,-6.3079,-6.3079,-6.3079,-6.3079,-6.3079,-6.3079,-6.3079,-6.3079,-6.3079,-6.3079,-6.3079,-6.3079,-6.3079,-6.3079,-6.3019,-6.1822,-6.1253,-6.1014,-5.9817,-5.9219,-5.9219,-6.0416,-6.0984,-6.1253,-6.2421,-6.2959,-6.3079,-6.3079,-6.3079,-6.3079,-6.3079,-6.3079,-6.3079,-6.3079,-6.3079,-6.3079,-6.3079,-6.3079,-6.3079,-6.3079,-6.3079,-6.3079,-6.3079,-6.3079,-6.3079,-6.3079,-6.3079,-6.3079,-6.3079,-6.3079,-6.2321,-5.9957,-5.8269,-5.6543,-5.4156,-5.2544,-5.1596,-5.1596,-5.1596,-5.1596,-5.1596,-5.1596,-5.1596,-5.1596,-5.1596,-5.1596,-5.1596,-5.1596,-5.1596,-5.1596,-5.1596,-5.1596,-5.1596,-5.1596,-5.1596,-5.1596,-5.1596,-5.1596,-5.1596,-5.1596,-5.1596,-6.272,-6.3079,-6.3079,-6.3079,-6.3079,-6.3079,-6.3079,-6.3079,-6.3079,-6.3079,-6.3079,-6.3079,-6.3079,-6.248,-6.1822,-6.1224,-6.1074,-6.1044,-6.1104,-6.1672,-6.2331,-6.2989,-6.3079,-6.3079,-6.3079,-6.3079,-6.3079,-6.3079,-6.3079,-6.3079,-6.3079,-6.3079,-6.3079,-6.3079,-6.3079,-6.3079,-6.3079,-6.3079,-6.3079,-6.3079,-6.3079,-6.3079,-6.3079,-6.3079,-6.3079,-6.3049,-6.2331,-6.1672,-6.1044,-6.0296,-5.9638,-5.9189,-5.9907,-6.0565,-6.1194,-6.1912,-6.257,-6.3079,-6.3079,-6.3079,-6.3079,-6.3079,-6.3079,-6.3079,-6.3079,-6.3079,-6.3079,-6.3079,-6.3079,-6.3079,-6.3079,-6.3079,-6.3079,-6.3079,-6.3079,-6.3079,-6.3079,-6.3079,-6.3079,-6.3079,-6.3079,-6.2643,-6.1137,-5.8902,-5.6819,-5.5336,-5.312,-5.1596,-5.1596,-5.1596,-5.1596,-5.1596,-5.1596,-5.1596,-5.1596,-5.1596,-5.1596,-5.1596,-5.1596,-5.1596,-5.1596,-5.1596,-5.1596,-5.1596,-5.1596,-5.1596,-5.1596,-5.1596,-5.1596,-5.1596,-5.1596,-5.1596,-6.272,-6.3079,-6.3079,-6.3079,-6.3079,-6.3079,-6.3079,-6.3079,-6.3079,-6.3079,-6.3079,-6.3079,-6.3079,-6.254,-6.1882,-6.1224,-6.0775,-6.0655,-6.1044,-6.1343,-6.1912,-6.2959,-6.3079,-6.3079,-6.3079,-6.3079,-6.3079,-6.3079,-6.3079,-6.3079,-6.3079,-6.3079,-6.3079,-6.3079,-6.3079,-6.3079,-6.3079,-6.3079,-6.3079,-6.3079,-6.3079,-6.3079,-6.3079,-6.3079,-6.3079,-6.3049,-6.2391,-6.1732,-6.1074,-6.0386,-5.9697,-5.9159,-5.9817,-6.0505,-6.1194,-6.1852,-6.251,-6.3079,-6.3079,-6.3079,-6.3079,-6.3079,-6.3079,-6.3079,-6.3079,-6.3079,-6.3079,-6.3079,-6.3079,-6.3079,-6.3079,-6.3079,-6.3079,-6.3079,-6.3079,-6.3079,-6.3079,-6.3079,-6.3079,-6.3079,-6.3079,-6.232,-5.9775,-5.8196,-5.6465,-5.4029,-5.2497,-5.1596,-5.1596,-5.1596,-5.1596,-5.1596,-5.1596,-5.1596,-5.1596,-5.1596,-5.1596,-5.1596,-5.1596,-5.1596,-5.1596,-5.1596,-5.1596,-5.1596,-5.1596,-5.1596,-5.1596,-5.1596,-5.1596,-5.1596,-5.1596,-5.1596,-6.272,-6.3079,-6.3079,-6.3079,-6.3079,-6.3079,-6.3079,-6.3079,-6.3079,-6.3079,-6.3079,-6.3079,-6.3079,-6.269,-6.2121,-6.1253,-6.0715,-6.0475,-6.0775,-6.0984,-6.1523,-6.266,-6.2959,-6.3079,-6.3079,-6.3079,-6.3079,-6.3079,-6.3079,-6.3079,-6.3079,-6.3079,-6.3079,-6.3079,-6.3079,-6.3079,-6.3079,-6.3079,-6.3079,-6.3079,-6.3079,-6.3079,-6.3079,-6.3079,-6.3079,-6.3049,-6.26,-6.1912,-6.1074,-6.0595,-5.9877,-5.9159,-5.9608,-6.0326,-6.1164,-6.1642,-6.2331,-6.3079,-6.3079,-6.3079,-6.3079,-6.3079,-6.3079,-6.3079,-6.3079,-6.3079,-6.3079,-6.3079,-6.3079,-6.3079,-6.3079,-6.3079,-6.3079,-6.3079,-6.3079,-6.3079,-6.3079,-6.3079,-6.3079,-6.3079,-6.3079,-6.2173,-5.9283,-5.7966,-5.6321,-5.3521,-5.2213,-5.1596,-5.1596,-5.1596,-5.1596,-5.1596,-5.1596,-5.1596,-5.1596,-5.1596,-5.1596,-5.1596,-5.1596,-5.1596,-5.1596,-5.1596,-5.1596,-5.1596,-5.1596,-5.1596,-5.1596,-5.1596,-5.1596,-5.1596,-5.1596,-5.1596,-6.272,-6.3079,-6.3079,-6.3079,-6.3079,-6.3079,-6.3079,-6.3079,-6.3079,-6.3079,-6.3079,-6.3079,-6.3079,-6.3079,-6.263,-6.1313,-6.1104,0.0,-6.0176,-6.0685,-6.1373,-6.2032,-6.269,-6.3079,-6.3079,-6.3079,-6.3079,-6.3079,-6.3079,-6.3079,-6.3079,-6.3079,-6.3079,-6.3079,-6.3079,-6.3079,-6.3079,-6.3079,-6.3079,-6.3079,-6.3079,-6.3079,-6.3079,-6.3079,-6.3079,-6.3079,-6.3079,-6.2331,-6.1104,-6.1104,-6.0296,-5.9099,-5.9129,-5.9937,-6.1104,-6.1134,-6.1942,-6.3079,-6.3079,-6.3079,-6.3079,-6.3079,-6.3079,-6.3079,-6.3079,-6.3079,-6.3079,-6.3079,-6.3079,-6.3079,-6.3079,-6.3079,-6.3079,-6.3079,-6.3079,-6.3079,-6.3079,-6.3079,-6.3079,-6.3079,-6.3079,-6.2493,-6.053,-5.8565,-5.6684,-5.4767,-5.2873,-5.1596,-5.1596,-5.1596,-5.1596,-5.1596,-5.1596,-5.1596,-5.1596,-5.1596,-5.1596,-5.1596,-5.1596,-5.1596,-5.1596,-5.1596,-5.1596,-5.1596,-5.1596,-5.1596,-5.1596,-5.1596,-5.1596,-5.1596,-5.1596,-5.1596,-6.2181,-6.272,-6.3079,-6.3079,-6.3079,-6.3079,-6.3079,-6.3079,-6.3079,-6.3079,-6.3079,-6.3079,-6.3079,-6.3079,-6.266,-6.1313,-6.1104,-6.0864,-6.0176,-6.0685,-6.1373,-6.2032,-6.266,-6.3079,-6.3079,-6.3079,-6.3079,-6.3079,-6.3079,-6.3079,-6.3079,-6.3079,-6.3079,-6.3079,-6.3079,-6.3079,-6.3079,-6.3079,-6.3079,-6.3079,-6.3079,-6.3079,-6.3079,-6.3079,-6.3079,-6.3049,-6.26,-6.1912,-6.1074,-6.0595,-5.9907,-5.9099,-5.9099,-5.9937,-6.1104,-6.1104,-6.1942,-6.3079,-6.3079,-6.3079,-6.3079,-6.3079,-6.3079,-6.3079,-6.3079,-6.3079,-6.3079,-6.3079,-6.3079,-6.3079,-6.3079,-6.3079,-6.3079,-6.3079,-6.3079,-6.3079,-6.3079,-6.3079,-6.3079,-6.3079,-6.3079,-6.2083,-5.877,-5.7683,-5.6242,-5.3023,-5.2013,-5.1596,-5.1596,-5.1596,-5.1596,-5.1596,-5.1596,-5.1596,-5.1596,-5.1596,-5.1596,-5.1596,-5.1596,-5.1596,-5.1596,-5.1596,-5.1596,-5.1596,-5.1596,-5.1596,-5.1596,-5.1596,-5.1596,-5.1596,-5.1596,-5.1596,-6.1553,-6.2391,-6.3079,-6.3079,-6.3079,-6.3079,-6.3079,-6.3079,-6.3079,-6.3079,-6.3079,-6.3079,-6.3079,-6.3079,-6.266,-6.1313,-6.1104,-6.0775,-5.9847,-6.0535,-6.1433,-6.2361,-6.2839,-6.3079,-6.3079,-6.3079,-6.3079,-6.3079,-6.3079,-6.3079,-6.3079,-6.3079,-6.3079,-6.3079,-6.3079,-6.3079,-6.3079,-6.3079,-6.3079,-6.3079,-6.3079,-6.3079,-6.3079,-6.3079,-6.3079,-6.3049,-6.2391,-6.1732,0.0,-6.0386,-5.9697,-5.9099,-5.9099,-5.9937,-6.1104,-6.1104,-6.1942,-6.3079,-6.3079,-6.3079,-6.3079,-6.3079,-6.3079,-6.3079,-6.3079,-6.3079,-6.3079,-6.3079,-6.3079,-6.3079,-6.3079,-6.3079,-6.3079,-6.3079,-6.3079,-6.3079,-6.3079,-6.3079,-6.3079,-6.3079,-6.2701,-6.1292,-5.7888,-5.688,-5.5456,-5.2128,-5.1596,-5.1596,-5.1596,-5.1596,-5.1596,-5.1596,-5.1596,-5.1596,-5.1596,-5.1596,-5.1596,-5.1596,-5.1596,-5.1596,-5.1596,-5.1596,-5.1596,-5.1596,-5.1596,-5.1596,-5.1596,-5.1596,-5.1596,-5.1596,-5.1596,-5.1596,0.0,-6.2002,-6.3079,-6.3079,-6.3079,-6.3079,-6.3079,-6.3079,0.0,-6.3079,-6.3079,-6.3079,-6.3079,-6.3049,-6.26,-6.1313,-6.1074,-6.0595,-5.9279,-6.0266,-6.1613,-6.2929,-6.3079,-6.3079,-6.3079,-6.3079,-6.3079,-6.3079,-6.3079,-6.3079,-6.3079,-6.3079,-6.3079,-6.3079,-6.3079,-6.3079,-6.3079,-6.3079,-6.3079,-6.3079,-6.3079,-6.3079,-6.3079,-6.3079,-6.3079,-6.3049,-6.2331,-6.1672,-6.1044,-6.0326,-5.9668,-5.9099,-5.9159,-5.9967,-6.1134,-6.1164,-6.2002,-6.3079,-6.3079,-6.3079,-6.3079,-6.3079,-6.3079,-6.3079,-6.3079,-6.3079,-6.3079,-6.3079,-6.3079,-6.3079,-6.3079,-6.3079,-6.3079,-6.3079,-6.3079,-6.3079,-6.3079,-6.3079,-6.3079,-6.2963,-6.1969,-6.0252,-5.7644,-5.6142,-5.4459,-5.1993,-5.1622,-5.1596,-5.1596,-5.1596,-5.1596,-5.1596,-5.1596,-5.1596,-5.1596,-5.1596,-5.1596,-5.1596,-5.1596,-5.1596,-5.1596,-5.1596,-5.1596,-5.1596,-5.1596,-5.1596,-5.1596,-5.1596,-5.1596,-5.1596,-5.1596,-5.1596,-5.9507,0.0,-6.3079,-6.3079,-6.3079,-6.3079,0.0,-6.3079,-6.3079,-6.3079,-6.3079,-6.3079,-6.3079,-6.266,-6.2061,-6.1253,-6.0685,-6.0027,-5.9219,-6.0266,-6.1613,-6.2929,-6.3079,-6.3079,-6.3079,-6.3079,-6.3079,-6.3079,-6.3079,-6.3079,-6.3079,-6.3079,-6.3079,-6.3079,-6.3079,-6.3079,-6.3079,-6.3079,-6.3079,-6.3079,-6.3079,-6.3079,-6.3079,-6.3079,-6.3079,-6.3019,-6.1852,-6.1253,-6.1014,-5.9817,-5.9249,-5.9159,-5.9668,-6.0386,-6.1164,-6.1672,-6.2391,-6.3079,-6.3079,-6.3079,-6.3079,-6.3079,-6.3079,-6.3079,-6.3079,-6.3079,-6.3079,-6.3079,-6.3079,-6.3079,-6.3079,-6.3079,-6.3079,-6.3079,-6.3079,-6.3079,-6.3079,-6.3079,-6.2817,-6.1762,-6.1346,-6.0094,-5.7003,-5.5823,-5.4593,-5.257,-5.1884,-5.1596,-5.1596,-5.1596,-5.1596,-5.1596,-5.1596,-5.1596,-5.1596,-5.1596,-5.1596,-5.1596,-5.1596,-5.1596,-5.1596,-5.1596,-5.1596,-5.1596,-5.1596,-5.1596,-5.1596,-5.1596,-5.1596,-5.1596,-5.1596,-5.1596,-5.9332,-6.0946,-6.269,-6.2989,-6.3079,-6.3079,-6.3079,-6.3079,-6.3079,-6.3079,-6.3079,-6.2989,-6.269,-6.2331,-6.1762,-6.0805,-6.0326,-6.0086,-6.0027,-6.0655,-6.1613,-6.2929,-6.3079,-6.3079,-6.3079,-6.3079,-6.3079,-6.3079,-6.3079,-6.3079,-6.3079,-6.3079,-6.3079,-6.3079,-6.3079,-6.3079,-6.3079,-6.3079,-6.3079,-6.3079,-6.3079,-6.3079,-6.3079,-6.3079,-6.3079,-6.3019,-6.1672,-6.1104,-6.1014,-5.9668,-5.9099,-5.9159,-5.9817,-6.0505,-6.1194,-6.1852,-6.251,-6.3079,-6.3079,-6.3079,-6.3079,-6.3079,-6.3079,-6.3079,-6.3079,-6.3079,-6.3079,-6.3079,-6.3079,-6.3079,-6.3079,-6.3079,-6.3079,-6.3079,-6.3079,-6.3079,-6.3079,-6.3079,-6.2701,-6.1346,-6.0595,-5.93,-5.6631,-5.5203,-5.4007,-5.2717,-5.1988,-5.1596,-5.1596,-5.1596,-5.1596,-5.1596,-5.1596,-5.1596,-5.1596,-5.1596,-5.1596,-5.1596,-5.1596,-5.1596,-5.1596,-5.1596,-5.1596,-5.1596,-5.1596,-5.1596,-5.1596,-5.1596,-5.1596,-5.1596,-5.1596,-5.1596,-5.9673,-6.0846,-6.2241,-6.2899,-6.3079,-6.3079,-6.3079,-6.3079,-6.3079,-6.3079,-6.3079,-6.2869,-6.2211,-6.2002,-6.1523,-6.0296,-5.9997,-6.0206,-6.1014,-6.1104,-6.1613,-6.2929,-6.3079,-6.3079,-6.3079,-6.3079,-6.3079,-6.3079,-6.3079,-6.3079,-6.3079,-6.3079,-6.3079,-6.3079,-6.3079,-6.3079,-6.3079,-6.3079,-6.3079,-6.3079,-6.3079,-6.3079,-6.3079,-6.3079,-6.3019,-6.2869,-6.1642,-6.1044,-6.0864,-5.9608,-5.9099,-5.9189,-5.9937,-6.0595,-6.1194,-6.1972,-6.26,-6.3079,-6.3079,-6.3079,-6.3079,-6.3079,-6.3079,-6.3079,-6.3079,-6.3079,-6.3079,-6.3079,-6.3079,-6.3079,-6.3079,-6.3079,-6.3079,-6.3079,-6.3079,-6.3079,-6.3079,-6.3079,-6.2643,-6.1077,-5.9896,-5.846,-5.6387,-5.4622,-5.3321,-5.272,-5.2119,-5.1701,-5.1596,-5.1596,-5.1596,-5.1596,-5.1596,-5.1596,-5.1596,-5.1596,-5.1596,-5.1596,-5.1596,-5.1596,-5.1596,-5.1596,-5.1596,-5.1596,-5.1596,-5.1596,-5.1596,-5.1596,-5.1596,-5.1596,-5.1596,-5.1596,-6.0096,-6.1207,-6.2241,-6.2899,-6.3079,-6.3079,-6.3079,-6.3079,-6.3079,-6.3079,-6.3079,-6.2869,-6.2211,-6.1642,-6.1014,-6.0206,-5.9608,-5.9697,-6.0954,-6.1104,-6.1613,-6.2929,-6.3079,-6.3079,-6.3079,-6.3079,-6.3079,-6.3079,-6.3079,-6.3079,-6.3079,-6.3079,-6.3079,-6.3079,-6.3079,-6.3079,-6.3079,-6.3079,-6.3079,-6.3079,-6.3079,-6.3079,-6.3079,-6.3079,-6.278,-6.2211,-6.1433,-6.0775,-6.0176,-5.9428,-5.9099,-5.9219,-6.0475,-6.1014,-6.1253,-6.248,-6.2989,-6.3079,-6.3079,-6.3079,-6.3079,-6.3079,-6.3079,-6.3079,-6.3079,-6.3079,-6.3079,-6.3079,-6.3079,-6.3079,-6.3079,-6.3079,-6.3079,-6.3079,-6.3079,-6.3079,-6.3079,-6.3079,-6.238,-5.9896,-5.9251,-5.8285,-5.5709,-5.4603,-5.3896,-5.3347,-5.2746,-5.2171,-5.1675,-5.1596,-5.1596,-5.1596,-5.1596,-5.1596,-5.1596,-5.1596,-5.1596,-5.1596,-5.1596,-5.1596,-5.1596,-5.1596,-5.1596,-5.1596,-5.1596,-5.1596,-5.1596,-5.1596,-5.1596,-5.1596,-5.1596,-5.1596,-6.0469,-6.1649,-6.269,-6.2989,-6.3079,-6.3079,-6.3079,-6.3079,-6.3079,-6.3079,-6.278,-6.2331,-6.1672,-6.1014,-6.0326,-5.9668,-5.9308,-5.9578,-6.0924,-6.1104,-6.1613,-6.2929,-6.3079,-6.3079,-6.3079,-6.3079,-6.3079,-6.3079,-6.3079,-6.3079,-6.3079,-6.3079,-6.3079,-6.3079,-6.3079,-6.3079,-6.3079,-6.3079,-6.3079,-6.3079,-6.3079,-6.3079,-6.3079,-6.3079,-6.272,-6.2061,-6.1403,-6.0715,-6.0027,-5.9368,-5.9099,-5.9249,-6.0595,-6.1104,-6.1283,-6.26,-6.3079,-6.3079,-6.3079,-6.3079,-6.3079,-6.3079,-6.3079,-6.3079,-6.3079,-6.3079,-6.3079,-6.3079,-6.3079,-6.3079,-6.3079,-6.3079,-6.3079,-6.3079,-6.3079,-6.3079,-6.3079,-6.2526,-6.1465,-5.9498,-5.8502,-5.7386,-5.5405,-5.4602,-5.4027,-5.3478,-5.2877,-5.2276,-5.1675,-5.1596,-5.1596,-5.1596,-5.1596,-5.1596,-5.1596,-5.1596,-5.1596,-5.1596,-5.1596,-5.1596,-5.1596,-5.1596,-5.1596,-5.1596,-5.1596,-5.1596,-5.1596,-5.1596,-5.1596,-5.1596,-5.1596,-5.1596,-6.1116,-6.2212,-6.3079,-6.3079,-6.3079,-6.3079,-6.3079,-6.3079,-6.3079,-6.3079,-6.254,-6.1912,-6.1224,-6.0416,-5.9697,-5.9189,-5.9099,-5.9578,-6.0924,-6.1104,-6.1613,-6.2929,-6.3079,-6.3079,-6.3079,-6.3079,-6.3079,-6.3079,-6.3079,-6.3079,-6.3079,-6.3079,-6.3079,-6.3079,-6.3079,-6.3079,-6.3079,-6.3079,-6.3079,-6.3079,-6.3079,-6.3079,-6.3079,-6.2929,-6.248,-6.1822,-6.1164,-6.0505,-5.9817,-5.9308,-5.9099,-5.9249,-6.0595,-6.1313,-6.1702,-6.272,-6.3079,-6.3079,-6.3079,-6.3079,-6.3079,-6.3079,-6.3079,-6.3079,-6.3079,-6.3079,-6.3079,-6.3079,-6.3079,-6.3079,-6.3079,-6.3079,-6.3079,-6.3079,-6.3079,-6.3079,-6.3079,-6.2028,-6.0716,-5.9375,-5.8024,-5.6639,-5.5365,-5.4707,-5.421,-5.3661,-5.3086,-5.2485,-5.1884,-5.1675,-5.1596,-5.1596,-5.1596,-5.1596,-5.1596,-5.1596,-5.1596,-5.1596,-5.1596,-5.1596,-5.1596,-5.1596,-5.1596,-5.1596,-5.1596,-5.1596,-5.1596,-5.1596,-5.1596,-5.1596,-5.1596,-5.1596,-6.239,-6.2935,-6.3079,-6.3079,-6.3079,-6.3079,-6.3079,-6.3079,-6.3079,-6.3079,-6.254,-6.1912,-6.1224,-6.0057,-5.9159,-5.9129,-5.9099,-5.9578,-6.0924,-6.1104,-6.1613,-6.2929,-6.3079,-6.3079,-6.3079,-6.3079,-6.3079,-6.3079,-6.3079,-6.3079,-6.3079,-6.3079,-6.3079,-6.3079,-6.3079,-6.3079,-6.3079,-6.3079,-6.3079,-6.3079,-6.3079,-6.3079,-6.3049,-6.245,-6.1822,-6.1134,-6.0446,-5.9787,-5.9159,-5.9129,-5.9099,-5.9249,-6.0595,-6.1852,-6.2959,-6.3049,-6.3079,-6.3079,-6.3079,-6.3079,-6.3079,-6.3079,-6.3079,-6.3079,-6.3079,-6.3079,-6.3079,-6.3079,-6.3079,-6.3079,-6.3079,-6.3079,-6.3079,-6.3079,-6.3079,-6.3079,-6.3079,-6.2028,-6.0716,-5.9375,-5.8024,-5.6639,-5.5365,-5.5072,-5.4837,-5.4236,-5.3687,-5.3112,-5.2511,-5.1936,-5.1596,-5.1596,-5.1596,-5.1596,-5.1596,-5.1596,-5.1596,-5.1596,-5.1596,-5.1596,-5.1596,-5.1596,-5.1596,-5.1596,-5.1596,-5.1596,-5.1596,-5.1596,-5.1596,-5.1596,-5.1596,-5.1596,-6.2632,-6.2996,-6.3079,-6.3079,-6.3079,-6.3079,-6.3079,-6.275,-6.248,-6.248,-6.1613,-6.0655,-5.9997,-5.9458,-5.9099,-5.9099,-5.9099,-5.9578,-6.0924,-6.1104,-6.1613,-6.2929,-6.3079,-6.3079,-6.3079,-6.3079,-6.3079,-6.3079,-6.3079,-6.3079,-6.3079,-6.3079,-6.3079,-6.3079,-6.3079,-6.3079,-6.3079,-6.3079,-6.3079,-6.3079,-6.3079,-6.3079,-6.3049,-6.2391,-6.1732,-6.1074,-6.0386,-5.9727,-5.9099,-5.9099,-5.9099,-5.9249,-6.0595,-6.1912,-6.3079,-6.3079,-6.3079,-6.3079,-6.3079,-6.3079,-6.3079,-6.3079,-6.3079,-6.3079,-6.3079,-6.3079,-6.3079,-6.3079,-6.3079,-6.3079,-6.3079,-6.3079,-6.3079,-6.3079,-6.3079,-6.2875,-6.2028,-6.0837,-5.9436,-5.8151,-5.6769,-5.5736,-5.5165,-5.5099,-5.4889,-5.4288,-5.3739,-5.3191,-5.2589,-5.1962,-5.1596,-5.1596,-5.1596,-5.1596,-5.1596,-5.1596,-5.1596,-5.1596,-5.1596,-5.1596,-5.1596,-5.1596,-5.1596,-5.1596,-5.1596,-5.1596,-5.1596,-5.1596,-5.1596,-5.1596,-5.1596,-5.1596,-6.3082,-6.3177,-6.3079,-6.3079,-6.3079,-6.3019,-6.281,-6.2421,-6.2032,-6.1822,-6.0894,-5.9877,-5.9219,-5.9099,-5.9099,-5.9099,-5.9099,-5.9488,-6.0625,-6.0984,-6.1523,-6.263,-6.2959,-6.3079,-6.3079,-6.3079,-6.3079,-6.3079,-6.3079,-6.3079,-6.3079,-6.3079,-6.3079,-6.3079,-6.3079,-6.3079,-6.3079,-6.3079,-6.3079,-6.3079,-6.2869,-6.278,-6.275,-6.2091,-6.1433,-6.0745,-6.0086,-5.9518,-5.9099,-5.9099,-5.9368,-5.9817,-6.0745,-6.1912,-6.3079,-6.3079,-6.3079,-6.3079,-6.3079,-6.3079,-6.3079,-6.3079,-6.3079,-6.3079,-6.3079,-6.3079,-6.3079,-6.3079,-6.3079,-6.3079,-6.3079,-6.3079,-6.3079,-6.3079,-6.3079,-6.2701,-6.1405,-6.0079,-5.869,-5.7322,-5.6039,-5.5099,-5.5099,-5.5099,-5.4968,-5.455,-5.4001,-5.3452,-5.2851,-5.225,-5.1805,-5.1622,-5.1596,-5.1596,-5.1596,-5.1596,-5.1596,-5.1596,-5.1596,-5.1596,-5.1596,-5.1596,-5.1596,-5.1596,-5.1596,-5.1596,-5.1596,-5.1596,-5.1596,-5.1596,-5.1596,-5.1596,-6.378,-6.3538,-6.3079,-6.3079,-6.3079,-6.2899,-6.2241,-6.2091,-6.1912,-6.1224,-6.0565,-5.9877,-5.9219,-5.9099,-5.9099,-5.9099,-5.9099,-5.9338,-5.9997,-6.0685,-6.1373,-6.2032,-6.266,-6.3079,-6.3079,-6.3079,-6.3079,-6.3079,-6.3079,-6.3079,-6.3079,-6.3079,-6.3079,-6.3079,-6.3079,-6.3079,-6.3079,-6.3079,-6.3079,-6.3049,-6.2421,-6.2091,-6.2061,-6.1403,-6.0745,-6.0057,-5.9398,-5.9099,-5.9099,-5.9099,-5.9907,-6.1104,-6.1104,-6.1912,-6.3079,-6.3079,-6.3079,-6.3079,-6.3079,-6.3079,-6.3079,-6.3079,-6.3079,-6.3079,-6.3079,-6.3079,-6.3079,-6.3079,-6.3079,-6.3079,-6.3079,-6.3079,-6.3079,-6.3079,-6.3079,-6.2701,-6.1405,-6.0018,-5.869,-5.7322,-5.6039,-5.5099,-5.5099,-5.5099,-5.5099,-5.5099,-5.4602,-5.4001,-5.3452,-5.2877,-5.2276,-5.1648,-5.1596,-5.1596,-5.1596,-5.1596,-5.1596,-5.1596,-5.1596,-5.1596,-5.1596,-5.1596,-5.1596,-5.1596,-5.1596,-5.1596,-5.1596,-5.1596,-5.1596,-5.1596,-5.1596,-5.1596,-6.3989,-6.3709,-6.3367,-6.3137,-6.272,-6.2211,-6.1553,-6.1403,-6.1074,-5.9937,-5.9548,-5.9338,-5.9129,-5.9099,-5.9099,-5.9099,-5.9099,-5.9338,-5.9997,-6.0685,-6.1373,-6.2032,-6.266,-6.3079,-6.3079,-6.3079,-6.3079,-6.3079,-6.3079,-6.3079,-6.3079,-6.3079,-6.3079,-6.3079,-6.3079,-6.3079,-6.3079,-6.3079,-6.2839,-6.2391,-6.2181,-6.2091,-6.2061,-6.0924,-6.0266,-6.0057,-5.9398,-5.9099,-5.9099,-5.9099,-5.9907,-6.1104,-6.1104,-6.1912,-6.3079,-6.3079,-6.3079,-6.3079,-6.3079,-6.3079,-6.3079,-6.3079,-6.3079,-6.3079,-6.3079,-6.3079,-6.3079,-6.3079,-6.3079,-6.3079,-6.3079,-6.3079,-6.3079,-6.3079,-6.3079,-6.2438,-6.0202,-5.9375,-5.8439,-5.617,-5.5339,-5.5099,-5.5099,-5.5099,-5.5099,-5.5099,-5.4602,-5.3844,-5.2877,-5.2616,-5.2276,-5.1648,-5.1596,-5.1596,-5.1596,-5.1596,-5.1596,-5.1596,-5.1596,-5.1596,-5.1596,-5.1596,-5.1596,-5.1596,-5.1596,-5.1596,-5.1596,-5.1596,-5.1596,-5.1596,-5.1596,-5.1596,-6.4132,-6.3709,-6.3309,-6.3137,-6.26,-6.1852,-6.0924,-6.0505,-6.0086,-5.9279,-5.9099,-5.9099,-5.9099,-5.9099,-5.9099,-5.9099,-5.9099,-5.9249,-5.9638,-6.0266,-6.0954,-6.1613,-6.2301,-6.278,-6.3049,-6.3079,-6.3079,-6.3079,-6.3079,-6.3079,-6.3079,-6.3079,-6.3079,-6.3079,-6.3079,-6.3079,-6.3079,-6.281,-6.248,-6.2091,-6.1553,-6.1283,-6.1283,-6.0446,-5.9937,-5.9668,-5.9279,-5.9099,-5.9099,-5.9099,-5.9727,-6.0745,-6.1014,-6.1762,-6.272,-6.2989,-6.3079,-6.3079,-6.3079,-6.3079,-6.3079,-6.3079,-6.3079,-6.3079,-6.3079,-6.3079,-6.3079,-6.3079,-6.3079,-6.3079,-6.3079,-6.3079,-6.3079,-6.3079,-6.2701,-6.1703,-5.956,-5.869,-5.7642,-5.5538,-5.5099,-5.5099,-5.5099,-5.5099,-5.5099,-5.5099,-5.4602,-5.387,-5.2981,-5.2642,-5.2276,-5.1648,-5.1596,-5.1596,-5.1596,-5.1596,-5.1596,-5.1596,-5.1596,-5.1596,-5.1596,-5.1596,-5.1596,-5.1596,-5.1596,-5.1596,-5.1596,-5.1596,-5.1596,-5.1596,-5.1596,-5.1596,-6.43,-6.3595,-6.3137,-6.3137,-6.254,-6.1642,-6.0296,-5.9548,-5.9099,-5.9099,-5.9099,-5.9099,-5.9099,-5.9099,-5.9099,-5.9099,-5.9099,-5.9099,-5.9099,-5.9668,-6.0326,-6.0954,-6.1642,-6.2331,-6.2929,-6.3049,-6.3079,-6.3079,-6.3079,-6.3079,-6.3079,-6.3079,-6.3079,-6.3079,-6.3079,-6.3049,-6.2989,-6.2391,-6.2032,-6.1882,-6.0685,-6.0057,-5.9997,-5.9997,-5.9668,-5.9099,-5.9099,-5.9099,-5.9099,-5.9099,-5.9488,-6.0146,-6.0835,-6.1523,-6.2181,-6.2839,-6.3079,-6.3079,-6.3079,-6.3079,-6.3079,-6.3079,-6.3079,-6.3079,-6.3079,-6.3079,-6.3079,-6.3079,-6.3079,-6.3079,-6.3079,-6.3079,-6.3079,-6.3079,-6.2087,-6.0716,-5.9375,-5.8088,-5.6704,-5.5339,-5.5099,-5.5099,-5.5099,-5.5099,-5.5099,-5.5099,-5.4628,-5.4079,-5.353,-5.2955,-5.2354,-5.1753,-5.1622,-5.1596,-5.1596,-5.1596,-5.1596,-5.1596,-5.1596,-5.1596,-5.1596,-5.1596,-5.1596,-5.1596,-5.1596,-5.1596,-5.1596,-5.1596,-5.1596,-5.1596,-5.1596,-5.1596,-6.4356,-6.3709,-6.3367,-6.3137,-6.2181,-6.0954,-5.9608,-5.9189,-5.9099,-5.9099,-5.9099,-5.9099,-5.9099,-5.9099,-5.9099,-5.9099,-5.9099,-5.9099,-5.9099,-5.9668,-6.0146,-6.0296,-6.1373,-6.2151,-6.2301,-6.278,-6.3079,-6.3079,-6.3079,-6.3079,-6.3079,-6.3079,-6.3079,-6.3079,-6.3079,-6.2839,-6.2301,-6.2181,-6.1553,-6.0505,-6.0236,-5.9817,-5.9308,-5.9308,-5.9249,-5.9099,-5.9099,-5.9099,-5.9099,-5.9099,-5.9488,-6.0146,-6.0835,-6.1523,-6.2181,-6.2839,-6.3079,-6.3079,-6.3079,-6.3079,-6.3079,-6.3079,-6.3079,-6.3079,-6.3079,-6.3079,-6.3079,-6.3079,-6.3079,-6.3079,-6.3079,-6.3079,-6.3079,-6.3079,-6.2087,-6.0716,-5.9375,-5.8088,-5.6704,-5.5339,-5.5099,-5.5099,-5.5099,-5.5099,-5.5099,-5.5099,-5.4994,-5.4707,-5.4105,-5.3556,-5.2981,-5.238,-5.1884,-5.1596,-5.1596,-5.1596,-5.1596,-5.1596,-5.1596,-5.1596,-5.1596,-5.1596,-5.1596,-5.1596,-5.1596,-5.1596,-5.1596,-5.1596,-5.1596,-5.1596,-5.1596,-5.1596,-6.4493,-6.3766,-6.3273,-6.2358,-6.1613,-6.0775,-5.9428,-5.9099,-5.9099,-5.9099,-5.9099,-5.9099,-5.9099,-5.9099,-5.9099,-5.9099,-5.9099,-5.9099,-5.9099,-5.9398,-5.9727,-6.0057,-6.0715,-6.1373,-6.2032,-6.2421,-6.272,-6.3049,-6.3079,-6.3079,-6.3079,-6.3079,-6.3079,-6.3079,-6.278,-6.245,-6.2091,-6.1463,-6.0775,-6.0086,-5.9757,-5.9428,-5.9099,-5.9099,-5.9099,-5.9099,-5.9099,-5.9099,-5.9099,-5.9099,-5.9308,-5.9727,-6.0715,-6.1313,-6.1732,-6.272,-6.3079,-6.3079,-6.3079,-6.3079,-6.3079,-6.3079,-6.3079,-6.3079,-6.3079,-6.3079,-6.3079,-6.3079,-6.3079,-6.3079,-6.3079,-6.3079,-6.3079,-6.3079,-6.2087,-6.0716,-5.9375,-5.8088,-5.6704,-5.5339,-5.5099,-5.5099,-5.5099,-5.5099,-5.5099,-5.5099,-5.5099,-5.4889,-5.4288,-5.3949,-5.3452,-5.2589,-5.2223,-5.191,-5.1622,-5.1596,-5.1596,-5.1596,-5.1596,-5.1596,-5.1596,-5.1596,-5.1596,-5.1596,-5.1596,-5.1596,-5.1596,-5.1596,-5.1596,-5.1596,-5.1596,-5.1596,-6.466,-6.3823,-6.3093,-6.1489,-6.1104,-6.0775,-5.9428,-5.9099,-5.9099,-5.9099,-5.9099,-5.9099,-5.9099,-5.9099,-5.9099,-5.9099,-5.9099,-5.9099,-5.9099,-5.9099,-5.9308,-5.9847,-6.0027,-6.0535,-6.1642,-6.1942,-6.2331,-6.2869,-6.3019,-6.3079,-6.3079,-6.2959,-6.2899,-6.2899,-6.2271,-6.1882,-6.1762,-6.0625,-6.0027,-5.9907,-5.9368,-5.9099,-5.9099,-5.9099,-5.9099,-5.9099,-5.9099,-5.9099,-5.9099,-5.9099,-5.9099,-5.9249,-6.0595,-6.1104,-6.1283,-6.26,-6.3079,-6.3079,-6.3079,-6.3079,-6.3079,-6.3079,-6.3079,-6.3079,-6.3079,-6.3079,-6.3079,-6.3079,-6.3079,-6.3079,-6.3079,-6.3079,-6.3079,-6.3079,-6.2263,-6.1017,-5.9436,-5.8088,-5.6704,-5.5339,-5.5099,-5.5099,-5.5099,-5.5099,-5.5099,-5.5099,-5.5099,-5.4916,-5.4419,-5.4262,-5.3844,-5.2877,-5.2616,-5.2302,-5.1805,-5.1648,-5.1596,-5.1596,-5.1596,-5.1596,-5.1596,-5.1596,-5.1596,-5.1596,-5.1596,-5.1596,-5.1596,-5.1596,-5.1596,-5.1596,-5.1596,-5.1596,-6.4715,-6.3906,-6.3093,-6.1489,-6.1104,-6.0775,-5.9428,-5.9099,-5.9099,-5.9099,-5.9099,-5.9099,-5.9099,-5.9099,-5.9099,-5.9099,-5.9099,-5.9099,-5.9099,-5.9099,-5.9129,-5.9219,-5.9727,-6.0146,-6.0326,-6.1403,-6.2121,-6.2211,-6.275,-6.3079,-6.3079,-6.254,-6.2241,-6.2241,-6.1583,-6.0954,-6.0356,-6.0176,-5.9787,-5.9249,-5.9129,-5.9099,-5.9099,-5.9099,-5.9099,-5.9099,-5.9099,-5.9099,-5.9099,-5.9099,-5.9099,-5.9249,-6.0595,-6.1104,-6.1283,-6.26,-6.3079,-6.3079,-6.3079,-6.3079,-6.3079,-6.3079,-6.3079,-6.3079,-6.3079,-6.3079,-6.3079,-6.3079,-6.3079,-6.3079,-6.3079,-6.3079,-6.3079,-6.3079,-6.2933,-6.2145,-5.9622,-5.8088,-5.6704,-5.5339,-5.5099,-5.5099,-5.5099,-5.5099,-5.5099,-5.5099,-5.5099,-5.5072,-5.4994,-5.4524,-5.4131,-5.4001,-5.3086,-5.2459,-5.238,-5.1884,-5.1596,-5.1596,-5.1596,-5.1596,-5.1596,-5.1596,-5.1596,-5.1596,-5.1596,-5.1596,-5.1596,-5.1596,-5.1596,-5.1596,-5.1596,-5.1596,-6.4685,-6.3849,-6.3093,-6.1489,-6.1104,-6.0775,-5.9428,-5.9099,-5.9099,-5.9099,-5.9099,-5.9099,-5.9099,-5.9099,-5.9099,-5.9099,-5.9099,-5.9099,-5.9099,-5.9099,-5.9099,-5.9099,-5.9368,-5.9668,-6.0057,-6.0625,-6.1134,-6.1523,-6.2151,-6.2361,-6.2002,-6.2061,-6.1942,-6.1553,-6.0894,-6.0386,-6.0086,-5.9727,-5.9398,-5.9099,-5.9099,-5.9099,-5.9099,-5.9099,-5.9099,-5.9099,-5.9099,-5.9099,-5.9099,-5.9099,-5.9099,-5.9189,-6.0146,-6.0775,-6.1224,-6.2181,-6.275,-6.3079,-6.3079,-6.3079,-6.3079,-6.3079,-6.3079,-6.3079,-6.3079,-6.3079,-6.3079,-6.3079,-6.3079,-6.3079,-6.3079,-6.3079,-6.3079,-6.3079,-6.3079,-6.238,-5.9683,-5.8627,-5.7578,-5.5538,-5.5099,-5.5099,-5.5099,-5.5099,-5.5099,-5.5099,-5.5099,-5.5099,-5.5099,-5.4863,-5.4576,-5.4236,-5.3739,-5.3321,-5.3034,-5.2459,-5.2093,-5.2093,-5.1779,-5.1596,-5.1596,-5.1596,-5.1596,-5.1596,-5.1596,-5.1596,-5.1596,-5.1596,-5.1596,-5.1596,-5.1596,-5.1596,-6.466,-6.3906,-6.335,-6.1868,-6.1336,-6.0916,-5.9638,-5.9219,-5.9099,-5.9099,-5.9099,-5.9099,-5.9099,-5.9099,-5.9099,-5.9099,-5.9099,-5.9099,-5.9099,-5.9099,-5.9099,-5.9099,-5.9099,-5.9308,-5.9787,-5.9997,-6.0296,-6.0805,-6.1463,-6.1642,-6.1134,-6.1403,-6.1343,-6.0864,-6.0206,-5.9847,-5.9847,-5.9338,-5.9099,-5.9099,-5.9099,-5.9099,-5.9099,-5.9099,-5.9099,-5.9099,-5.9099,-5.9099,-5.9099,-5.9099,-5.9099,-5.9159,-5.9817,-6.0505,-6.1194,-6.1852,-6.251,-6.3079,-6.3079,-6.3079,-6.3079,-6.3079,-6.3079,-6.3079,-6.3079,-6.3079,-6.3079,-6.3079,-6.3079,-6.3079,-6.3079,-6.3079,-6.3079,-6.3079,-6.2817,-6.1939,-5.9622,-5.8564,-5.7515,-5.5472,-5.5099,-5.5099,-5.5099,-5.5099,-5.5099,-5.5099,-5.5099,-5.5099,-5.5099,-5.5099,-5.4942,-5.4471,-5.4288,-5.4053,-5.3635,-5.306,-5.2668,-5.2511,-5.2067,-5.1753,-5.1596,-5.1596,-5.1596,-5.1596,-5.1596,-5.1596,-5.1596,-5.1596,-5.1596,-5.1596,-5.1596,-5.1596,-6.4493,-6.4382,-6.4061,-6.2716,-6.1971,-6.1228,-6.0261,-5.9548,-5.9099,-5.9099,-5.9099,-5.9099,-5.9099,-5.9099,-5.9099,-5.9099,-5.9099,-5.9099,-5.9099,-5.9099,-5.9099,-5.9099,-5.9099,-5.9129,-5.9159,-5.9727,-6.0086,-6.0146,-6.0775,-6.1164,-6.1104,-6.0535,-6.0176,-6.0146,-5.9488,-5.9159,-5.9159,-5.9129,-5.9099,-5.9099,-5.9099,-5.9099,-5.9099,-5.9099,-5.9099,-5.9099,-5.9099,-5.9099,-5.9099,-5.9099,-5.9099,-5.9159,-5.9817,-6.0505,-6.1194,-6.1852,-6.251,-6.3079,-6.3079,-6.3079,-6.3079,-6.3079,-6.3079,-6.3079,-6.3079,-6.3079,-6.3079,-6.3079,-6.3079,-6.3079,-6.3079,-6.3079,-6.3079,-6.3079,-6.2145,-6.0837,-5.9375,-5.7092,-5.5299,-5.5099,-5.5099,-5.5099,-5.5099,-5.5099,-5.5099,-5.5099,-5.5099,-5.5099,-5.5099,-5.5099,-5.5099,-5.5072,-5.455,-5.4184,-5.4158,-5.3661,-5.3112,-5.2537,-5.2459,-5.2197,-5.1622,-5.1596,-5.1596,-5.1596,-5.1596,-5.1596,-5.1596,-5.1596,-5.1596,-5.1596,-5.1596,-5.1596,-6.4524,-6.4382,-6.4117,-6.3087,-6.2168,-6.1338,-6.0596,-5.9771,-5.9099,-5.9099,-5.9099,-5.9099,-5.9099,-5.9099,-5.9099,-5.9099,-5.9099,-5.9099,-5.9099,-5.9099,-5.9099,-5.9099,-5.9099,-5.9099,-5.9099,-5.9308,-5.9458,-5.9458,-6.0086,-6.0266,-5.9847,-5.9997,-5.9877,-5.9458,-5.9219,-5.9099,-5.9099,-5.9099,-5.9099,-5.9099,-5.9099,-5.9099,-5.9099,-5.9099,-5.9099,-5.9099,-5.9099,-5.9099,-5.9099,-5.9099,-5.9099,-5.9129,-5.9368,-6.0146,-6.1134,-6.1373,-6.2151,-6.3079,-6.3079,-6.3079,-6.3079,-6.3079,-6.3079,-6.3079,-6.3079,-6.3079,-6.3079,-6.3079,-6.3079,-6.3079,-6.3079,-6.3079,-6.2875,-6.2028,-6.0776,-5.9436,-5.8088,-5.6405,-5.5099,-5.5099,-5.5099,-5.5099,-5.5099,-5.5099,-5.5099,-5.5099,-5.5099,-5.5099,-5.5099,-5.5099,-5.5099,-5.5099,-5.4916,-5.4785,-5.4785,-5.4262,-5.3818,-5.3609,-5.2903,-5.2406,-5.2171,-5.1805,-5.1596,-5.1596,-5.1596,-5.1596,-5.1596,-5.1596,-5.1596,-5.1596,-5.1596,-5.1596,-6.4635,-6.4579,-6.4401,-6.364,-6.2572,-6.1564,-6.1031,-5.9976,-5.9099,-5.9099,-5.9099,-5.9099,-5.9099,-5.9099,-5.9099,-5.9099,-5.9099,-5.9099,-5.9099,-5.9099,-5.9099,-5.9099,-5.9099,-5.9099,-5.9099,-5.9099,-5.9099,-5.9099,-5.9518,-5.9578,-5.9129,-5.9518,-5.9548,-5.9129,-5.9099,-5.9099,-5.9099,-5.9099,-5.9099,-5.9099,-5.9099,-5.9099,-5.9099,-5.9099,-5.9099,-5.9099,-5.9099,-5.9099,-5.9099,-5.9099,-5.9099,-5.9099,-5.9099,-5.9937,-6.1104,-6.1104,-6.1942,-6.3079,-6.3079,-6.3079,-6.3079,-6.3079,-6.3079,-6.3079,-6.3079,-6.3079,-6.3079,-6.3079,-6.3079,-6.3079,-6.3079,-6.3079,-6.2643,-6.0837,-5.9773,-5.8627,-5.6834,-5.5736,-5.5099,-5.5099,-5.5099,-5.5099,-5.5099,-5.5099,-5.5099,-5.5099,-5.5099,-5.5099,-5.5099,-5.5099,-5.5099,-5.5099,-5.5099,-5.5099,-5.5099,-5.4733,-5.4419,-5.421,-5.3504,-5.2981,-5.2798,-5.2223,-5.191,-5.191,-5.1701,-5.1596,-5.1596,-5.1596,-5.1596,-5.1596,-5.1596,-5.1596,0.0,0.0,0.0,-6.4463,-6.3177,-6.1874,-6.1514,-6.0246,-5.9099,-5.9099,-5.9099,-5.9099,-5.9099,-5.9099,-5.9099,-5.9099,-5.9099,-5.9099,-5.9099,-5.9099,-5.9099,-5.9099,-5.9099,-5.9099,-5.9099,-5.9099,-5.9099,-5.9099,-5.9099,-5.9099,-5.9099,-5.9099,-5.9099,-5.9099,-5.9099,-5.9099,-5.9099,-5.9099,-5.9099,-5.9099,-5.9099,-5.9099,-5.9099,-5.9099,-5.9099,-5.9099,-5.9099,-5.9099,-5.9099,-5.9099,-5.9099,-5.9099,-5.9099,-5.9937,-6.1104,-6.1104,-6.1942,-6.3079,-6.3079,-6.3079,-6.3079,-6.3079,-6.3079,-6.3079,-6.3079,-6.3079,-6.3079,-6.3079,-6.3079,-6.3079,-6.3079,-6.3079,-6.238,-5.9745,-5.9064,-5.8313,-5.567,-5.5099,-5.5099,-5.5099,-5.5099,-5.5099,-5.5099,-5.5099,-5.5099,-5.5099,-5.5099,-5.5099,-5.5099,-5.5099,-5.5099,-5.5099,-5.5099,-5.5099,-5.5099,-5.5099,-5.4863,-5.4262,-5.421,-5.3975,-5.3452,-5.2851,-5.2537,-5.2537,-5.1936,-5.1648,-5.1622,-5.1596,-5.1596,-5.1596,-5.1596,-5.1596,-6.3379,0.0,0.0,0.0,0.0,0.0,-6.0935,-5.9945,-5.9099,-5.9099,-5.9099,-5.9099,-5.9099,-5.9099,-5.9099,-5.9099,-5.9099,-5.9099,-5.9099,-5.9099,-5.9099,-5.9099,-5.9099,-5.9099,-5.9099,-5.9099,-5.9099,-5.9099,-5.9099,-5.9099,-5.9099,-5.9099,-5.9099,-5.9099,-5.9099,-5.9099,-5.9099,-5.9099,-5.9099,-5.9099,-5.9099,-5.9099,-5.9099,-5.9099,-5.9099,-5.9099,-5.9099,-5.9099,-5.9099,-5.9099,-5.9099,-5.9099,-5.9099,-5.9937,-6.1104,-6.1104,-6.1942,-6.3079,-6.3079,-6.3079,-6.3079,-6.3079,-6.3079,-6.3079,-6.3079,-6.3079,-6.3079,-6.3079,-6.3079,-6.3079,-6.3079,-6.238,-6.1197,-5.9498,-5.8376,-5.7221,-5.5472,-5.5099,-5.5099,-5.5099,-5.5099,-5.5099,-5.5099,-5.5099,-5.5099,-5.5099,-5.5099,-5.5099,-5.5099,-5.5099,-5.5099,-5.5099,-5.5099,-5.5099,-5.5099,-5.5099,-5.502,-5.4863,-5.4445,-5.4131,-5.3975,-5.3452,-5.3138,-5.3138,-5.2981,-5.2694,-5.225,-5.1805,-5.1596,-5.1596,-5.1596,-5.1596,-6.2825,-6.2825,-6.2772,-6.261,0.0,0.0,-6.0826,-5.9904,-5.9099,-5.9099,-5.9099,-5.9099,-5.9099,-5.9099,-5.9099,-5.9099,-5.9099,-5.9099,-5.9099,-5.9099,-5.9099,-5.9099,-5.9099,-5.9099,-5.9099,-5.9099,-5.9099,-5.9099,-5.9099,-5.9099,-5.9099,-5.9099,-5.9099,-5.9099,-5.9099,-5.9099,-5.9099,-5.9099,-5.9099,-5.9099,-5.9099,-5.9099,-5.9099,-5.9099,-5.9099,-5.9099,-5.9099,-5.9099,-5.9099,-5.9099,-5.9099,-5.9099,-5.9099,-5.9937,-6.1104,-6.1104,-6.1942,-6.3079,-6.3079,-6.3079,-6.3079,-6.3079,-6.3079,-6.3079,-6.3079,-6.3079,-6.3079,-6.3079,-6.3079,-6.3079,-6.3079,-6.2087,-6.0776,-5.9436,-5.8088,-5.6704,-5.5405,-5.5099,-5.5099,-5.5099,-5.5099,-5.5099,-5.5099,-5.5099,-5.5099,-5.5099,-5.5099,-5.5099,-5.5099,-5.5099,-5.5099,-5.5099,-5.5099,-5.5099,-5.5099,-5.5099,-5.5099,-5.5099,-5.4759,-5.4576,-5.4576,-5.4027,-5.3739,-5.3739,-5.3504,-5.3217,-5.2877,-5.2276,-5.1831,-5.1596,-5.1596,-5.1596,-6.2556,-6.2472,0.0,-6.2419,-6.1615,0.0,-6.0782,-5.9898,-5.9099,-5.9099,-5.9099,-5.9099,-5.9099,-5.9099,-5.9099,-5.9099,-5.9099,-5.9099,-5.9099,-5.9099,-5.9099,-5.9099,-5.9099,-5.9099,-5.9099,-5.9099,-5.9099,-5.9099,-5.9099,-5.9099,-5.9099,-5.9099,-5.9099,-5.9099,-5.9099,-5.9099,-5.9099,-5.9099,-5.9099,-5.9099,-5.9099,-5.9099,-5.9099,-5.9099,-5.9099,-5.9099,-5.9099,-5.9099,-5.9099,-5.9099,-5.9099,-5.9099,-5.9099,-5.9937,-6.1104,-6.1104,-6.1942,-6.3079,-6.3079,-6.3079,-6.3079,-6.3079,-6.3079,-6.3079,-6.3079,-6.3079,-6.3079,-6.3079,-6.3079,-6.3079,-6.3079,-6.2087,-6.0776,-5.9622,-5.8214,-5.6769,-5.5604,-5.5232,-5.5099,-5.5099,-5.5099,-5.5099,-5.5099,-5.5099,-5.5099,-5.5099,-5.5099,-5.5099,-5.5099,-5.5099,-5.5099,-5.5099,-5.5099,-5.5099,-5.5099,-5.5099,-5.5099,-5.5099,-5.5099,-5.5099,-5.5099,-5.4576,-5.4314,-5.4314,-5.3766,-5.3478,-5.3478,-5.2825,-5.2223,-5.1701,-5.1622,-5.1596,-6.0827,-6.0722,-6.0487,-6.019,-5.9962,0.0,-5.9495,-5.9297,-5.9099,-5.9099,-5.9099,-5.9099,-5.9099,-5.9099,-5.9099,-5.9099,-5.9099,-5.9099,-5.9099,-5.9099,-5.9099,-5.9099,-5.9099,-5.9099,-5.9099,-5.9099,-5.9099,-5.9099,-5.9099,-5.9099,-5.9099,-5.9099,-5.9099,-5.9099,-5.9099,-5.9099,-5.9099,-5.9099,-5.9099,-5.9099,-5.9099,-5.9099,-5.9099,-5.9099,-5.9099,-5.9099,-5.9099,-5.9099,-5.9099,-5.9099,-5.9099,-5.9099,-5.9099,-5.9937,-6.1104,-6.1104,-6.1942,-6.3079,-6.3079,-6.3079,-6.3079,-6.3079,-6.3079,-6.3079,-6.3079,-6.3079,-6.3079,-6.3079,-6.3079,-6.3079,-6.3079,-6.2087,-6.1017,-6.0776,-5.8843,-5.7028,-5.6769,-5.5842,-5.5099,-5.5099,-5.5099,-5.5099,-5.5099,-5.5099,-5.5099,-5.5099,-5.5099,-5.5099,-5.5099,-5.5099,-5.5099,-5.5099,-5.5099,-5.5099,-5.5099,-5.5099,-5.5099,-5.5099,-5.5099,-5.5099,-5.5099,-5.4994,-5.4916,-5.4916,-5.4341,-5.4053,-5.4053,-5.3008,-5.2433,-5.2302,-5.1831,-5.1596,-6.0144,-6.0092,-5.9963,-5.9773,-5.9636,0.0,0.0,-5.9207,-5.9099,-5.9099,-5.9099,-5.9099,-5.9099,-5.9099,-5.9099,-5.9099,-5.9099,-5.9099,-5.9099,-5.9099,-5.9099,-5.9099,-5.9099,-5.9099,-5.9099,-5.9099,-5.9099,-5.9099,-5.9099,-5.9099,-5.9099,-5.9099,-5.9099,-5.9099,-5.9099,-5.9099,-5.9099,-5.9099,-5.9099,-5.9099,-5.9099,-5.9099,-5.9099,-5.9099,-5.9099,-5.9099,-5.9099,-5.9099,-5.9099,-5.9099,-5.9099,-5.9099,-5.9099,-5.9937,-6.1104,-6.1104,-6.1942,-6.3079,-6.3079,-6.3079,-6.3079,-6.3079,-6.3079,-6.3079,-6.3079,-6.3079,-6.3079,-6.3079,-6.3079,-6.3079,-6.3079,-6.2087,-6.1106,-6.1106,-5.903,-5.7092,-5.7092,-5.6039,-5.5099,-5.5099,-5.5099,-5.5099,-5.5099,-5.5099,-5.5099,-5.5099,-5.5099,-5.5099,-5.5099,-5.5099,-5.5099,-5.5099,-5.5099,-5.5099,-5.5099,-5.5099,-5.5099,-5.5099,-5.5099,-5.5099,-5.5099,-5.5099,-5.5099,-5.5099,-5.4811,-5.4654,-5.4654,-5.3766,-5.3217,-5.2929,-5.2328,-5.204,-5.988,-5.988,-5.9827,-5.9827,-5.9613,-5.9422,0.0,0.0,0.0,-5.9099,-5.9099,-5.9099,-5.9099,-5.9099,-5.9099,-5.9099,-5.9099,-5.9099,-5.9099,-5.9099,-5.9099,-5.9099,-5.9099,-5.9099,-5.9099,-5.9099,-5.9099,-5.9099,-5.9099,-5.9099,-5.9099,-5.9099,-5.9099,-5.9099,-5.9099,-5.9099,-5.9099,-5.9099,-5.9099,-5.9099,-5.9099,-5.9099,-5.9099,-5.9099,-5.9099,-5.9099,-5.9099,-5.9099,-5.9099,-5.9099,-5.9099,-5.9099,-5.9099,-5.9937,-6.1104,-6.1104,-6.1942,-6.3079,-6.3079,-6.3079,-6.3079,-6.3079,-6.3079,-6.3079,-6.3079,-6.3079,-6.3079,-6.3079,-6.3079,-6.3079,-6.3079,-6.2321,-6.1465,-6.1465,-5.9465,-5.7451,-5.7451,-5.6209,-5.5099,-5.5099,-5.5099,-5.5099,-5.5099,-5.5099,-5.5099,-5.5099,-5.5099,-5.5099,-5.5099,-5.5099,-5.5099,-5.5099,-5.5099,-5.5099,-5.5099,-5.5099,-5.5099,-5.5099,-5.5099,-5.5099,-5.5099,-5.5099,-5.5099,-5.5099,-5.5099,-5.5099,-5.5099,-5.4602,-5.4105,-5.353,-5.2955,-5.2668,-5.9476,-5.9369,-5.9207,-5.9207,-5.9153,-5.9153,-5.9153,0.0,-5.9099,-5.9099,0.0,-5.9099,-5.9099,0.0,0.0,-5.9099,-5.9099,-5.9099,-5.9099,-5.9099,-5.9099,-5.9099,-5.9099,-5.9099,-5.9099,-5.9099,-5.9099,-5.9099,-5.9099,-5.9099,-5.9099,-5.9099,-5.9099,-5.9099,-5.9099,-5.9099,-5.9099,-5.9099,-5.9099,-5.9099,-5.9099,-5.9099,-5.9099,-5.9099,-5.9099,-5.9099,-5.9099,-5.9099,-5.9099,-5.9099,-5.9099,-5.9099,-5.9099,-5.9937,-6.1104,-6.1104,-6.1942,-6.3079,-6.3079,-6.3079,-6.3079,-6.3079,-6.3079,-6.3079,-6.3079,-6.3079,-6.3079,-6.3079,-6.3079,-6.3079,-6.3079,-6.3021,-6.2875,-6.2875,-6.0808,-5.8877,-5.8877,-5.6898,-5.5099,-5.5099,-5.5099,-5.5099,-5.5099,-5.5099,-5.5099,-5.5099,-5.5099,-5.5099,-5.5099,-5.5099,-5.5099,-5.5099,-5.5099,-5.5099,-5.5099,-5.5099,-5.5099,-5.5099,-5.5099,-5.5099,-5.5099,-5.5099,-5.5099,-5.5099,-5.5099,-5.5099,-5.5099,-5.502,-5.4707,-5.4105,-5.3556,-5.3295,-6.0376,-6.0076,-5.9668,-5.9668,-5.9398,-5.9099,-5.9099,-5.9099,-5.9099,-5.9099,0.0,0.0,0.0,0.0,0.0,0.0,-5.9099,-5.9099,-5.9099,-5.9099,-5.9099,-5.9099,-5.9099,-5.9099,-5.9099,-5.9099,-5.9099,-5.9099,-5.9099,-5.9099,-5.9099,-5.9099,-5.9099,-5.9099,-5.9099,-5.9099,-5.9099,-5.9099,-5.9099,-5.9099,-5.9099,-5.9099,-5.9099,-5.9099,-5.9099,-5.9099,-5.9099,-5.9099,-5.9099,-5.9099,-5.9099,-5.9099,-5.9099,-5.9668,-6.0565,-6.0954,-6.1702,-6.257,-6.2959,-6.3079,-6.3079,-6.3079,-6.3079,-6.3079,-6.3079,-6.3079,-6.3079,-6.3079,-6.3079,-6.3079,-6.3079,-6.3079,-6.3079,-6.3079,-6.1077,-5.9127,-5.9127,-5.6963,-5.5099,-5.5099,-5.5099,-5.5099,-5.5099,-5.5099,-5.5099,-5.5099,-5.5099,-5.5099,-5.5099,-5.5099,-5.5099,-5.5099,-5.5099,-5.5099,-5.5099,-5.5099,-5.5099,-5.5099,-5.5099,-5.5099,-5.5099,-5.5099,-5.5099,-5.5099,-5.5099,-5.5099,-5.5099,-5.5099,-5.4968,-5.4707,-5.4131,-5.387,-6.1104,-6.0745,-6.0356,-6.0356,-5.9997,-5.9608,-5.9428,-5.9368,-5.9308,-5.9129,-5.9099,0.0,0.0,0.0,-5.9099,-5.9099,0.0,-5.9099,-5.9099,-5.9099,-5.9099,-5.9099,-5.9099,-5.9099,-5.9099,-5.9099,-5.9099,-5.9099,-5.9099,-5.9099,-5.9099,-5.9099,-5.9099,-5.9099,-5.9099,-5.9099,-5.9099,-5.9099,-5.9099,-5.9099,-5.9099,-5.9099,-5.9099,-5.9099,-5.9099,-5.9099,-5.9099,-5.9099,-5.9099,-5.9099,-5.9099,-5.9099,-5.9099,-5.9398,-5.9907,-6.0805,-6.1523,-6.2181,-6.2839,-6.3079,-6.3079,-6.3079,-6.3079,-6.3079,-6.3079,-6.3079,-6.3079,-6.3079,-6.3079,-6.3079,-6.3079,-6.3079,-6.3021,-6.2643,-6.0747,-5.9002,-5.8627,-5.6704,-5.5099,-5.5099,-5.5099,-5.5099,-5.5099,-5.5099,-5.5099,-5.5099,-5.5099,-5.5099,-5.5099,-5.5099,-5.5099,-5.5099,-5.5099,-5.5099,-5.5099,-5.5099,-5.5099,-5.5099,-5.5099,-5.5099,-5.5099,-5.5099,-5.5099,-5.5099,-5.5099,-5.5099,-5.5099,-5.5099,-5.5099,-5.5099,-5.4654,-5.4445,-6.1104,-6.1104,-6.1074,-6.1074,-6.1074,-6.0864,-6.0206,-6.0057,-5.9877,-5.9249,-5.9099,-5.9099,-5.9099,-5.9099,-5.9099,-5.9099,-5.9099,0.0,0.0,-5.9099,-5.9099,-5.9099,-5.9099,-5.9099,-5.9099,-5.9099,-5.9099,-5.9099,-5.9099,-5.9099,-5.9099,-5.9099,-5.9099,-5.9099,-5.9099,-5.9099,-5.9099,-5.9099,-5.9099,-5.9099,-5.9099,-5.9099,-5.9099,-5.9099,-5.9099,-5.9099,-5.9099,-5.9099,-5.9099,-5.9099,-5.9099,-5.9099,-5.9099,-5.9129,-5.9308,-6.0625,-6.1523,-6.2181,-6.2839,-6.3079,-6.3079,-6.3079,-6.3079,-6.3079,-6.3079,-6.3079,-6.3079,-6.3079,-6.3079,-6.3079,-6.3079,-6.3079,-6.2759,-6.1465,-6.0141,-5.8752,-5.7451,-5.6105,-5.5099,-5.5099,-5.5099,-5.5099,-5.5099,-5.5099,-5.5099,-5.5099,-5.5099,-5.5099,-5.5099,-5.5099,-5.5099,-5.5099,-5.5099,-5.5099,-5.5099,-5.5099,-5.5099,-5.5099,-5.5099,-5.5099,-5.5099,-5.5099,-5.5099,-5.5099,-5.5099,-5.5099,-5.5099,-5.5099,-5.5099,-5.5099,-5.5072,-5.5072,-6.2421,-6.2091,-6.1762,-6.1762,-6.1433,-6.1044,-6.0805,-6.0775,-6.0565,-5.9907,-5.9757,-5.9608,-5.9189,-5.9099,-5.9099,0.0,0.0,-5.9099,0.0,-5.9099,-5.9099,-5.9099,-5.9099,-5.9279,-5.9697,-5.9757,-5.9757,-5.9757,-5.9757,-5.9548,-5.9129,-5.9099,-5.9099,-5.9099,-5.9099,-5.9099,-5.9099,-5.9099,-5.9099,-5.9099,-5.9099,-5.9099,-5.9099,-5.9099,-5.9099,-5.9099,-5.9099,-5.9099,-5.9099,-5.9099,-5.9099,-5.9099,-5.9099,-5.9099,-5.9279,-6.0625,-6.1253,-6.1613,-6.269,-6.3079,-6.3079,-6.3079,-6.3079,-6.3079,-6.3079,-6.3079,-6.3079,-6.3079,-6.3079,-6.2875,-6.2028,-6.1762,-6.1465,-6.0079,-5.8752,-5.7642,-5.7221,-5.6039,-5.5099,-5.5099,-5.5099,-5.5099,-5.5099,-5.5099,-5.5099,-5.5099,-5.5099,-5.5099,-5.5099,-5.5099,-5.5099,-5.5099,-5.5099,-5.5099,-5.5099,-5.5099,-5.5099,-5.5099,-5.5099,-5.5099,-5.5099,-5.5099,-5.5099,-5.5099,-5.5099,-5.5099,-5.5099,-5.5099,-5.5099,-5.5099,-5.5099,-5.5099,-6.3079,-6.278,-6.245,-6.245,-6.2121,-6.1762,-6.1523,-6.1463,-6.1283,-6.0595,-6.0446,-6.0236,-5.9578,-5.9458,-5.9368,0.0,0.0,0.0,0.0,-5.9099,-5.9189,-5.9428,-5.9458,-5.9608,-6.0057,-6.0296,-6.0446,-6.0446,-6.0206,-5.9907,-5.9488,-5.9219,-5.9099,-5.9099,-5.9099,-5.9099,-5.9099,-5.9099,-5.9099,-5.9099,-5.9099,-5.9099,-5.9099,-5.9099,-5.9099,-5.9099,-5.9099,-5.9099,-5.9099,-5.9099,-5.9099,-5.9099,-5.9099,-5.9099,-5.9279,-6.0625,-6.1403,-6.1942,-6.278,-6.3079,-6.3079,-6.3079,-6.3079,-6.3079,-6.3079,-6.3079,-6.3019,-6.278,-6.2899,-6.2846,-6.1733,-6.129,-6.0776,-5.9436,-5.8088,-5.6963,-5.6471,-5.5736,-5.5099,-5.5099,-5.5099,-5.5099,-5.5099,-5.5099,-5.5099,-5.5099,-5.5099,-5.5099,-5.5099,-5.5099,-5.5099,-5.5099,-5.5099,-5.5099,-5.5099,-5.5099,-5.5099,-5.5099,-5.5099,-5.5099,-5.5099,-5.5099,-5.5203,-5.5386,-5.5203,-5.5203,-5.5386,-5.5203,-5.5099,-5.5099,-5.5099,-5.5099]},{"header":{"parameterUnit":"m.s-1","parameterCategory":1,"la1":30.6,"la2":29.2853,"lo1":-89.7004,"lo2":-87.6739,"dy":0.0162,"dx":0.0183,"nx":112,"ny":82,"refTime":"2024-04-22T12:00:00:Z","depth":0,"parameterNumber":3,"parameterNumberName":"V-component_of_WINDS"},"data":[0.0,0.0,0.0,0.0,0.0,0.0,0.0,0.0,0.0,0.0,0.0,0.0,0.0,0.0,0.0,0.0,0.0,0.0,0.0,0.0,0.0,0.0,0.0,0.0,0.0,0.0,0.0,0.0,0.0,0.0,0.0,0.0,0.0,0.0,0.0,0.0,0.0,0.0,0.0,0.0,0.0,0.0,0.0,0.0,0.0,0.0,0.0,0.0,0.0,0.0,0.0,0.0,0.0,0.0,0.0,0.0,0.0,0.0,0.0,0.0,0.0,0.0,0.0,0.0,0.0,0.0,0.0,0.0,0.0,0.0,0.0,0.0,0.0,0.0,0.0,0.0,0.0,0.0,0.0,0.0,0.0,0.0,0.0,0.0,0.0,0.0,0.0,0.0,0.0,0.0,3.9262,3.8191,3.8089,3.8065,3.7917,3.7917,3.7917,3.7917,0.0,0.0,0.0,0.0,0.0,0.0,0.0,0.0,0.0,0.0,0.0,0.0,0.0,0.0,0.0,0.0,0.0,0.0,0.0,0.0,0.0,0.0,0.0,0.0,0.0,0.0,0.0,0.0,0.0,0.0,0.0,0.0,0.0,0.0,0.0,0.0,0.0,0.0,0.0,0.0,0.0,0.0,0.0,0.0,0.0,0.0,0.0,0.0,0.0,0.0,0.0,0.0,0.0,0.0,0.0,0.0,0.0,0.0,0.0,0.0,0.0,0.0,0.0,0.0,0.0,0.0,0.0,0.0,0.0,0.0,0.0,0.0,0.0,0.0,0.0,0.0,0.0,0.0,0.0,0.0,0.0,0.0,0.0,0.0,0.0,0.0,0.0,0.0,0.0,0.0,0.0,0.0,0.0,0.0,0.0,0.0,0.0,0.0,0.0,0.0,0.0,0.0,0.0,0.0,4.0493,3.9376,3.9273,3.9085,3.8583,3.8559,3.8559,3.8559,0.0,0.0,0.0,0.0,0.0,0.0,0.0,0.0,0.0,0.0,0.0,0.0,0.0,0.0,0.0,0.0,0.0,0.0,0.0,0.0,0.0,0.0,0.0,0.0,0.0,0.0,0.0,0.0,0.0,0.0,0.0,0.0,0.0,0.0,0.0,0.0,0.0,0.0,0.0,0.0,0.0,0.0,0.0,0.0,0.0,0.0,0.0,0.0,0.0,0.0,0.0,0.0,0.0,0.0,0.0,0.0,0.0,0.0,0.0,0.0,0.0,0.0,0.0,0.0,0.0,0.0,0.0,0.0,0.0,0.0,0.0,0.0,0.0,0.0,0.0,0.0,0.0,0.0,0.0,0.0,0.0,0.0,0.0,0.0,0.0,0.0,0.0,0.0,0.0,0.0,0.0,0.0,0.0,0.0,0.0,0.0,0.0,0.0,0.0,0.0,0.0,0.0,0.0,4.1172,4.1019,4.0493,4.0411,4.0292,4.0054,4.0054,4.0054,4.0054,3.9329,0.0,0.0,0.0,0.0,0.0,0.0,0.0,0.0,0.0,0.0,0.0,0.0,0.0,0.0,0.0,0.0,0.0,0.0,0.0,0.0,0.0,0.0,0.0,0.0,0.0,0.0,0.0,0.0,0.0,0.0,0.0,0.0,0.0,0.0,0.0,0.0,0.0,0.0,0.0,0.0,0.0,0.0,0.0,0.0,0.0,0.0,0.0,0.0,0.0,0.0,0.0,0.0,0.0,0.0,0.0,0.0,0.0,0.0,0.0,0.0,0.0,0.0,0.0,0.0,0.0,0.0,0.0,0.0,0.0,0.0,0.0,0.0,0.0,0.0,0.0,0.0,0.0,0.0,0.0,0.0,0.0,0.0,0.0,0.0,0.0,0.0,0.0,0.0,0.0,0.0,0.0,0.0,0.0,0.0,0.0,0.0,0.0,0.0,0.0,0.0,0.0,0.0,4.1172,4.1172,4.1172,4.1172,4.1172,4.1172,4.1172,4.1172,4.1172,4.0812,0.0,0.0,0.0,0.0,0.0,0.0,0.0,0.0,0.0,0.0,0.0,0.0,0.0,0.0,0.0,0.0,0.0,0.0,0.0,0.0,0.0,0.0,0.0,0.0,0.0,0.0,0.0,0.0,0.0,0.0,0.0,0.0,0.0,0.0,0.0,0.0,0.0,0.0,0.0,0.0,0.0,0.0,0.0,0.0,0.0,0.0,0.0,0.0,0.0,0.0,0.0,0.0,0.0,0.0,0.0,0.0,0.0,0.0,0.0,0.0,0.0,0.0,0.0,0.0,0.0,0.0,0.0,0.0,0.0,0.0,0.0,0.0,0.0,0.0,0.0,0.0,0.0,0.0,0.0,0.0,0.0,0.0,0.0,0.0,0.0,0.0,0.0,0.0,0.0,0.0,0.0,0.0,0.0,0.0,0.0,0.0,0.0,0.0,0.0,0.0,0.0,0.0,4.1172,4.1172,4.1172,4.1172,4.1172,4.1172,4.1172,4.1172,4.1172,4.1148,0.0,0.0,0.0,0.0,0.0,0.0,0.0,0.0,0.0,0.0,0.0,0.0,0.0,0.0,0.0,0.0,0.0,0.0,0.0,0.0,0.0,0.0,0.0,0.0,0.0,0.0,0.0,0.0,0.0,0.0,0.0,0.0,0.0,0.0,0.0,0.0,0.0,0.0,0.0,0.0,0.0,0.0,0.0,0.0,0.0,0.0,0.0,0.0,0.0,0.0,0.0,0.0,0.0,0.0,0.0,0.0,0.0,0.0,0.0,0.0,0.0,0.0,0.0,0.0,0.0,0.0,0.0,0.0,0.0,0.0,0.0,0.0,0.0,0.0,0.0,0.0,0.0,0.0,0.0,0.0,0.0,0.0,0.0,0.0,0.0,0.0,0.0,0.0,0.0,0.0,0.0,0.0,0.0,0.0,0.0,0.0,0.0,0.0,0.0,0.0,0.0,0.0,4.1172,4.1172,4.1172,4.1172,4.1172,4.1172,4.1172,4.1172,4.1172,0.0,0.0,0.0,0.0,0.0,0.0,0.0,0.0,0.0,0.0,0.0,0.0,0.0,0.0,0.0,0.0,0.0,0.0,0.0,0.0,0.0,0.0,0.0,0.0,0.0,0.0,0.0,0.0,0.0,0.0,0.0,0.0,0.0,0.0,0.0,0.0,0.0,0.0,0.0,0.0,0.0,0.0,0.0,0.0,0.0,0.0,0.0,0.0,0.0,0.0,0.0,0.0,0.0,0.0,0.0,0.0,0.0,0.0,0.0,0.0,0.0,0.0,0.0,0.0,0.0,0.0,0.0,0.0,0.0,0.0,0.0,0.0,0.0,0.0,0.0,0.0,0.0,0.0,0.0,0.0,0.0,0.0,0.0,0.0,0.0,0.0,0.0,0.0,0.0,0.0,0.0,0.0,0.0,0.0,0.0,0.0,0.0,0.0,0.0,0.0,0.0,0.0,4.1172,4.1341,4.1437,4.1437,4.1581,4.1629,4.1461,4.1437,4.1365,4.1196,0.0,0.0,0.0,0.0,0.0,0.0,0.0,0.0,0.0,0.0,0.0,0.0,0.0,0.0,0.0,0.0,0.0,0.0,0.0,0.0,0.0,0.0,0.0,0.0,0.0,0.0,0.0,0.0,0.0,0.0,0.0,0.0,0.0,0.0,0.0,0.0,0.0,0.0,0.0,0.0,0.0,0.0,0.0,0.0,0.0,0.0,0.0,0.0,0.0,0.0,0.0,0.0,0.0,0.0,0.0,0.0,0.0,0.0,0.0,0.0,0.0,0.0,0.0,0.0,0.0,0.0,0.0,0.0,0.0,0.0,0.0,0.0,0.0,0.0,0.0,0.0,0.0,0.0,0.0,0.0,0.0,0.0,0.0,0.0,0.0,0.0,0.0,0.0,0.0,0.0,0.0,0.0,0.0,0.0,0.0,0.0,0.0,0.0,0.0,0.0,0.0,0.0,4.1196,4.1653,4.1966,4.199,4.2506,4.2602,4.2014,4.1966,4.1749,0.0,0.0,0.0,0.0,0.0,0.0,0.0,0.0,0.0,0.0,0.0,0.0,0.0,0.0,0.0,0.0,0.0,0.0,0.0,0.0,0.0,0.0,0.0,0.0,0.0,0.0,0.0,0.0,0.0,0.0,0.0,0.0,0.0,0.0,0.0,0.0,0.0,0.0,0.0,0.0,0.0,0.0,0.0,0.0,0.0,0.0,0.0,0.0,0.0,0.0,0.0,0.0,0.0,0.0,0.0,0.0,0.0,0.0,0.0,0.0,0.0,0.0,0.0,0.0,0.0,0.0,0.0,0.0,0.0,0.0,0.0,0.0,0.0,0.0,0.0,0.0,0.0,0.0,0.0,0.0,0.0,0.0,0.0,0.0,0.0,0.0,0.0,0.0,0.0,0.0,0.0,0.0,0.0,0.0,0.0,0.0,0.0,0.0,0.0,0.0,0.0,0.0,0.0,4.1701,4.187,4.211,4.2554,4.2723,4.2747,4.2602,4.2241,4.1918,4.1749,0.0,0.0,0.0,0.0,0.0,0.0,0.0,0.0,0.0,0.0,0.0,0.0,0.0,0.0,0.0,0.0,0.0,0.0,0.0,0.0,0.0,0.0,0.0,0.0,0.0,0.0,0.0,0.0,0.0,0.0,0.0,0.0,0.0,0.0,0.0,0.0,0.0,0.0,0.0,0.0,0.0,0.0,0.0,0.0,0.0,0.0,0.0,0.0,0.0,0.0,0.0,0.0,0.0,0.0,0.0,0.0,0.0,0.0,0.0,0.0,0.0,0.0,0.0,0.0,0.0,0.0,0.0,0.0,0.0,0.0,0.0,0.0,0.0,0.0,0.0,0.0,0.0,0.0,0.0,0.0,0.0,0.0,0.0,0.0,0.0,0.0,0.0,0.0,0.0,0.0,0.0,0.0,0.0,0.0,0.0,0.0,0.0,0.0,0.0,0.0,0.0,0.0,4.2265,4.2471,4.2711,4.3024,4.3265,4.3313,4.3072,4.276,4.2423,4.2049,0.0,0.0,0.0,0.0,0.0,0.0,0.0,0.0,0.0,0.0,0.0,0.0,0.0,0.0,0.0,0.0,0.0,0.0,0.0,0.0,0.0,0.0,0.0,0.0,0.0,0.0,0.0,0.0,0.0,0.0,0.0,0.0,0.0,0.0,0.0,0.0,0.0,0.0,0.0,0.0,0.0,0.0,0.0,0.0,0.0,0.0,0.0,0.0,0.0,0.0,0.0,0.0,0.0,0.0,0.0,0.0,0.0,0.0,0.0,0.0,0.0,0.0,0.0,0.0,0.0,0.0,0.0,0.0,0.0,0.0,0.0,0.0,0.0,0.0,0.0,0.0,0.0,0.0,0.0,0.0,0.0,0.0,0.0,0.0,0.0,0.0,0.0,0.0,0.0,0.0,0.0,0.0,0.0,0.0,0.0,0.0,0.0,0.0,0.0,0.0,0.0,0.0,4.2819,4.3216,4.3529,4.3577,4.3973,4.4069,4.3625,4.3553,4.312,4.2182,0.0,0.0,0.0,0.0,0.0,0.0,0.0,0.0,0.0,0.0,0.0,0.0,0.0,0.0,0.0,0.0,0.0,0.0,0.0,0.0,0.0,0.0,0.0,0.0,0.0,0.0,0.0,0.0,0.0,0.0,0.0,0.0,0.0,0.0,0.0,0.0,0.0,0.0,0.0,0.0,0.0,0.0,0.0,0.0,0.0,0.0,0.0,0.0,0.0,0.0,0.0,0.0,0.0,0.0,0.0,0.0,0.0,0.0,0.0,0.0,4.4285,4.4285,0.0,0.0,0.0,0.0,0.0,0.0,0.0,0.0,0.0,0.0,0.0,0.0,0.0,0.0,0.0,0.0,0.0,0.0,0.0,0.0,0.0,0.0,0.0,0.0,0.0,0.0,0.0,0.0,0.0,0.0,0.0,0.0,0.0,0.0,0.0,0.0,0.0,0.0,0.0,0.0,4.3289,4.3433,4.3673,4.4069,4.4213,4.4237,4.4117,4.377,4.3409,4.3192,4.2808,0.0,0.0,0.0,0.0,0.0,0.0,0.0,0.0,0.0,0.0,0.0,0.0,0.0,0.0,0.0,0.0,0.0,0.0,0.0,0.0,0.0,0.0,0.0,0.0,0.0,0.0,0.0,0.0,0.0,0.0,0.0,0.0,0.0,0.0,0.0,0.0,0.0,0.0,0.0,0.0,0.0,0.0,0.0,0.0,0.0,0.0,0.0,0.0,0.0,0.0,0.0,0.0,0.0,0.0,0.0,0.0,0.0,0.0,0.0,4.4285,4.4285,0.0,0.0,0.0,0.0,0.0,0.0,0.0,0.0,0.0,0.0,0.0,0.0,0.0,0.0,0.0,0.0,0.0,0.0,0.0,0.0,0.0,0.0,0.0,0.0,0.0,0.0,0.0,0.0,0.0,0.0,0.0,0.0,0.0,0.0,0.0,0.0,0.0,0.0,0.0,0.0,4.3842,4.3853,4.3973,4.4261,4.4285,4.4285,4.4285,4.4021,4.3794,4.3529,4.3265,0.0,0.0,0.0,0.0,0.0,0.0,0.0,0.0,0.0,0.0,0.0,0.0,0.0,0.0,0.0,0.0,0.0,0.0,0.0,0.0,0.0,0.0,0.0,0.0,0.0,0.0,0.0,0.0,0.0,0.0,0.0,0.0,0.0,0.0,0.0,0.0,0.0,0.0,0.0,0.0,0.0,0.0,0.0,0.0,0.0,0.0,0.0,0.0,0.0,0.0,0.0,0.0,0.0,4.4237,4.4285,4.4285,4.4285,4.4285,4.4285,4.4285,4.4285,4.4285,4.4285,0.0,0.0,0.0,0.0,0.0,0.0,0.0,0.0,0.0,0.0,0.0,0.0,0.0,0.0,0.0,0.0,0.0,0.0,0.0,0.0,0.0,0.0,4.4285,4.4285,4.4285,4.4285,4.4285,0.0,0.0,0.0,0.0,0.0,0.0,0.0,0.0,0.0,0.0,0.0,4.4213,4.4285,4.4285,4.4285,4.4285,4.4285,4.4285,4.4285,4.4093,4.3697,4.3771,4.4012,0.0,0.0,0.0,0.0,0.0,0.0,0.0,0.0,0.0,0.0,0.0,0.0,0.0,0.0,0.0,0.0,0.0,0.0,0.0,0.0,0.0,0.0,0.0,0.0,0.0,0.0,0.0,0.0,0.0,0.0,0.0,0.0,4.2855,4.3888,0.0,0.0,0.0,0.0,0.0,0.0,0.0,0.0,0.0,0.0,0.0,0.0,0.0,4.2841,4.332,4.3983,4.4045,4.3625,4.4045,4.4285,4.4285,4.4285,4.4285,4.4285,4.4285,0.0,4.4285,4.4285,0.0,0.0,0.0,0.0,0.0,0.0,0.0,0.0,0.0,0.0,0.0,0.0,0.0,0.0,0.0,0.0,0.0,0.0,0.0,0.0,0.0,0.0,4.4285,4.4285,4.4285,4.4285,4.4285,4.4285,4.4261,4.4189,4.3842,4.3481,0.0,0.0,0.0,0.0,0.0,0.0,4.4285,4.4285,4.4285,4.4285,4.4285,4.4285,4.4285,4.4285,4.4261,4.4189,4.5,4.53,4.4933,4.6097,0.0,0.0,0.0,0.0,0.0,0.0,0.0,0.0,0.0,0.0,0.0,0.0,0.0,0.0,0.0,0.0,0.0,0.0,0.0,0.0,0.0,0.0,0.0,0.0,0.0,0.0,0.0,0.0,0.0,4.3451,4.3639,4.4223,4.3639,4.3451,0.0,0.0,0.0,0.0,0.0,0.0,0.0,0.0,0.0,4.3451,4.3451,4.3725,4.4419,4.4597,4.4765,4.4876,4.5116,4.5173,4.5173,4.5173,4.5173,4.5173,4.5173,4.5173,4.5125,4.4525,4.4285,4.4285,0.0,0.0,0.0,0.0,4.4285,4.4285,4.4285,4.4285,4.4285,4.4285,0.0,0.0,0.0,0.0,0.0,0.0,0.0,4.4285,4.4285,4.4285,4.4285,4.4285,4.4285,4.4285,4.4285,4.447,4.4436,4.3938,4.3877,4.3829,4.3553,4.377,0.0,0.0,0.0,4.4594,4.4594,4.4779,4.484,4.484,4.484,4.484,4.484,4.544,4.5839,4.5839,4.6951,4.7704,4.8047,4.8356,4.8676,0.0,0.0,0.0,0.0,0.0,0.0,0.0,0.0,0.0,0.0,0.0,0.0,0.0,0.0,0.0,0.0,0.0,0.0,0.0,0.0,0.0,0.0,0.0,0.0,0.0,0.0,0.0,0.0,4.4347,4.4409,4.4285,4.3514,4.3302,0.0,0.0,0.0,0.0,0.0,0.0,4.4477,4.4477,4.4549,4.4693,4.4573,4.4669,4.5077,4.5197,4.5477,4.5718,4.5862,4.5934,4.5934,4.5998,4.5998,4.5934,4.5998,4.5998,4.5862,4.4861,4.4477,4.4477,4.4333,4.4285,4.4285,4.4285,4.4285,4.4285,4.4285,4.4285,4.4285,4.4285,4.4285,4.4285,4.4285,0.0,0.0,0.0,0.0,4.4409,4.4409,4.447,4.4532,4.4532,4.4532,4.4532,4.4532,4.4779,4.4719,4.3977,4.4242,4.4449,4.4038,4.4304,0.0,4.4532,4.4779,4.5012,4.5134,4.5343,4.5576,4.5724,4.5749,4.5798,4.6016,4.6822,4.7375,4.7574,4.8652,4.9648,5.035,5.0326,5.0678,5.1327,0.0,0.0,0.0,0.0,0.0,0.0,0.0,0.0,0.0,0.0,0.0,0.0,0.0,0.0,0.0,0.0,0.0,0.0,0.0,0.0,0.0,0.0,0.0,0.0,0.0,0.0,0.0,0.0,0.0,4.4347,4.4532,0.0,0.0,0.0,0.0,4.4285,4.4741,4.5029,4.5029,4.5029,4.5269,4.5838,4.5357,4.5053,4.5077,4.5645,4.5645,4.5125,4.5694,4.5934,4.5934,4.6254,4.619,4.5934,4.6254,4.6166,4.5886,4.5269,4.5029,4.4981,4.4477,4.4285,4.4285,4.4285,4.4285,4.4285,4.4285,4.4285,4.4285,4.4285,4.4285,4.4285,4.4285,4.4285,0.0,0.0,4.4532,4.4779,4.4779,4.5025,4.527,4.527,4.527,4.527,4.527,4.527,4.5208,4.4792,4.5,4.527,4.522,0.0,4.527,4.527,4.527,4.5441,4.5994,4.6044,4.6265,4.6869,4.6918,4.7172,4.7819,4.7949,4.8229,4.8793,4.9761,5.035,5.0406,5.1785,5.257,5.2623,5.2491,0.0,0.0,0.0,0.0,0.0,0.0,0.0,0.0,0.0,0.0,0.0,0.0,0.0,0.0,0.0,0.0,0.0,0.0,0.0,0.0,0.0,0.0,0.0,0.0,0.0,0.0,0.0,0.0,4.4963,4.5355,0.0,4.5451,4.5451,4.5535,4.5649,4.5527,4.5474,4.5621,4.5645,4.5718,4.591,4.5933,4.6133,4.6472,4.6899,4.7093,4.698,4.7174,4.714,4.6944,4.7075,4.714,4.7271,4.714,4.714,4.7223,4.6432,4.6086,4.5939,4.5745,4.5673,4.5673,4.5673,4.5455,4.5164,4.5164,4.507,4.4963,4.4963,4.4963,4.4963,4.4963,4.4963,4.4963,4.4963,4.5269,4.5637,4.5637,4.6031,4.6426,4.6426,4.6426,4.6426,4.6426,4.655,4.6675,4.655,4.5859,4.5429,4.5749,4.5822,4.5945,4.6376,4.655,4.6786,4.6985,4.7109,4.7309,4.7596,4.8317,4.8978,4.917,5.0318,5.1088,5.1347,5.2036,5.238,5.238,5.2919,5.3184,5.3184,5.2787,5.2455,0.0,0.0,0.0,0.0,0.0,0.0,0.0,0.0,0.0,0.0,0.0,0.0,0.0,0.0,0.0,0.0,0.0,0.0,0.0,0.0,0.0,0.0,0.0,0.0,0.0,4.5539,4.5724,4.5576,4.6167,4.655,4.6426,4.6363,4.6472,4.6587,4.6465,4.6387,4.656,4.656,4.6593,4.6787,4.7045,4.7417,4.7955,4.8387,4.8657,4.876,4.876,4.8627,4.8428,4.8494,4.853,4.8492,4.836,4.8262,4.8158,4.7702,4.7426,4.7253,4.6631,4.6485,4.6573,4.6421,4.6265,4.6099,4.6137,4.6042,4.5871,4.5871,4.5871,4.5871,4.5871,4.5871,4.5871,4.5871,4.6241,4.655,4.655,4.6947,4.7307,4.7307,4.7307,4.7307,4.7307,4.7495,4.762,4.762,4.6836,4.6279,4.6687,4.6737,4.6861,4.7232,4.7495,4.7695,4.787,4.8084,4.8447,4.9036,4.9903,5.0741,5.1368,5.2563,5.3415,5.3605,5.374,5.3849,5.3849,5.3646,5.35,5.35,5.2891,5.2623,5.2623,0.0,0.0,0.0,0.0,0.0,0.0,0.0,0.0,0.0,0.0,0.0,0.0,0.0,0.0,0.0,0.0,0.0,0.0,0.0,0.0,0.0,0.0,0.0,4.549,4.613,4.6514,4.6179,4.6985,4.7394,4.7079,4.7079,4.7079,4.7041,4.7509,4.7804,4.7829,4.7829,4.8075,4.8576,4.8641,4.8887,4.9404,4.9946,5.0216,5.0216,5.0216,5.0216,5.0216,5.0553,5.0214,4.9429,4.976,4.9422,4.8715,4.8992,4.9097,4.8933,4.714,4.6724,4.7041,4.6597,4.6724,4.7016,4.6992,4.6992,4.6992,4.7055,4.7055,4.7055,4.7055,4.7055,4.7055,4.7055,4.7269,4.752,4.752,4.7771,4.7958,4.7958,4.7958,4.7958,4.7958,4.7958,4.7958,4.7958,4.7958,4.7958,4.7933,4.7933,4.7933,4.7958,4.7958,0.0,4.8736,4.885,4.9533,5.1315,5.1554,5.2425,5.4368,5.457,5.4828,5.5365,5.4865,5.4546,5.4517,5.3907,5.353,5.35,5.292,5.2652,5.2623,0.0,0.0,0.0,0.0,0.0,0.0,0.0,0.0,0.0,0.0,0.0,0.0,0.0,0.0,0.0,0.0,0.0,0.0,0.0,0.0,0.0,4.6906,4.6895,4.6623,4.717,4.7495,4.7433,4.7996,4.8409,4.8283,4.8283,4.8394,4.8536,4.8298,4.8194,4.8395,4.8354,4.8428,4.8576,4.9208,4.9587,4.976,5.0572,5.0846,5.0553,5.0553,5.0419,5.0216,5.0284,5.0344,5.033,5.0196,5.0122,5.0107,4.9554,4.9471,4.9594,4.8704,4.8432,4.8496,4.8432,4.8184,4.7916,4.7745,4.7558,4.737,4.7596,4.7658,4.7658,4.7658,4.7658,4.7658,4.7658,4.8021,4.8409,4.8409,4.8773,4.9138,4.9138,4.9138,4.9138,4.9138,4.9138,4.9138,4.9138,4.9138,4.9012,4.8611,4.8535,4.8661,4.9063,4.9138,4.9188,4.9339,5.0205,5.096,5.1429,5.3214,5.4536,5.51,5.5595,5.5954,5.6087,5.5533,5.4981,5.4546,5.4342,5.4023,5.353,5.3355,5.3036,0.0,0.0,0.0,0.0,0.0,0.0,0.0,0.0,0.0,0.0,0.0,0.0,0.0,0.0,0.0,0.0,0.0,0.0,0.0,0.0,0.0,0.0,4.7657,4.7832,4.7832,4.8083,4.8259,4.8259,4.8761,4.9113,4.9113,4.9113,4.9174,4.9307,4.8992,4.8903,4.9007,4.9032,4.9032,4.9032,4.975,5.009,5.009,5.093,5.1331,5.1262,5.1262,5.132,5.1315,5.1315,5.1327,5.1262,5.106,5.1003,5.0888,5.0364,5.0307,5.0364,0.0,0.0,0.0,0.0,4.9003,4.8615,4.8609,4.8484,4.8446,4.8547,4.8611,4.8611,4.8611,4.8611,4.8611,4.8611,4.8862,4.9113,4.9113,4.9364,4.959,4.959,4.959,4.959,4.959,4.959,4.959,4.959,4.959,0.0,4.9163,4.9113,4.9213,4.954,4.959,4.959,4.959,5.0727,5.1705,5.2262,5.4176,5.5644,5.6165,5.6562,0.0,0.0,0.0,5.5416,5.4546,5.4255,0.0,0.0,0.0,5.3326,5.2978,5.2978,0.0,0.0,5.0967,5.0502,0.0,0.0,0.0,0.0,0.0,0.0,0.0,0.0,0.0,0.0,0.0,0.0,0.0,0.0,0.0,0.0,4.8485,4.8862,4.8862,4.8912,4.8937,4.8862,4.9289,4.959,4.959,4.959,4.959,4.959,4.959,4.959,4.959,4.959,0.0,0.0,0.0,5.0419,5.0419,5.0996,5.1523,5.2026,5.2026,5.2277,5.2754,5.2804,5.2578,5.2101,5.2176,5.1925,5.1473,5.1398,5.1348,5.1172,4.9766,4.9432,4.9665,4.9615,4.9396,4.9202,4.9525,0.0,0.0,4.959,4.959,4.959,4.959,4.959,4.959,4.959,4.959,4.959,4.959,4.959,4.959,4.959,4.959,4.959,4.959,4.959,4.959,4.959,4.959,4.959,4.959,4.959,4.959,4.959,4.9719,4.9847,4.9847,5.1016,5.242,5.3604,5.4856,0.0,5.7191,5.7303,5.7303,5.7303,5.6752,5.5881,5.4662,5.3965,5.3588,5.35,5.35,5.35,5.35,5.35,5.321,5.2659,5.149,5.0859,0.0,0.0,0.0,0.0,0.0,0.0,0.0,0.0,0.0,0.0,0.0,0.0,0.0,0.0,0.0,4.851,4.9063,4.9439,4.9439,4.9816,4.9941,4.949,4.954,4.959,4.959,4.959,4.959,4.959,4.959,4.959,4.959,4.959,4.959,4.959,5.0117,5.0419,5.0419,5.0996,5.1348,5.1448,5.1448,0.0,5.1624,5.2076,5.2201,5.2126,5.2578,5.2703,5.2578,5.2126,5.1674,5.1222,5.0453,5.0203,5.0193,4.9766,4.9525,4.9525,4.959,4.959,4.959,4.959,4.959,4.959,4.959,4.959,0.0,4.959,4.959,4.959,4.959,4.959,4.959,4.959,4.959,4.959,4.959,4.959,4.959,4.959,4.959,4.959,4.959,4.959,4.959,4.959,5.0499,5.1142,5.1142,5.3214,5.4738,5.4973,5.6165,5.7021,5.7303,5.7303,5.7303,5.7303,5.6752,5.6055,5.5271,5.4633,5.4052,5.353,5.35,5.35,5.35,5.35,5.3442,5.3326,5.2543,5.1933,0.0,0.0,0.0,0.0,0.0,0.0,0.0,0.0,0.0,0.0,0.0,4.7908,4.7908,0.0,4.8937,4.9515,4.9816,5.0017,5.0017,5.0017,4.9916,4.9615,4.959,4.959,4.959,4.959,4.959,4.959,4.959,4.959,4.959,4.959,4.959,4.959,4.9866,5.0017,5.0017,5.0293,5.0569,5.0845,5.0845,5.0996,5.1297,5.1574,5.1699,5.1724,5.2277,5.2528,5.2528,5.2528,5.2352,5.2051,5.1473,5.1096,5.082,5.0544,5.0444,5.0393,5.0117,5.0017,4.9967,4.969,4.959,4.959,4.959,4.959,4.959,4.959,4.959,4.959,4.959,4.959,4.959,4.959,4.959,4.959,4.959,4.959,4.959,4.959,4.959,4.959,4.959,4.959,4.9847,5.0436,5.1079,5.1741,5.2447,5.4204,5.5412,5.5412,5.6537,5.7303,5.7303,5.7303,5.7303,5.7303,5.6752,5.6258,5.591,5.501,5.4342,5.4023,5.3675,5.35,5.35,5.35,5.35,5.35,5.3181,5.2717,0.0,0.0,0.0,0.0,0.0,0.0,0.0,4.7531,4.7782,4.738,4.7883,4.8385,4.8385,4.9238,5.0017,5.0368,5.0519,5.0519,5.0293,4.9967,4.9715,4.9615,4.959,4.959,4.959,4.959,4.964,4.9741,4.9766,4.9816,4.9916,4.9916,4.9916,4.9916,4.9916,4.9916,4.9916,4.9916,5.0142,5.0569,5.0569,5.077,5.1122,5.1222,5.1222,5.1147,5.1699,5.2,5.2126,5.2578,5.2829,5.2879,5.2427,5.2,5.1574,5.1373,5.1272,5.1222,5.0745,5.0569,5.0519,5.0067,4.9916,4.9916,4.9916,4.9841,4.9766,4.9766,4.9665,4.959,4.959,4.959,4.959,4.959,4.959,4.959,4.959,4.959,4.959,4.959,4.959,4.959,4.959,4.959,5.0014,5.133,5.1741,5.2359,5.3664,5.4973,5.5761,5.5761,5.6708,5.7303,5.7303,5.7303,5.7303,5.7303,5.6839,5.652,5.6403,5.53,5.4633,5.4517,5.3849,5.35,5.35,5.35,5.35,5.35,5.35,5.3239,4.5899,4.6577,4.7054,4.7531,4.733,4.7054,0.0,4.7531,4.7883,4.7832,4.9063,5.0142,5.0142,5.067,5.0946,5.0494,5.0845,5.0845,4.9816,5.0067,5.0142,4.9665,4.959,4.959,4.959,4.959,4.9791,5.0293,5.0318,5.0544,5.1071,5.1096,5.1096,5.1096,5.1096,5.1096,5.1096,5.1096,5.1122,5.1197,5.1197,5.0946,5.0519,5.1046,5.0996,5.0544,5.1122,5.1649,5.2101,5.2176,5.2477,5.2929,5.2854,5.2804,5.2628,5.1649,5.1272,5.1272,5.1197,5.1197,5.1172,5.1122,5.1096,5.1096,5.1096,5.0745,5.0318,5.0318,4.9967,4.959,4.959,4.959,4.959,4.959,4.959,4.959,4.959,4.959,4.959,4.959,4.959,4.959,4.959,4.959,5.0014,5.133,5.2508,5.3724,5.5032,5.628,5.7078,5.7078,5.7191,5.7303,5.7303,5.7303,5.7303,5.7303,5.7245,5.6955,5.6432,5.5707,5.5068,5.4517,5.3849,5.35,5.35,5.35,5.35,5.35,5.35,5.3471,4.6595,4.6728,4.6778,4.733,4.7531,4.7682,4.8008,4.8761,4.9364,4.9364,5.0193,5.0921,5.0921,5.1373,5.1574,5.1021,5.1122,5.0996,5.0193,4.9992,4.9967,5.0067,5.0067,5.0067,5.0067,5.0067,5.0318,5.087,5.0921,5.1021,5.1272,5.1272,5.1272,5.1272,5.1272,5.1272,5.1272,5.1272,5.1272,5.1272,5.1272,5.1147,5.0921,5.082,5.0645,5.0444,5.067,5.1272,5.2101,5.2101,5.2427,5.2929,5.2929,5.2929,5.2879,5.2402,5.2226,5.2201,5.1875,5.1749,5.1699,5.1398,5.1272,5.1272,5.1272,5.1096,5.0921,5.0921,5.0745,5.0569,5.0569,5.0569,5.0569,5.0569,5.0318,5.0067,5.0067,4.9816,4.959,4.959,4.959,4.959,4.959,4.959,5.0334,5.2324,5.312,5.4204,5.6222,5.6936,5.7303,5.7303,5.7303,5.7303,5.7303,5.7303,5.7303,5.7303,5.7303,5.7187,5.6926,5.6316,5.5678,5.5039,5.44,5.3907,5.35,5.35,5.35,5.35,5.35,5.35,4.7531,4.7179,4.6928,4.7631,4.8083,4.8535,4.9088,4.9967,5.067,5.067,5.1122,5.1498,5.1498,5.1825,5.1925,5.1373,5.1147,5.0896,5.0469,5.0067,5.0017,5.0594,5.067,5.072,5.087,5.0745,5.0896,5.1473,5.1498,5.1574,5.1724,5.1724,5.1724,5.1724,5.1724,5.1724,5.1724,5.1724,5.1724,5.1724,5.1724,5.1649,5.1498,5.0745,5.0419,5.0419,5.0243,5.0745,5.1649,5.1825,5.2201,5.2703,5.2879,5.2929,5.2929,5.2929,5.2929,5.2879,5.2477,5.2327,5.2277,5.1875,5.1724,5.1724,5.1724,5.1624,5.1498,5.1498,5.1398,5.1272,5.1272,5.1272,5.1272,5.1272,5.0971,5.067,5.067,5.0343,5.0017,4.9841,4.9816,4.9766,4.9615,4.959,5.0525,5.3146,5.351,5.4382,5.6936,5.7303,5.7303,5.7303,5.7303,5.7303,5.7303,5.7303,5.7303,5.7303,5.7303,5.7303,5.7303,5.6723,5.6171,5.5707,5.5068,5.4429,5.3791,5.3791,5.3704,5.35,5.35,5.35,4.856,4.8309,4.8134,4.9238,4.954,4.969,5.0243,5.082,5.1247,5.1247,5.1699,5.2076,5.2076,5.2101,5.1925,5.1373,5.082,5.0444,5.0419,5.0393,5.0619,5.1197,5.1247,5.1473,5.2,5.1574,5.1498,5.2051,5.2076,5.2302,5.2854,5.2879,5.2879,5.2879,5.2879,5.2879,5.2879,5.2879,5.2879,5.2879,5.2879,5.2603,5.2051,5.0921,5.0419,5.0393,4.9841,4.9941,5.0519,5.1071,5.1624,5.2176,5.2729,5.2929,5.2929,5.2929,5.2929,5.2929,5.2904,5.2904,5.2904,5.2879,5.2879,5.2879,5.2879,5.2503,5.2076,5.2076,5.1699,5.1272,5.1272,5.1272,5.1272,5.1272,5.1272,5.1247,5.1247,5.1247,5.1071,5.0494,5.0393,5.0218,4.969,4.959,5.0525,5.3146,5.351,5.4382,5.6936,5.7303,5.7303,5.7303,5.7303,5.7303,5.7303,5.7303,5.7303,5.7303,5.7303,5.7303,5.7303,5.6723,5.6403,5.6374,5.5707,5.5068,5.4487,5.4487,5.4139,5.35,5.35,5.35,4.9063,4.8912,4.8761,4.9866,5.0142,5.0293,5.087,5.1423,5.1825,5.1825,5.2277,5.2528,5.2176,5.2101,5.18,5.087,5.087,5.087,5.0469,5.0745,5.1197,5.1749,5.1825,5.2051,5.2603,5.2151,5.2051,5.2603,5.2653,5.2729,5.2929,5.2929,5.2929,5.2929,5.2929,5.2929,5.2929,5.2929,5.2929,5.2929,5.2929,5.2628,5.2101,5.1699,5.1122,5.0419,5.0218,5.0243,5.0444,5.0619,5.1247,5.2126,5.2302,5.2603,5.2929,5.2929,5.2929,5.2929,5.2929,5.2929,5.2929,5.2929,5.2929,5.2929,5.2929,5.2804,5.2653,5.2653,5.2528,5.2377,5.2377,5.2377,5.2377,5.2377,5.2101,5.1825,5.1825,5.1548,5.1222,5.1021,5.067,5.0368,5.0167,4.9841,5.0525,5.3146,5.4915,5.6337,5.7191,5.7303,5.7303,5.7303,5.7303,5.7303,5.7303,5.7303,5.7303,5.7303,5.7303,5.7303,5.7303,5.71,5.681,5.6432,5.62,5.5765,5.5097,5.5097,5.4981,5.4749,5.4371,5.4168,4.9389,4.9339,4.9339,5.0444,5.072,5.087,5.1448,5.2,5.2402,5.2402,5.2678,5.2829,5.2477,5.2076,5.1574,5.0845,5.087,5.0921,5.0745,5.1222,5.1774,5.2327,5.2402,5.2528,5.2904,5.2603,5.2553,5.2904,5.2929,5.2929,5.2929,5.2929,5.2929,5.2929,5.2929,5.2929,5.2929,5.2929,5.2929,5.2929,5.2929,5.2729,5.2402,5.2201,5.1599,5.072,5.0494,5.0293,5.0142,5.0343,5.0971,5.1825,5.2026,5.2452,5.2929,5.2929,5.2929,5.2929,5.2929,5.2929,5.2929,5.2929,5.2929,5.2929,5.2929,5.2929,5.2929,5.2929,5.2929,5.2929,5.2929,5.2929,5.2929,5.2929,5.2653,5.2402,5.2402,5.2126,5.18,5.1599,5.1272,5.0971,5.077,5.0997,5.1779,5.3295,5.5703,5.7303,5.7303,5.7303,5.7303,5.7303,5.7303,5.7303,5.7303,5.7303,5.7303,5.7303,5.7303,5.7303,5.7303,5.7303,5.7129,5.6723,5.6723,5.6403,5.5765,5.5765,5.5649,5.5387,5.501,5.4836,4.9615,4.964,4.9916,5.1046,5.1322,5.1473,5.2026,5.2553,5.2929,5.2929,5.2929,5.2929,5.2879,5.2,5.1272,5.1247,5.0795,5.0645,5.1197,5.1774,5.2352,5.2854,5.2929,5.2929,5.2929,5.2929,5.2929,5.2929,5.2929,5.2929,5.2929,5.2929,5.2929,5.2929,5.2929,5.2929,5.2929,5.2929,5.2929,5.2929,5.2929,5.2929,5.2904,5.2377,5.185,5.1297,5.072,5.0142,4.9665,5.0167,5.072,5.1322,5.185,5.2427,5.2929,5.2929,5.2929,5.2929,5.2929,5.2929,5.2929,5.2929,5.2929,5.2929,5.2929,5.2929,5.2929,5.2929,5.2929,5.2929,5.2929,5.2929,5.2929,5.2929,5.2929,5.2929,5.2929,5.2929,5.2779,5.2251,5.2126,5.1925,5.1456,5.2964,5.4127,5.3652,5.5703,5.7303,5.7303,5.7303,5.7303,5.7303,5.7303,5.7303,5.7303,5.7303,5.7303,5.7303,5.7303,5.7303,5.7303,5.7303,5.7303,5.7303,5.7303,5.7013,5.6461,5.6461,5.6142,5.5503,5.5474,5.5474,4.9992,5.0218,5.0469,5.1624,5.19,5.2051,5.2578,5.2829,5.2929,5.2929,5.2929,5.2804,5.2402,5.1749,5.1147,5.072,5.087,5.1096,5.1272,5.2126,5.2779,5.2904,5.2929,5.2929,5.2929,5.2929,5.2929,5.2929,5.2929,5.2929,5.2929,5.2929,5.2929,5.2929,5.2929,5.2929,5.2929,5.2929,5.2929,5.2929,5.2929,5.2929,5.2929,5.2779,5.2427,5.1875,5.1297,5.0745,5.0193,4.9916,5.0393,5.1297,5.1448,5.2076,5.2929,5.2929,5.2929,5.2929,5.2929,5.2929,5.2929,5.2929,5.2929,5.2929,5.2929,5.2929,5.2929,5.2929,5.2929,5.2929,5.2929,5.2929,5.2929,5.2929,5.2929,5.2929,5.2929,5.2929,5.2879,5.2754,5.2377,5.211,5.2117,5.3306,5.4433,5.4849,5.628,5.7303,5.7303,5.7303,5.7303,5.7303,5.7303,5.7303,5.7303,5.7303,5.7303,5.7303,5.7303,5.7303,5.7303,5.7303,5.7303,5.7303,5.7303,5.7216,5.7071,5.7071,5.6984,5.681,5.6374,5.6142,5.0569,5.0971,5.1373,5.2251,5.2477,5.2553,5.2854,5.2929,5.2929,5.2929,5.2929,5.2829,5.2528,5.1825,5.1172,5.0845,5.1071,5.1272,5.1272,5.2226,5.2929,5.2929,5.2929,5.2929,5.2929,5.2929,5.2929,5.2929,5.2929,5.2929,5.2929,5.2929,5.2929,5.2929,5.2929,5.2929,5.2929,5.2929,5.2929,5.2929,5.2929,5.2929,5.2929,5.2929,5.2628,5.2076,5.1523,5.0946,5.0368,4.9816,5.0117,5.0921,5.1197,5.18,5.2603,5.2829,5.2929,5.2929,5.2929,5.2929,5.2929,5.2929,5.2929,5.2929,5.2929,5.2929,5.2929,5.2929,5.2929,5.2929,5.2929,5.2929,5.2929,5.2929,5.2929,5.2929,5.2929,5.2929,5.2929,5.2929,5.2678,5.2624,5.3062,5.3983,5.4937,5.574,5.6652,5.7303,5.7303,5.7303,5.7303,5.7303,5.7303,5.7303,5.7303,5.7303,5.7303,5.7303,5.7303,5.7303,5.7303,5.7303,5.7303,5.7303,5.7303,5.7303,5.7303,5.7303,5.7303,5.7303,5.6955,5.681,5.1222,5.18,5.2327,5.2804,5.2929,5.2929,5.2929,5.2929,5.2929,5.2929,5.2929,5.2929,5.2929,5.2026,5.1272,5.1272,5.1272,5.1272,5.1272,5.2226,5.2929,5.2929,5.2929,5.2929,5.2929,5.2929,5.2929,5.2929,5.2929,5.2929,5.2929,5.2929,5.2929,5.2929,5.2929,5.2929,5.2929,5.2929,5.2929,5.2929,5.2929,5.2929,5.2929,5.2929,5.2678,5.2176,5.1548,5.0996,5.0469,4.9841,4.9916,5.0469,5.1046,5.1624,5.2176,5.2729,5.2929,5.2929,5.2929,5.2929,5.2929,5.2929,5.2929,5.2929,5.2929,5.2929,5.2929,5.2929,5.2929,5.2929,5.2929,5.2929,5.2929,5.2929,5.2929,5.2929,5.2929,5.2929,5.2929,5.2929,5.2929,5.3207,5.421,5.4741,5.5463,5.6511,5.7025,5.7303,5.7303,5.7303,5.7303,5.7303,5.7303,5.7303,5.7303,5.7303,5.7303,5.7303,5.7303,5.7303,5.7303,5.7303,5.7303,5.7303,5.7303,5.7303,5.7303,5.7303,5.7303,5.7303,5.7303,5.7303,5.1674,5.2377,5.2804,5.2904,5.2929,5.2929,5.2929,5.2929,5.2929,5.2929,5.2929,5.2929,5.2929,5.2026,5.1272,5.1272,5.1272,5.1272,5.1272,5.2226,5.2929,5.2929,5.2929,5.2929,5.2929,5.2929,5.2929,5.2929,5.2929,5.2929,5.2929,5.2929,5.2929,5.2929,5.2929,5.2929,5.2929,5.2929,5.2929,5.2929,5.2929,5.2929,5.2929,5.2929,5.2879,5.2729,5.1724,5.1222,5.1046,5.0017,4.9916,5.0469,5.1046,5.1624,5.2176,5.2729,5.2929,5.2929,5.2929,5.2929,5.2929,5.2929,5.2929,5.2929,5.2929,5.2929,5.2929,5.2929,5.2929,5.2929,5.2929,5.2929,5.2929,5.2929,5.2929,5.2929,5.2929,5.2929,5.2929,5.2929,5.2929,5.3521,5.5419,5.5375,5.5771,5.7656,5.7625,5.7303,5.7303,5.7303,5.7303,5.7303,5.7303,5.7303,5.7303,5.7303,5.7303,5.7303,5.7303,5.7303,5.7303,5.7303,5.7303,5.7303,5.7303,5.7303,5.7303,5.7303,5.7303,5.7303,5.7303,5.7303,5.2226,5.2729,5.2929,5.2929,5.2929,5.2929,5.2929,5.2929,5.2929,5.2929,5.2929,5.2929,5.2929,5.2026,5.1272,5.1272,5.1021,5.0946,5.1247,5.1975,5.2603,5.2904,5.2929,5.2929,5.2929,5.2929,5.2929,5.2929,5.2929,5.2929,5.2929,5.2929,5.2929,5.2929,5.2929,5.2929,5.2929,5.2929,5.2929,5.2929,5.2929,5.2929,5.2929,5.2929,5.2929,5.2879,5.1749,5.1272,5.1197,5.0067,4.9741,5.0067,5.0946,5.1448,5.1774,5.2628,5.2929,5.2929,5.2929,5.2929,5.2929,5.2929,5.2929,5.2929,5.2929,5.2929,5.2929,5.2929,5.2929,5.2929,5.2929,5.2929,5.2929,5.2929,5.2929,5.2929,5.2929,5.2929,5.2929,5.2929,5.2929,5.3691,5.6144,5.5781,5.5942,5.8436,5.7942,5.7303,5.7303,5.7303,5.7303,5.7303,5.7303,5.7303,5.7303,5.7303,5.7303,5.7303,5.7303,5.7303,5.7303,5.7303,5.7303,5.7303,5.7303,5.7303,5.7303,5.7303,5.7303,5.7303,5.7303,5.7303,5.2628,5.2929,5.2929,5.2929,5.2929,5.2929,5.2929,5.2929,5.2929,5.2929,5.2929,5.2929,5.2929,5.2126,5.1423,5.1297,5.0896,5.077,5.1222,5.1749,5.2302,5.2854,5.2929,5.2929,5.2929,5.2929,5.2929,5.2929,5.2929,5.2929,5.2929,5.2929,5.2929,5.2929,5.2929,5.2929,5.2929,5.2929,5.2929,5.2929,5.2929,5.2929,5.2929,5.2929,5.2929,5.2879,5.1875,5.1398,5.1197,5.0193,4.969,4.969,5.0695,5.1172,5.1398,5.2377,5.2829,5.2929,5.2929,5.2929,5.2929,5.2929,5.2929,5.2929,5.2929,5.2929,5.2929,5.2929,5.2929,5.2929,5.2929,5.2929,5.2929,5.2929,5.2929,5.2929,5.2929,5.2929,5.2929,5.2929,5.2929,5.37,5.6156,5.578,5.5929,5.8457,5.7973,5.7303,5.7303,5.7303,5.7303,5.7303,5.7303,5.7303,5.7303,5.7303,5.7303,5.7303,5.7303,5.7303,5.7303,5.7303,5.7303,5.7303,5.7303,5.7303,5.7303,5.7303,5.7303,5.7303,5.7303,5.7303,5.2628,5.2929,5.2929,5.2929,5.2929,5.2929,5.2929,5.2929,5.2929,5.2929,5.2929,5.2929,5.2929,5.2427,5.1875,5.1373,5.1247,5.1222,5.1272,5.1749,5.2302,5.2854,5.2929,5.2929,5.2929,5.2929,5.2929,5.2929,5.2929,5.2929,5.2929,5.2929,5.2929,5.2929,5.2929,5.2929,5.2929,5.2929,5.2929,5.2929,5.2929,5.2929,5.2929,5.2929,5.2929,5.2904,5.2302,5.1749,5.1222,5.0594,5.0042,4.9665,5.0268,5.082,5.1348,5.195,5.2503,5.2929,5.2929,5.2929,5.2929,5.2929,5.2929,5.2929,5.2929,5.2929,5.2929,5.2929,5.2929,5.2929,5.2929,5.2929,5.2929,5.2929,5.2929,5.2929,5.2929,5.2929,5.2929,5.2929,5.2929,5.3384,5.4927,5.5168,5.5593,5.7178,5.734,5.7303,5.7303,5.7303,5.7303,5.7303,5.7303,5.7303,5.7303,5.7303,5.7303,5.7303,5.7303,5.7303,5.7303,5.7303,5.7303,5.7303,5.7303,5.7303,5.7303,5.7303,5.7303,5.7303,5.7303,5.7303,5.2628,5.2929,5.2929,5.2929,5.2929,5.2929,5.2929,5.2929,5.2929,5.2929,5.2929,5.2929,5.2929,5.2477,5.1925,5.1373,5.0996,5.0896,5.1222,5.1473,5.195,5.2829,5.2929,5.2929,5.2929,5.2929,5.2929,5.2929,5.2929,5.2929,5.2929,5.2929,5.2929,5.2929,5.2929,5.2929,5.2929,5.2929,5.2929,5.2929,5.2929,5.2929,5.2929,5.2929,5.2929,5.2904,5.2352,5.18,5.1247,5.067,5.0092,4.964,5.0193,5.077,5.1348,5.19,5.2452,5.2929,5.2929,5.2929,5.2929,5.2929,5.2929,5.2929,5.2929,5.2929,5.2929,5.2929,5.2929,5.2929,5.2929,5.2929,5.2929,5.2929,5.2929,5.2929,5.2929,5.2929,5.2929,5.2929,5.2929,5.3462,5.5377,5.5347,5.573,5.756,5.7542,5.7303,5.7303,5.7303,5.7303,5.7303,5.7303,5.7303,5.7303,5.7303,5.7303,5.7303,5.7303,5.7303,5.7303,5.7303,5.7303,5.7303,5.7303,5.7303,5.7303,5.7303,5.7303,5.7303,5.7303,5.7303,5.2628,5.2929,5.2929,5.2929,5.2929,5.2929,5.2929,5.2929,5.2929,5.2929,5.2929,5.2929,5.2929,5.2603,5.2126,5.1398,5.0946,5.0745,5.0996,5.1172,5.1624,5.2578,5.2829,5.2929,5.2929,5.2929,5.2929,5.2929,5.2929,5.2929,5.2929,5.2929,5.2929,5.2929,5.2929,5.2929,5.2929,5.2929,5.2929,5.2929,5.2929,5.2929,5.2929,5.2929,5.2929,5.2904,5.2528,5.195,5.1247,5.0845,5.0243,4.964,5.0017,5.0619,5.1322,5.1724,5.2302,5.2929,5.2929,5.2929,5.2929,5.2929,5.2929,5.2929,5.2929,5.2929,5.2929,5.2929,5.2929,5.2929,5.2929,5.2929,5.2929,5.2929,5.2929,5.2929,5.2929,5.2929,5.2929,5.2929,5.2929,5.3453,5.5161,5.5249,5.571,5.7394,5.7482,5.7303,5.7303,5.7303,5.7303,5.7303,5.7303,5.7303,5.7303,5.7303,5.7303,5.7303,5.7303,5.7303,5.7303,5.7303,5.7303,5.7303,5.7303,5.7303,5.7303,5.7303,5.7303,5.7303,5.7303,5.7303,5.2628,5.2929,5.2929,5.2929,5.2929,5.2929,5.2929,5.2929,5.2929,5.2929,5.2929,5.2929,5.2929,5.2929,5.2553,5.1448,5.1272,0.0,5.0494,5.0921,5.1498,5.2051,5.2603,5.2929,5.2929,5.2929,5.2929,5.2929,5.2929,5.2929,5.2929,5.2929,5.2929,5.2929,5.2929,5.2929,5.2929,5.2929,5.2929,5.2929,5.2929,5.2929,5.2929,5.2929,5.2929,5.2929,5.2929,5.2302,5.1272,5.1272,5.0594,4.959,4.9615,5.0293,5.1272,5.1297,5.1975,5.2929,5.2929,5.2929,5.2929,5.2929,5.2929,5.2929,5.2929,5.2929,5.2929,5.2929,5.2929,5.2929,5.2929,5.2929,5.2929,5.2929,5.2929,5.2929,5.2929,5.2929,5.2929,5.2929,5.2929,5.3139,5.3907,5.4613,5.534,5.6097,5.6823,5.7303,5.7303,5.7303,5.7303,5.7303,5.7303,5.7303,5.7303,5.7303,5.7303,5.7303,5.7303,5.7303,5.7303,5.7303,5.7303,5.7303,5.7303,5.7303,5.7303,5.7303,5.7303,5.7303,5.7303,5.7303,5.2176,5.2628,5.2929,5.2929,5.2929,5.2929,5.2929,5.2929,5.2929,5.2929,5.2929,5.2929,5.2929,5.2929,5.2578,5.1448,5.1272,5.1071,5.0494,5.0921,5.1498,5.2051,5.2578,5.2929,5.2929,5.2929,5.2929,5.2929,5.2929,5.2929,5.2929,5.2929,5.2929,5.2929,5.2929,5.2929,5.2929,5.2929,5.2929,5.2929,5.2929,5.2929,5.2929,5.2929,5.2929,5.2904,5.2528,5.195,5.1247,5.0845,5.0268,4.959,4.959,5.0293,5.1272,5.1272,5.1975,5.2929,5.2929,5.2929,5.2929,5.2929,5.2929,5.2929,5.2929,5.2929,5.2929,5.2929,5.2929,5.2929,5.2929,5.2929,5.2929,5.2929,5.2929,5.2929,5.2929,5.2929,5.2929,5.2929,5.2929,5.3258,5.4565,5.4979,5.5511,5.6736,5.7137,5.7303,5.7303,5.7303,5.7303,5.7303,5.7303,5.7303,5.7303,5.7303,5.7303,5.7303,5.7303,5.7303,5.7303,5.7303,5.7303,5.7303,5.7303,5.7303,5.7303,5.7303,5.7303,5.7303,5.7303,5.7303,5.1649,5.2352,5.2929,5.2929,5.2929,5.2929,5.2929,5.2929,5.2929,5.2929,5.2929,5.2929,5.2929,5.2929,5.2578,5.1448,5.1272,5.0996,5.0218,5.0795,5.1548,5.2327,5.2729,5.2929,5.2929,5.2929,5.2929,5.2929,5.2929,5.2929,5.2929,5.2929,5.2929,5.2929,5.2929,5.2929,5.2929,5.2929,5.2929,5.2929,5.2929,5.2929,5.2929,5.2929,5.2929,5.2904,5.2352,5.18,0.0,5.067,5.0092,4.959,4.959,5.0293,5.1272,5.1272,5.1975,5.2929,5.2929,5.2929,5.2929,5.2929,5.2929,5.2929,5.2929,5.2929,5.2929,5.2929,5.2929,5.2929,5.2929,5.2929,5.2929,5.2929,5.2929,5.2929,5.2929,5.2929,5.2929,5.2929,5.3316,5.3989,5.4934,5.5531,5.6187,5.7138,5.7303,5.7303,5.7303,5.7303,5.7303,5.7303,5.7303,5.7303,5.7303,5.7303,5.7303,5.7303,5.7303,5.7303,5.7303,5.7303,5.7303,5.7303,5.7303,5.7303,5.7303,5.7303,5.7303,5.7303,5.7303,5.7303,0.0,5.2026,5.2929,5.2929,5.2929,5.2929,5.2929,5.2929,0.0,5.2929,5.2929,5.2929,5.2929,5.2904,5.2528,5.1448,5.1247,5.0845,4.9741,5.0569,5.1699,5.2804,5.2929,5.2929,5.2929,5.2929,5.2929,5.2929,5.2929,5.2929,5.2929,5.2929,5.2929,5.2929,5.2929,5.2929,5.2929,5.2929,5.2929,5.2929,5.2929,5.2929,5.2929,5.2929,5.2929,5.2904,5.2302,5.1749,5.1222,5.0619,5.0067,4.959,4.964,5.0318,5.1297,5.1322,5.2026,5.2929,5.2929,5.2929,5.2929,5.2929,5.2929,5.2929,5.2929,5.2929,5.2929,5.2929,5.2929,5.2929,5.2929,5.2929,5.2929,5.2929,5.2929,5.2929,5.2929,5.2929,5.2929,5.3067,5.4106,5.509,5.5303,5.6387,5.7262,5.7366,5.7332,5.7303,5.7303,5.7303,5.7303,5.7303,5.7303,5.7303,5.7303,5.7303,5.7303,5.7303,5.7303,5.7303,5.7303,5.7303,5.7303,5.7303,5.7303,5.7303,5.7303,5.7303,5.7303,5.7303,5.7303,5.7303,4.9711,0.0,5.2929,5.2929,5.2929,5.2929,0.0,5.2929,5.2929,5.2929,5.2929,5.2929,5.2929,5.2578,5.2076,5.1398,5.0921,5.0368,4.969,5.0569,5.1699,5.2804,5.2929,5.2929,5.2929,5.2929,5.2929,5.2929,5.2929,5.2929,5.2929,5.2929,5.2929,5.2929,5.2929,5.2929,5.2929,5.2929,5.2929,5.2929,5.2929,5.2929,5.2929,5.2929,5.2929,5.2879,5.19,5.1398,5.1197,5.0193,4.9715,4.964,5.0067,5.067,5.1322,5.1749,5.2352,5.2929,5.2929,5.2929,5.2929,5.2929,5.2929,5.2929,5.2929,5.2929,5.2929,5.2929,5.2929,5.2929,5.2929,5.2929,5.2929,5.2929,5.2929,5.2929,5.2929,5.2929,5.3179,5.4283,5.4753,5.555,5.7128,5.7304,5.7404,5.8002,5.7623,5.7303,5.7303,5.7303,5.7303,5.7303,5.7303,5.7303,5.7303,5.7303,5.7303,5.7303,5.7303,5.7303,5.7303,5.7303,5.7303,5.7303,5.7303,5.7303,5.7303,5.7303,5.7303,5.7303,5.7303,5.7303,4.9127,5.0913,5.2603,5.2854,5.2929,5.2929,5.2929,5.2929,5.2929,5.2929,5.2929,5.2854,5.2603,5.2302,5.1825,5.1021,5.0619,5.0419,5.0368,5.0896,5.1699,5.2804,5.2929,5.2929,5.2929,5.2929,5.2929,5.2929,5.2929,5.2929,5.2929,5.2929,5.2929,5.2929,5.2929,5.2929,5.2929,5.2929,5.2929,5.2929,5.2929,5.2929,5.2929,5.2929,5.2929,5.2879,5.1749,5.1272,5.1197,5.0067,4.959,4.964,5.0193,5.077,5.1348,5.19,5.2452,5.2929,5.2929,5.2929,5.2929,5.2929,5.2929,5.2929,5.2929,5.2929,5.2929,5.2929,5.2929,5.2929,5.2929,5.2929,5.2929,5.2929,5.2929,5.2929,5.2929,5.2929,5.3316,5.4753,5.5525,5.6397,5.788,5.8171,5.8169,5.8292,5.7739,5.7303,5.7303,5.7303,5.7303,5.7303,5.7303,5.7303,5.7303,5.7303,5.7303,5.7303,5.7303,5.7303,5.7303,5.7303,5.7303,5.7303,5.7303,5.7303,5.7303,5.7303,5.7303,5.7303,5.7303,5.7303,4.9082,5.0605,5.2226,5.2779,5.2929,5.2929,5.2929,5.2929,5.2929,5.2929,5.2929,5.2754,5.2201,5.2026,5.1624,5.0594,5.0343,5.0519,5.1197,5.1272,5.1699,5.2804,5.2929,5.2929,5.2929,5.2929,5.2929,5.2929,5.2929,5.2929,5.2929,5.2929,5.2929,5.2929,5.2929,5.2929,5.2929,5.2929,5.2929,5.2929,5.2929,5.2929,5.2929,5.2929,5.2879,5.2754,5.1724,5.1222,5.1071,5.0017,4.959,4.9665,5.0293,5.0845,5.1348,5.2,5.2528,5.2929,5.2929,5.2929,5.2929,5.2929,5.2929,5.2929,5.2929,5.2929,5.2929,5.2929,5.2929,5.2929,5.2929,5.2929,5.2929,5.2929,5.2929,5.2929,5.2929,5.2929,5.3384,5.4994,5.6221,5.7323,5.839,5.909,5.9219,5.8552,5.7884,5.7419,5.7303,5.7303,5.7303,5.7303,5.7303,5.7303,5.7303,5.7303,5.7303,5.7303,5.7303,5.7303,5.7303,5.7303,5.7303,5.7303,5.7303,5.7303,5.7303,5.7303,5.7303,5.7303,5.7303,5.7303,4.9429,5.0905,5.2226,5.2779,5.2929,5.2929,5.2929,5.2929,5.2929,5.2929,5.2929,5.2754,5.2201,5.1724,5.1197,5.0519,5.0017,5.0092,5.1147,5.1272,5.1699,5.2804,5.2929,5.2929,5.2929,5.2929,5.2929,5.2929,5.2929,5.2929,5.2929,5.2929,5.2929,5.2929,5.2929,5.2929,5.2929,5.2929,5.2929,5.2929,5.2929,5.2929,5.2929,5.2929,5.2678,5.2201,5.1548,5.0996,5.0494,4.9866,4.959,4.969,5.0745,5.1197,5.1398,5.2427,5.2854,5.2929,5.2929,5.2929,5.2929,5.2929,5.2929,5.2929,5.2929,5.2929,5.2929,5.2929,5.2929,5.2929,5.2929,5.2929,5.2929,5.2929,5.2929,5.2929,5.2929,5.2929,5.3632,5.6221,5.6844,5.7779,6.0266,6.0378,5.9858,5.9248,5.8581,5.7942,5.739,5.7303,5.7303,5.7303,5.7303,5.7303,5.7303,5.7303,5.7303,5.7303,5.7303,5.7303,5.7303,5.7303,5.7303,5.7303,5.7303,5.7303,5.7303,5.7303,5.7303,5.7303,5.7303,5.7303,4.9405,5.1046,5.2603,5.2854,5.2929,5.2929,5.2929,5.2929,5.2929,5.2929,5.2678,5.2302,5.1749,5.1197,5.0619,5.0067,4.9766,4.9992,5.1122,5.1272,5.1699,5.2804,5.2929,5.2929,5.2929,5.2929,5.2929,5.2929,5.2929,5.2929,5.2929,5.2929,5.2929,5.2929,5.2929,5.2929,5.2929,5.2929,5.2929,5.2929,5.2929,5.2929,5.2929,5.2929,5.2628,5.2076,5.1523,5.0946,5.0368,4.9816,4.959,4.9715,5.0845,5.1272,5.1423,5.2528,5.2929,5.2929,5.2929,5.2929,5.2929,5.2929,5.2929,5.2929,5.2929,5.2929,5.2929,5.2929,5.2929,5.2929,5.2929,5.2929,5.2929,5.2929,5.2929,5.2929,5.2929,5.3521,5.4619,5.6585,5.7615,5.878,6.0863,6.0642,6.0003,5.9393,5.8726,5.8058,5.739,5.7303,5.7303,5.7303,5.7303,5.7303,5.7303,5.7303,5.7303,5.7303,5.7303,5.7303,5.7303,5.7303,5.7303,5.7303,5.7303,5.7303,5.7303,5.7303,5.7303,5.7303,5.7303,5.7303,4.9601,5.1284,5.2929,5.2929,5.2929,5.2929,5.2929,5.2929,5.2929,5.2929,5.2477,5.195,5.1373,5.0695,5.0092,4.9665,4.959,4.9992,5.1122,5.1272,5.1699,5.2804,5.2929,5.2929,5.2929,5.2929,5.2929,5.2929,5.2929,5.2929,5.2929,5.2929,5.2929,5.2929,5.2929,5.2929,5.2929,5.2929,5.2929,5.2929,5.2929,5.2929,5.2929,5.2804,5.2427,5.1875,5.1322,5.077,5.0193,4.9766,4.959,4.9715,5.0845,5.1448,5.1774,5.2628,5.2929,5.2929,5.2929,5.2929,5.2929,5.2929,5.2929,5.2929,5.2929,5.2929,5.2929,5.2929,5.2929,5.2929,5.2929,5.2929,5.2929,5.2929,5.2929,5.2929,5.2929,5.4039,5.5393,5.6715,5.8151,5.9555,6.0952,6.0758,6.0206,5.9597,5.8958,5.829,5.7623,5.739,5.7303,5.7303,5.7303,5.7303,5.7303,5.7303,5.7303,5.7303,5.7303,5.7303,5.7303,5.7303,5.7303,5.7303,5.7303,5.7303,5.7303,5.7303,5.7303,5.7303,5.7303,5.7303,5.0635,5.188,5.2929,5.2929,5.2929,5.2929,5.2929,5.2929,5.2929,5.2929,5.2477,5.195,5.1373,5.0393,4.964,4.9615,4.959,4.9992,5.1122,5.1272,5.1699,5.2804,5.2929,5.2929,5.2929,5.2929,5.2929,5.2929,5.2929,5.2929,5.2929,5.2929,5.2929,5.2929,5.2929,5.2929,5.2929,5.2929,5.2929,5.2929,5.2929,5.2929,5.2904,5.2402,5.1875,5.1297,5.072,5.0167,4.964,4.9615,4.959,4.9715,5.0845,5.19,5.2829,5.2904,5.2929,5.2929,5.2929,5.2929,5.2929,5.2929,5.2929,5.2929,5.2929,5.2929,5.2929,5.2929,5.2929,5.2929,5.2929,5.2929,5.2929,5.2929,5.2929,5.2929,5.2929,5.4039,5.5393,5.6715,5.8151,5.9555,6.0952,6.1164,6.0903,6.0235,5.9626,5.8987,5.8319,5.7681,5.7303,5.7303,5.7303,5.7303,5.7303,5.7303,5.7303,5.7303,5.7303,5.7303,5.7303,5.7303,5.7303,5.7303,5.7303,5.7303,5.7303,5.7303,5.7303,5.7303,5.7303,5.7303,5.0832,5.193,5.2929,5.2929,5.2929,5.2929,5.2929,5.2653,5.2427,5.2427,5.1699,5.0896,5.0343,4.9891,4.959,4.959,4.959,4.9992,5.1122,5.1272,5.1699,5.2804,5.2929,5.2929,5.2929,5.2929,5.2929,5.2929,5.2929,5.2929,5.2929,5.2929,5.2929,5.2929,5.2929,5.2929,5.2929,5.2929,5.2929,5.2929,5.2929,5.2929,5.2904,5.2352,5.18,5.1247,5.067,5.0117,4.959,4.959,4.959,4.9715,5.0845,5.195,5.2929,5.2929,5.2929,5.2929,5.2929,5.2929,5.2929,5.2929,5.2929,5.2929,5.2929,5.2929,5.2929,5.2929,5.2929,5.2929,5.2929,5.2929,5.2929,5.2929,5.2929,5.311,5.4039,5.526,5.665,5.8024,5.9431,6.056,6.1133,6.1193,6.0961,6.0293,5.9684,5.9074,5.8406,5.771,5.7303,5.7303,5.7303,5.7303,5.7303,5.7303,5.7303,5.7303,5.7303,5.7303,5.7303,5.7303,5.7303,5.7303,5.7303,5.7303,5.7303,5.7303,5.7303,5.7303,5.7303,5.7303,5.1083,5.2079,5.2929,5.2929,5.2929,5.2879,5.2703,5.2377,5.2051,5.1875,5.1096,5.0243,4.969,4.959,4.959,4.959,4.959,4.9916,5.087,5.1172,5.1624,5.2553,5.2829,5.2929,5.2929,5.2929,5.2929,5.2929,5.2929,5.2929,5.2929,5.2929,5.2929,5.2929,5.2929,5.2929,5.2929,5.2929,5.2929,5.2929,5.2754,5.2678,5.2653,5.2101,5.1548,5.0971,5.0419,4.9941,4.959,4.959,4.9816,5.0193,5.0971,5.195,5.2929,5.2929,5.2929,5.2929,5.2929,5.2929,5.2929,5.2929,5.2929,5.2929,5.2929,5.2929,5.2929,5.2929,5.2929,5.2929,5.2929,5.2929,5.2929,5.2929,5.2929,5.3316,5.4686,5.6025,5.7423,5.8843,6.0226,6.1193,6.1193,6.1193,6.1048,6.0584,5.9974,5.9364,5.8697,5.8029,5.7536,5.7332,5.7303,5.7303,5.7303,5.7303,5.7303,5.7303,5.7303,5.7303,5.7303,5.7303,5.7303,5.7303,5.7303,5.7303,5.7303,5.7303,5.7303,5.7303,5.7303,5.7303,5.1648,5.2377,5.2929,5.2929,5.2929,5.2779,5.2226,5.2101,5.195,5.1373,5.082,5.0243,4.969,4.959,4.959,4.959,4.959,4.9791,5.0343,5.0921,5.1498,5.2051,5.2578,5.2929,5.2929,5.2929,5.2929,5.2929,5.2929,5.2929,5.2929,5.2929,5.2929,5.2929,5.2929,5.2929,5.2929,5.2929,5.2929,5.2904,5.2377,5.2101,5.2076,5.1523,5.0971,5.0393,4.9841,4.959,4.959,4.959,5.0268,5.1272,5.1272,5.195,5.2929,5.2929,5.2929,5.2929,5.2929,5.2929,5.2929,5.2929,5.2929,5.2929,5.2929,5.2929,5.2929,5.2929,5.2929,5.2929,5.2929,5.2929,5.2929,5.2929,5.2929,5.3316,5.4686,5.609,5.7423,5.8843,6.0226,6.1193,6.1193,6.1193,6.1193,6.1193,6.0642,5.9974,5.9364,5.8726,5.8058,5.7361,5.7303,5.7303,5.7303,5.7303,5.7303,5.7303,5.7303,5.7303,5.7303,5.7303,5.7303,5.7303,5.7303,5.7303,5.7303,5.7303,5.7303,5.7303,5.7303,5.7303,5.1702,5.2169,5.2585,5.2861,5.2628,5.2201,5.1649,5.1523,5.1247,5.0293,4.9967,4.9791,4.9615,4.959,4.959,4.959,4.959,4.9791,5.0343,5.0921,5.1498,5.2051,5.2578,5.2929,5.2929,5.2929,5.2929,5.2929,5.2929,5.2929,5.2929,5.2929,5.2929,5.2929,5.2929,5.2929,5.2929,5.2929,5.2729,5.2352,5.2176,5.2101,5.2076,5.1122,5.0569,5.0393,4.9841,4.959,4.959,4.959,5.0268,5.1272,5.1272,5.195,5.2929,5.2929,5.2929,5.2929,5.2929,5.2929,5.2929,5.2929,5.2929,5.2929,5.2929,5.2929,5.2929,5.2929,5.2929,5.2929,5.2929,5.2929,5.2929,5.2929,5.2929,5.3563,5.5894,5.6715,5.7679,6.0104,6.0923,6.1193,6.1193,6.1193,6.1193,6.1193,6.0642,5.98,5.8726,5.8435,5.8058,5.7361,5.7303,5.7303,5.7303,5.7303,5.7303,5.7303,5.7303,5.7303,5.7303,5.7303,5.7303,5.7303,5.7303,5.7303,5.7303,5.7303,5.7303,5.7303,5.7303,5.7303,5.1586,5.2169,5.2654,5.2861,5.2528,5.19,5.1122,5.077,5.0419,4.9741,4.959,4.959,4.959,4.959,4.959,4.959,4.959,4.9715,5.0042,5.0569,5.1147,5.1699,5.2277,5.2678,5.2904,5.2929,5.2929,5.2929,5.2929,5.2929,5.2929,5.2929,5.2929,5.2929,5.2929,5.2929,5.2929,5.2703,5.2427,5.2101,5.1649,5.1423,5.1423,5.072,5.0293,5.0067,4.9741,4.959,4.959,4.959,5.0117,5.0971,5.1197,5.1825,5.2628,5.2854,5.2929,5.2929,5.2929,5.2929,5.2929,5.2929,5.2929,5.2929,5.2929,5.2929,5.2929,5.2929,5.2929,5.2929,5.2929,5.2929,5.2929,5.2929,5.3316,5.435,5.652,5.7423,5.8529,6.0742,6.1193,6.1193,6.1193,6.1193,6.1193,6.1193,6.0642,5.9829,5.8842,5.8464,5.8058,5.7361,5.7303,5.7303,5.7303,5.7303,5.7303,5.7303,5.7303,5.7303,5.7303,5.7303,5.7303,5.7303,5.7303,5.7303,5.7303,5.7303,5.7303,5.7303,5.7303,5.7303,5.1376,5.2308,5.2861,5.2861,5.2477,5.1724,5.0594,4.9967,4.959,4.959,4.959,4.959,4.959,4.959,4.959,4.959,4.959,4.959,4.959,5.0067,5.0619,5.1147,5.1724,5.2302,5.2804,5.2904,5.2929,5.2929,5.2929,5.2929,5.2929,5.2929,5.2929,5.2929,5.2929,5.2904,5.2854,5.2352,5.2051,5.1925,5.0921,5.0393,5.0343,5.0343,5.0067,4.959,4.959,4.959,4.959,4.959,4.9916,5.0469,5.1046,5.1624,5.2176,5.2729,5.2929,5.2929,5.2929,5.2929,5.2929,5.2929,5.2929,5.2929,5.2929,5.2929,5.2929,5.2929,5.2929,5.2929,5.2929,5.2929,5.2929,5.2929,5.3971,5.5393,5.6715,5.8088,5.9493,6.0923,6.1193,6.1193,6.1193,6.1193,6.1193,6.1193,6.0671,6.0061,5.9451,5.8813,5.8145,5.7477,5.7332,5.7303,5.7303,5.7303,5.7303,5.7303,5.7303,5.7303,5.7303,5.7303,5.7303,5.7303,5.7303,5.7303,5.7303,5.7303,5.7303,5.7303,5.7303,5.7303,5.1306,5.2169,5.2585,5.2861,5.2176,5.1147,5.0017,4.9665,4.959,4.959,4.959,4.959,4.959,4.959,4.959,4.959,4.959,4.959,4.959,5.0067,5.0469,5.0594,5.1498,5.2151,5.2277,5.2678,5.2929,5.2929,5.2929,5.2929,5.2929,5.2929,5.2929,5.2929,5.2929,5.2729,5.2277,5.2176,5.1649,5.077,5.0544,5.0193,4.9766,4.9766,4.9715,4.959,4.959,4.959,4.959,4.959,4.9916,5.0469,5.1046,5.1624,5.2176,5.2729,5.2929,5.2929,5.2929,5.2929,5.2929,5.2929,5.2929,5.2929,5.2929,5.2929,5.2929,5.2929,5.2929,5.2929,5.2929,5.2929,5.2929,5.2929,5.3971,5.5393,5.6715,5.8088,5.9493,6.0923,6.1193,6.1193,6.1193,6.1193,6.1193,6.1193,6.1077,6.0758,6.009,5.948,5.8842,5.8174,5.7623,5.7303,5.7303,5.7303,5.7303,5.7303,5.7303,5.7303,5.7303,5.7303,5.7303,5.7303,5.7303,5.7303,5.7303,5.7303,5.7303,5.7303,5.7303,5.7303,5.1071,5.2099,5.2391,5.2209,5.1699,5.0996,4.9866,4.959,4.959,4.959,4.959,4.959,4.959,4.959,4.959,4.959,4.959,4.959,4.959,4.9841,5.0117,5.0393,5.0946,5.1498,5.2051,5.2377,5.2628,5.2904,5.2929,5.2929,5.2929,5.2929,5.2929,5.2929,5.2678,5.2402,5.2101,5.1574,5.0996,5.0419,5.0142,4.9866,4.959,4.959,4.959,4.959,4.959,4.959,4.959,4.959,4.9766,5.0117,5.0946,5.1448,5.18,5.2628,5.2929,5.2929,5.2929,5.2929,5.2929,5.2929,5.2929,5.2929,5.2929,5.2929,5.2929,5.2929,5.2929,5.2929,5.2929,5.2929,5.2929,5.2929,5.3971,5.5393,5.6715,5.8088,5.9493,6.0923,6.1193,6.1193,6.1193,6.1193,6.1193,6.1193,6.1193,6.0961,6.0293,5.9916,5.9364,5.8406,5.8,5.7652,5.7332,5.7303,5.7303,5.7303,5.7303,5.7303,5.7303,5.7303,5.7303,5.7303,5.7303,5.7303,5.7303,5.7303,5.7303,5.7303,5.7303,5.7303,5.086,5.203,5.2241,5.1481,5.1272,5.0996,4.9866,4.959,4.959,4.959,4.959,4.959,4.959,4.959,4.959,4.959,4.959,4.959,4.959,4.959,4.9766,5.0218,5.0368,5.0795,5.1724,5.1975,5.2302,5.2754,5.2879,5.2929,5.2929,5.2829,5.2779,5.2779,5.2251,5.1925,5.1825,5.087,5.0368,5.0268,4.9816,4.959,4.959,4.959,4.959,4.959,4.959,4.959,4.959,4.959,4.959,4.9715,5.0845,5.1272,5.1423,5.2528,5.2929,5.2929,5.2929,5.2929,5.2929,5.2929,5.2929,5.2929,5.2929,5.2929,5.2929,5.2929,5.2929,5.2929,5.2929,5.2929,5.2929,5.2929,5.3768,5.5061,5.665,5.8088,5.9493,6.0923,6.1193,6.1193,6.1193,6.1193,6.1193,6.1193,6.1193,6.099,6.0438,6.0264,5.98,5.8726,5.8435,5.8087,5.7536,5.7361,5.7303,5.7303,5.7303,5.7303,5.7303,5.7303,5.7303,5.7303,5.7303,5.7303,5.7303,5.7303,5.7303,5.7303,5.7303,5.7303,5.0789,5.1866,5.2241,5.1481,5.1272,5.0996,4.9866,4.959,4.959,4.959,4.959,4.959,4.959,4.959,4.959,4.959,4.959,4.959,4.959,4.959,4.9615,4.969,5.0117,5.0469,5.0619,5.1523,5.2126,5.2201,5.2653,5.2929,5.2929,5.2477,5.2226,5.2226,5.1674,5.1147,5.0645,5.0494,5.0167,4.9715,4.9615,4.959,4.959,4.959,4.959,4.959,4.959,4.959,4.959,4.959,4.959,4.9715,5.0845,5.1272,5.1423,5.2528,5.2929,5.2929,5.2929,5.2929,5.2929,5.2929,5.2929,5.2929,5.2929,5.2929,5.2929,5.2929,5.2929,5.2929,5.2929,5.2929,5.2929,5.2929,5.3042,5.3903,5.6455,5.8088,5.9493,6.0923,6.1193,6.1193,6.1193,6.1193,6.1193,6.1193,6.1193,6.1164,6.1077,6.0555,6.0119,5.9974,5.8958,5.8261,5.8174,5.7623,5.7303,5.7303,5.7303,5.7303,5.7303,5.7303,5.7303,5.7303,5.7303,5.7303,5.7303,5.7303,5.7303,5.7303,5.7303,5.7303,5.0765,5.1935,5.2241,5.1481,5.1272,5.0996,4.9866,4.959,4.959,4.959,4.959,4.959,4.959,4.959,4.959,4.959,4.959,4.959,4.959,4.959,4.959,4.959,4.9816,5.0067,5.0393,5.087,5.1297,5.1624,5.2151,5.2327,5.2026,5.2076,5.1975,5.1649,5.1096,5.067,5.0419,5.0117,4.9841,4.959,4.959,4.959,4.959,4.959,4.959,4.959,4.959,4.959,4.959,4.959,4.959,4.9665,5.0469,5.0996,5.1373,5.2176,5.2653,5.2929,5.2929,5.2929,5.2929,5.2929,5.2929,5.2929,5.2929,5.2929,5.2929,5.2929,5.2929,5.2929,5.2929,5.2929,5.2929,5.2929,5.2929,5.3632,5.639,5.7487,5.8592,6.0742,6.1193,6.1193,6.1193,6.1193,6.1193,6.1193,6.1193,6.1193,6.1193,6.0932,6.0613,6.0235,5.9684,5.9219,5.89,5.8261,5.7855,5.7855,5.7507,5.7303,5.7303,5.7303,5.7303,5.7303,5.7303,5.7303,5.7303,5.7303,5.7303,5.7303,5.7303,5.7303,5.086,5.1866,5.199,5.1455,5.1239,5.0888,5.0042,4.969,4.959,4.959,4.959,4.959,4.959,4.959,4.959,4.959,4.959,4.959,4.959,4.959,4.959,4.959,4.959,4.9766,5.0167,5.0343,5.0594,5.1021,5.1574,5.1724,5.1297,5.1523,5.1473,5.1071,5.0519,5.0218,5.0218,4.9791,4.959,4.959,4.959,4.959,4.959,4.959,4.959,4.959,4.959,4.959,4.959,4.959,4.959,4.964,5.0193,5.077,5.1348,5.19,5.2452,5.2929,5.2929,5.2929,5.2929,5.2929,5.2929,5.2929,5.2929,5.2929,5.2929,5.2929,5.2929,5.2929,5.2929,5.2929,5.2929,5.2929,5.3179,5.4081,5.6455,5.7551,5.8655,6.0802,6.1193,6.1193,6.1193,6.1193,6.1193,6.1193,6.1193,6.1193,6.1193,6.1193,6.1019,6.0496,6.0293,6.0032,5.9568,5.8929,5.8493,5.8319,5.7826,5.7477,5.7303,5.7303,5.7303,5.7303,5.7303,5.7303,5.7303,5.7303,5.7303,5.7303,5.7303,5.7303,5.1071,5.1211,5.13,5.147,5.1085,5.0697,5.0453,4.9967,4.959,4.959,4.959,4.959,4.959,4.959,4.959,4.959,4.959,4.959,4.959,4.959,4.959,4.959,4.959,4.9615,4.964,5.0117,5.0419,5.0469,5.0996,5.1322,5.1272,5.0795,5.0494,5.0469,4.9916,4.964,4.964,4.9615,4.959,4.959,4.959,4.959,4.959,4.959,4.959,4.959,4.959,4.959,4.959,4.959,4.959,4.964,5.0193,5.077,5.1348,5.19,5.2452,5.2929,5.2929,5.2929,5.2929,5.2929,5.2929,5.2929,5.2929,5.2929,5.2929,5.2929,5.2929,5.2929,5.2929,5.2929,5.2929,5.2929,5.3903,5.526,5.6715,5.9121,6.1013,6.1193,6.1193,6.1193,6.1193,6.1193,6.1193,6.1193,6.1193,6.1193,6.1193,6.1193,6.1193,6.1164,6.0584,6.0177,6.0148,5.9597,5.8987,5.8348,5.8261,5.7971,5.7332,5.7303,5.7303,5.7303,5.7303,5.7303,5.7303,5.7303,5.7303,5.7303,5.7303,5.7303,5.1095,5.1211,5.123,5.1201,5.0907,5.0563,5.0174,4.9821,4.959,4.959,4.959,4.959,4.959,4.959,4.959,4.959,4.959,4.959,4.959,4.959,4.959,4.959,4.959,4.959,4.959,4.9766,4.9891,4.9891,5.0419,5.0569,5.0218,5.0343,5.0243,4.9891,4.969,4.959,4.959,4.959,4.959,4.959,4.959,4.959,4.959,4.959,4.959,4.959,4.959,4.959,4.959,4.959,4.959,4.9615,4.9816,5.0469,5.1297,5.1498,5.2151,5.2929,5.2929,5.2929,5.2929,5.2929,5.2929,5.2929,5.2929,5.2929,5.2929,5.2929,5.2929,5.2929,5.2929,5.2929,5.311,5.4039,5.5326,5.665,5.8088,5.983,6.1193,6.1193,6.1193,6.1193,6.1193,6.1193,6.1193,6.1193,6.1193,6.1193,6.1193,6.1193,6.1193,6.1193,6.099,6.0845,6.0845,6.0264,5.9771,5.9539,5.8755,5.8203,5.7942,5.7536,5.7303,5.7303,5.7303,5.7303,5.7303,5.7303,5.7303,5.7303,5.7303,5.7303,5.0954,5.1025,5.0998,5.1076,5.0783,5.0412,5.0198,4.9881,4.959,4.959,4.959,4.959,4.959,4.959,4.959,4.959,4.959,4.959,4.959,4.959,4.959,4.959,4.959,4.959,4.959,4.959,4.959,4.959,4.9941,4.9992,4.9615,4.9941,4.9967,4.9615,4.959,4.959,4.959,4.959,4.959,4.959,4.959,4.959,4.959,4.959,4.959,4.959,4.959,4.959,4.959,4.959,4.959,4.959,4.959,5.0293,5.1272,5.1272,5.1975,5.2929,5.2929,5.2929,5.2929,5.2929,5.2929,5.2929,5.2929,5.2929,5.2929,5.2929,5.2929,5.2929,5.2929,5.2929,5.3384,5.526,5.6352,5.7487,5.9369,6.056,6.1193,6.1193,6.1193,6.1193,6.1193,6.1193,6.1193,6.1193,6.1193,6.1193,6.1193,6.1193,6.1193,6.1193,6.1193,6.1193,6.1193,6.0787,6.0438,6.0206,5.9422,5.8842,5.8639,5.8,5.7652,5.7652,5.7419,5.7303,5.7303,5.7303,5.7303,5.7303,5.7303,5.7303,0.0,0.0,0.0,5.1047,5.0592,5.0216,5.0595,5.0106,4.959,4.959,4.959,4.959,4.959,4.959,4.959,4.959,4.959,4.959,4.959,4.959,4.959,4.959,4.959,4.959,4.959,4.959,4.959,4.959,4.959,4.959,4.959,4.959,4.959,4.959,4.959,4.959,4.959,4.959,4.959,4.959,4.959,4.959,4.959,4.959,4.959,4.959,4.959,4.959,4.959,4.959,4.959,4.959,4.959,5.0293,5.1272,5.1272,5.1975,5.2929,5.2929,5.2929,5.2929,5.2929,5.2929,5.2929,5.2929,5.2929,5.2929,5.2929,5.2929,5.2929,5.2929,5.2929,5.3632,5.6325,5.7038,5.7806,6.0621,6.1193,6.1193,6.1193,6.1193,6.1193,6.1193,6.1193,6.1193,6.1193,6.1193,6.1193,6.1193,6.1193,6.1193,6.1193,6.1193,6.1193,6.1193,6.1193,6.0932,6.0264,6.0206,5.9945,5.9364,5.8697,5.8348,5.8348,5.7681,5.7361,5.7332,5.7303,5.7303,5.7303,5.7303,5.7303,4.9517,0.0,0.0,0.0,0.0,0.0,5.0008,4.9856,4.959,4.959,4.959,4.959,4.959,4.959,4.959,4.959,4.959,4.959,4.959,4.959,4.959,4.959,4.959,4.959,4.959,4.959,4.959,4.959,4.959,4.959,4.959,4.959,4.959,4.959,4.959,4.959,4.959,4.959,4.959,4.959,4.959,4.959,4.959,4.959,4.959,4.959,4.959,4.959,4.959,4.959,4.959,4.959,4.959,5.0293,5.1272,5.1272,5.1975,5.2929,5.2929,5.2929,5.2929,5.2929,5.2929,5.2929,5.2929,5.2929,5.2929,5.2929,5.2929,5.2929,5.2929,5.3632,5.4861,5.6585,5.7742,5.8996,6.0802,6.1193,6.1193,6.1193,6.1193,6.1193,6.1193,6.1193,6.1193,6.1193,6.1193,6.1193,6.1193,6.1193,6.1193,6.1193,6.1193,6.1193,6.1193,6.1193,6.1106,6.0932,6.0467,6.0119,5.9945,5.9364,5.9016,5.9016,5.8842,5.8523,5.8029,5.7536,5.7303,5.7303,5.7303,5.7303,4.9084,4.9084,4.9153,4.9358,0.0,0.0,4.9586,4.9601,4.959,4.959,4.959,4.959,4.959,4.959,4.959,4.959,4.959,4.959,4.959,4.959,4.959,4.959,4.959,4.959,4.959,4.959,4.959,4.959,4.959,4.959,4.959,4.959,4.959,4.959,4.959,4.959,4.959,4.959,4.959,4.959,4.959,4.959,4.959,4.959,4.959,4.959,4.959,4.959,4.959,4.959,4.959,4.959,4.959,5.0293,5.1272,5.1272,5.1975,5.2929,5.2929,5.2929,5.2929,5.2929,5.2929,5.2929,5.2929,5.2929,5.2929,5.2929,5.2929,5.2929,5.2929,5.3971,5.5326,5.665,5.8088,5.9493,6.0863,6.1193,6.1193,6.1193,6.1193,6.1193,6.1193,6.1193,6.1193,6.1193,6.1193,6.1193,6.1193,6.1193,6.1193,6.1193,6.1193,6.1193,6.1193,6.1193,6.1193,6.1193,6.0816,6.0613,6.0613,6.0003,5.9684,5.9684,5.9422,5.9103,5.8726,5.8058,5.7565,5.7303,5.7303,5.7303,4.8984,4.9028,0.0,4.9097,4.923,0.0,4.933,4.9486,4.959,4.959,4.959,4.959,4.959,4.959,4.959,4.959,4.959,4.959,4.959,4.959,4.959,4.959,4.959,4.959,4.959,4.959,4.959,4.959,4.959,4.959,4.959,4.959,4.959,4.959,4.959,4.959,4.959,4.959,4.959,4.959,4.959,4.959,4.959,4.959,4.959,4.959,4.959,4.959,4.959,4.959,4.959,4.959,4.959,5.0293,5.1272,5.1272,5.1975,5.2929,5.2929,5.2929,5.2929,5.2929,5.2929,5.2929,5.2929,5.2929,5.2929,5.2929,5.2929,5.2929,5.2929,5.3971,5.5326,5.6455,5.7961,5.9431,6.0681,6.1073,6.1193,6.1193,6.1193,6.1193,6.1193,6.1193,6.1193,6.1193,6.1193,6.1193,6.1193,6.1193,6.1193,6.1193,6.1193,6.1193,6.1193,6.1193,6.1193,6.1193,6.1193,6.1193,6.1193,6.0613,6.0322,6.0322,5.9713,5.9393,5.9393,5.8668,5.8,5.7419,5.7332,5.7303,4.8276,4.8408,4.8763,4.9068,4.91,0.0,4.9481,4.9536,4.959,4.959,4.959,4.959,4.959,4.959,4.959,4.959,4.959,4.959,4.959,4.959,4.959,4.959,4.959,4.959,4.959,4.959,4.959,4.959,4.959,4.959,4.959,4.959,4.959,4.959,4.959,4.959,4.959,4.959,4.959,4.959,4.959,4.959,4.959,4.959,4.959,4.959,4.959,4.959,4.959,4.959,4.959,4.959,4.959,5.0293,5.1272,5.1272,5.1975,5.2929,5.2929,5.2929,5.2929,5.2929,5.2929,5.2929,5.2929,5.2929,5.2929,5.2929,5.2929,5.2929,5.2929,5.3971,5.5061,5.5326,5.7322,5.9183,5.9431,6.0409,6.1193,6.1193,6.1193,6.1193,6.1193,6.1193,6.1193,6.1193,6.1193,6.1193,6.1193,6.1193,6.1193,6.1193,6.1193,6.1193,6.1193,6.1193,6.1193,6.1193,6.1193,6.1193,6.1193,6.1077,6.099,6.099,6.0351,6.0032,6.0032,5.8871,5.8232,5.8087,5.7565,5.7303,4.8379,4.8445,4.8666,4.8837,4.8942,0.0,0.0,4.9461,4.959,4.959,4.959,4.959,4.959,4.959,4.959,4.959,4.959,4.959,4.959,4.959,4.959,4.959,4.959,4.959,4.959,4.959,4.959,4.959,4.959,4.959,4.959,4.959,4.959,4.959,4.959,4.959,4.959,4.959,4.959,4.959,4.959,4.959,4.959,4.959,4.959,4.959,4.959,4.959,4.959,4.959,4.959,4.959,4.959,5.0293,5.1272,5.1272,5.1975,5.2929,5.2929,5.2929,5.2929,5.2929,5.2929,5.2929,5.2929,5.2929,5.2929,5.2929,5.2929,5.2929,5.2929,5.3971,5.502,5.502,5.7129,5.9121,5.9121,6.0226,6.1193,6.1193,6.1193,6.1193,6.1193,6.1193,6.1193,6.1193,6.1193,6.1193,6.1193,6.1193,6.1193,6.1193,6.1193,6.1193,6.1193,6.1193,6.1193,6.1193,6.1193,6.1193,6.1193,6.1193,6.1193,6.1193,6.0874,6.07,6.07,5.9713,5.9103,5.8784,5.8116,5.7797,4.8706,4.8706,4.8772,4.8772,4.9032,4.9202,0.0,0.0,0.0,4.959,4.959,4.959,4.959,4.959,4.959,4.959,4.959,4.959,4.959,4.959,4.959,4.959,4.959,4.959,4.959,4.959,4.959,4.959,4.959,4.959,4.959,4.959,4.959,4.959,4.959,4.959,4.959,4.959,4.959,4.959,4.959,4.959,4.959,4.959,4.959,4.959,4.959,4.959,4.959,4.959,4.959,4.959,4.959,5.0293,5.1272,5.1272,5.1975,5.2929,5.2929,5.2929,5.2929,5.2929,5.2929,5.2929,5.2929,5.2929,5.2929,5.2929,5.2929,5.2929,5.2929,5.37,5.4619,5.4619,5.6677,5.8718,5.8718,6.0014,6.1193,6.1193,6.1193,6.1193,6.1193,6.1193,6.1193,6.1193,6.1193,6.1193,6.1193,6.1193,6.1193,6.1193,6.1193,6.1193,6.1193,6.1193,6.1193,6.1193,6.1193,6.1193,6.1193,6.1193,6.1193,6.1193,6.1193,6.1193,6.1193,6.0642,6.009,5.9451,5.8813,5.8493,4.9137,4.9267,4.9461,4.9461,4.9525,4.9525,4.9525,0.0,4.959,4.959,0.0,4.959,4.959,0.0,0.0,4.959,4.959,4.959,4.959,4.959,4.959,4.959,4.959,4.959,4.959,4.959,4.959,4.959,4.959,4.959,4.959,4.959,4.959,4.959,4.959,4.959,4.959,4.959,4.959,4.959,4.959,4.959,4.959,4.959,4.959,4.959,4.959,4.959,4.959,4.959,4.959,4.959,4.959,5.0293,5.1272,5.1272,5.1975,5.2929,5.2929,5.2929,5.2929,5.2929,5.2929,5.2929,5.2929,5.2929,5.2929,5.2929,5.2929,5.2929,5.2929,5.2998,5.311,5.311,5.5234,5.7231,5.7231,5.9307,6.1193,6.1193,6.1193,6.1193,6.1193,6.1193,6.1193,6.1193,6.1193,6.1193,6.1193,6.1193,6.1193,6.1193,6.1193,6.1193,6.1193,6.1193,6.1193,6.1193,6.1193,6.1193,6.1193,6.1193,6.1193,6.1193,6.1193,6.1193,6.1193,6.1106,6.0758,6.009,5.948,5.919,5.0438,5.0187,5.0067,5.0067,4.9841,4.959,4.959,4.959,4.959,4.959,0.0,0.0,0.0,0.0,0.0,0.0,4.959,4.959,4.959,4.959,4.959,4.959,4.959,4.959,4.959,4.959,4.959,4.959,4.959,4.959,4.959,4.959,4.959,4.959,4.959,4.959,4.959,4.959,4.959,4.959,4.959,4.959,4.959,4.959,4.959,4.959,4.959,4.959,4.959,4.959,4.959,4.959,4.959,5.0067,5.082,5.1147,5.1774,5.2503,5.2829,5.2929,5.2929,5.2929,5.2929,5.2929,5.2929,5.2929,5.2929,5.2929,5.2929,5.2929,5.2929,5.2929,5.2929,5.2929,5.4994,5.6973,5.6973,5.9245,6.1193,6.1193,6.1193,6.1193,6.1193,6.1193,6.1193,6.1193,6.1193,6.1193,6.1193,6.1193,6.1193,6.1193,6.1193,6.1193,6.1193,6.1193,6.1193,6.1193,6.1193,6.1193,6.1193,6.1193,6.1193,6.1193,6.1193,6.1193,6.1193,6.1193,6.1048,6.0758,6.0119,5.9829,5.1272,5.0971,5.0645,5.0645,5.0343,5.0017,4.9866,4.9816,4.9766,4.9615,4.959,0.0,0.0,0.0,4.959,4.959,0.0,4.959,4.959,4.959,4.959,4.959,4.959,4.959,4.959,4.959,4.959,4.959,4.959,4.959,4.959,4.959,4.959,4.959,4.959,4.959,4.959,4.959,4.959,4.959,4.959,4.959,4.959,4.959,4.959,4.959,4.959,4.959,4.959,4.959,4.959,4.959,4.959,4.9841,5.0268,5.1021,5.1624,5.2176,5.2729,5.2929,5.2929,5.2929,5.2929,5.2929,5.2929,5.2929,5.2929,5.2929,5.2929,5.2929,5.2929,5.2929,5.2998,5.3384,5.53,5.7102,5.7487,5.9493,6.1193,6.1193,6.1193,6.1193,6.1193,6.1193,6.1193,6.1193,6.1193,6.1193,6.1193,6.1193,6.1193,6.1193,6.1193,6.1193,6.1193,6.1193,6.1193,6.1193,6.1193,6.1193,6.1193,6.1193,6.1193,6.1193,6.1193,6.1193,6.1193,6.1193,6.1193,6.1193,6.07,6.0467,5.1272,5.1272,5.1247,5.1247,5.1247,5.1071,5.0519,5.0393,5.0243,4.9715,4.959,4.959,4.959,4.959,4.959,4.959,4.959,0.0,0.0,4.959,4.959,4.959,4.959,4.959,4.959,4.959,4.959,4.959,4.959,4.959,4.959,4.959,4.959,4.959,4.959,4.959,4.959,4.959,4.959,4.959,4.959,4.959,4.959,4.959,4.959,4.959,4.959,4.959,4.959,4.959,4.959,4.959,4.959,4.9615,4.9766,5.087,5.1624,5.2176,5.2729,5.2929,5.2929,5.2929,5.2929,5.2929,5.2929,5.2929,5.2929,5.2929,5.2929,5.2929,5.2929,5.2929,5.3247,5.4619,5.5959,5.7359,5.8718,6.0165,6.1193,6.1193,6.1193,6.1193,6.1193,6.1193,6.1193,6.1193,6.1193,6.1193,6.1193,6.1193,6.1193,6.1193,6.1193,6.1193,6.1193,6.1193,6.1193,6.1193,6.1193,6.1193,6.1193,6.1193,6.1193,6.1193,6.1193,6.1193,6.1193,6.1193,6.1193,6.1193,6.1164,6.1164,5.2377,5.2101,5.1825,5.1825,5.1548,5.1222,5.1021,5.0996,5.082,5.0268,5.0142,5.0017,4.9665,4.959,4.959,0.0,0.0,4.959,0.0,4.959,4.959,4.959,4.959,4.9741,5.0092,5.0142,5.0142,5.0142,5.0142,4.9967,4.9615,4.959,4.959,4.959,4.959,4.959,4.959,4.959,4.959,4.959,4.959,4.959,4.959,4.959,4.959,4.959,4.959,4.959,4.959,4.959,4.959,4.959,4.959,4.959,4.9741,5.087,5.1398,5.1699,5.2603,5.2929,5.2929,5.2929,5.2929,5.2929,5.2929,5.2929,5.2929,5.2929,5.2929,5.311,5.4039,5.4283,5.4619,5.6025,5.7359,5.8529,5.8996,6.0226,6.1193,6.1193,6.1193,6.1193,6.1193,6.1193,6.1193,6.1193,6.1193,6.1193,6.1193,6.1193,6.1193,6.1193,6.1193,6.1193,6.1193,6.1193,6.1193,6.1193,6.1193,6.1193,6.1193,6.1193,6.1193,6.1193,6.1193,6.1193,6.1193,6.1193,6.1193,6.1193,6.1193,6.1193,5.2929,5.2678,5.2402,5.2402,5.2126,5.1825,5.1624,5.1574,5.1423,5.0845,5.072,5.0544,4.9992,4.9891,4.9816,0.0,0.0,0.0,0.0,4.959,4.9665,4.9866,4.9891,5.0017,5.0393,5.0594,5.072,5.072,5.0519,5.0268,4.9916,4.969,4.959,4.959,4.959,4.959,4.959,4.959,4.959,4.959,4.959,4.959,4.959,4.959,4.959,4.959,4.959,4.959,4.959,4.959,4.959,4.959,4.959,4.959,4.9741,5.087,5.1523,5.1975,5.2678,5.2929,5.2929,5.2929,5.2929,5.2929,5.2929,5.2929,5.2879,5.2678,5.2779,5.3085,5.3782,5.4463,5.5326,5.665,5.8088,5.9245,5.9768,6.056,6.1193,6.1193,6.1193,6.1193,6.1193,6.1193,6.1193,6.1193,6.1193,6.1193,6.1193,6.1193,6.1193,6.1193,6.1193,6.1193,6.1193,6.1193,6.1193,6.1193,6.1193,6.1193,6.1193,6.1193,6.1309,6.1513,6.1309,6.1309,6.1513,6.1309,6.1193,6.1193,6.1193,6.1193]}]]